[[{"header":{"parameterUnit":"m.s-1","parameterCategory":1,"la1":30.6,"la2":29.2853,"lo1":-89.7004,"lo2":-87.6739,"dy":0.0162,"dx":0.0183,"nx":112,"ny":82,"refTime":"2024-08-14T18:00:00:Z","depth":0,"parameterNumber":2,"parameterNumberName":"U-component_of_WINDS"},"data":[0.0,0.0,0.0,0.0,0.0,0.0,0.0,0.0,0.0,0.0,0.0,0.0,0.0,0.0,0.0,0.0,0.0,0.0,0.0,0.0,0.0,0.0,0.0,0.0,0.0,0.0,0.0,0.0,0.0,0.0,0.0,0.0,0.0,0.0,0.0,0.0,0.0,0.0,0.0,0.0,0.0,0.0,0.0,0.0,0.0,0.0,0.0,0.0,0.0,0.0,0.0,0.0,0.0,0.0,0.0,0.0,0.0,0.0,0.0,0.0,0.0,0.0,0.0,0.0,0.0,0.0,0.0,0.0,0.0,0.0,0.0,0.0,0.0,0.0,0.0,0.0,0.0,0.0,0.0,0.0,0.0,0.0,0.0,0.0,0.0,0.0,0.0,0.0,0.0,0.0,1.343,1.6143,1.9254,2.1319,2.1768,2.1125,1.9246,1.582,0.0,0.0,0.0,0.0,0.0,0.0,0.0,0.0,0.0,0.0,0.0,0.0,0.0,0.0,0.0,0.0,0.0,0.0,0.0,0.0,0.0,0.0,0.0,0.0,0.0,0.0,0.0,0.0,0.0,0.0,0.0,0.0,0.0,0.0,0.0,0.0,0.0,0.0,0.0,0.0,0.0,0.0,0.0,0.0,0.0,0.0,0.0,0.0,0.0,0.0,0.0,0.0,0.0,0.0,0.0,0.0,0.0,0.0,0.0,0.0,0.0,0.0,0.0,0.0,0.0,0.0,0.0,0.0,0.0,0.0,0.0,0.0,0.0,0.0,0.0,0.0,0.0,0.0,0.0,0.0,0.0,0.0,0.0,0.0,0.0,0.0,0.0,0.0,0.0,0.0,0.0,0.0,0.0,0.0,0.0,0.0,0.0,0.0,0.0,0.0,0.0,0.0,0.0,0.0,1.4695,1.9659,2.1435,2.2126,2.1823,2.1692,1.9635,1.4988,0.0,0.0,0.0,0.0,0.0,0.0,0.0,0.0,0.0,0.0,0.0,0.0,0.0,0.0,0.0,0.0,0.0,0.0,0.0,0.0,0.0,0.0,0.0,0.0,0.0,0.0,0.0,0.0,0.0,0.0,0.0,0.0,0.0,0.0,0.0,0.0,0.0,0.0,0.0,0.0,0.0,0.0,0.0,0.0,0.0,0.0,0.0,0.0,0.0,0.0,0.0,0.0,0.0,0.0,0.0,0.0,0.0,0.0,0.0,0.0,0.0,0.0,0.0,0.0,0.0,0.0,0.0,0.0,0.0,0.0,0.0,0.0,0.0,0.0,0.0,0.0,0.0,0.0,0.0,0.0,0.0,0.0,0.0,0.0,0.0,0.0,0.0,0.0,0.0,0.0,0.0,0.0,0.0,0.0,0.0,0.0,0.0,0.0,0.0,0.0,0.0,0.0,0.0,1.3917,1.6714,2.0596,2.2288,2.3146,2.3107,2.2317,2.0079,1.6065,1.5012,0.0,0.0,0.0,0.0,0.0,0.0,0.0,0.0,0.0,0.0,0.0,0.0,0.0,0.0,0.0,0.0,0.0,0.0,0.0,0.0,0.0,0.0,0.0,0.0,0.0,0.0,0.0,0.0,0.0,0.0,0.0,0.0,0.0,0.0,0.0,0.0,0.0,0.0,0.0,0.0,0.0,0.0,0.0,0.0,0.0,0.0,0.0,0.0,0.0,0.0,0.0,0.0,0.0,0.0,0.0,0.0,0.0,0.0,0.0,0.0,0.0,0.0,0.0,0.0,0.0,0.0,0.0,0.0,0.0,0.0,0.0,0.0,0.0,0.0,0.0,0.0,0.0,0.0,0.0,0.0,0.0,0.0,0.0,0.0,0.0,0.0,0.0,0.0,0.0,0.0,0.0,0.0,0.0,0.0,0.0,0.0,0.0,0.0,0.0,0.0,0.0,0.0,1.5901,1.8283,2.0741,2.255,2.359,2.3639,2.2134,1.9822,1.6542,1.4818,0.0,0.0,0.0,0.0,0.0,0.0,0.0,0.0,0.0,0.0,0.0,0.0,0.0,0.0,0.0,0.0,0.0,0.0,0.0,0.0,0.0,0.0,0.0,0.0,0.0,0.0,0.0,0.0,0.0,0.0,0.0,0.0,0.0,0.0,0.0,0.0,0.0,0.0,0.0,0.0,0.0,0.0,0.0,0.0,0.0,0.0,0.0,0.0,0.0,0.0,0.0,0.0,0.0,0.0,0.0,0.0,0.0,0.0,0.0,0.0,0.0,0.0,0.0,0.0,0.0,0.0,0.0,0.0,0.0,0.0,0.0,0.0,0.0,0.0,0.0,0.0,0.0,0.0,0.0,0.0,0.0,0.0,0.0,0.0,0.0,0.0,0.0,0.0,0.0,0.0,0.0,0.0,0.0,0.0,0.0,0.0,0.0,0.0,0.0,0.0,0.0,0.0,1.5787,1.8598,2.0752,2.2336,2.2891,2.2044,2.0443,1.8096,1.4873,1.3159,0.0,0.0,0.0,0.0,0.0,0.0,0.0,0.0,0.0,0.0,0.0,0.0,0.0,0.0,0.0,0.0,0.0,0.0,0.0,0.0,0.0,0.0,0.0,0.0,0.0,0.0,0.0,0.0,0.0,0.0,0.0,0.0,0.0,0.0,0.0,0.0,0.0,0.0,0.0,0.0,0.0,0.0,0.0,0.0,0.0,0.0,0.0,0.0,0.0,0.0,0.0,0.0,0.0,0.0,0.0,0.0,0.0,0.0,0.0,0.0,0.0,0.0,0.0,0.0,0.0,0.0,0.0,0.0,0.0,0.0,0.0,0.0,0.0,0.0,0.0,0.0,0.0,0.0,0.0,0.0,0.0,0.0,0.0,0.0,0.0,0.0,0.0,0.0,0.0,0.0,0.0,0.0,0.0,0.0,0.0,0.0,0.0,0.0,0.0,0.0,0.0,0.0,1.5683,1.8524,0.0,2.2242,2.2915,2.2575,2.151,1.9234,1.549,0.0,0.0,0.0,0.0,0.0,0.0,0.0,0.0,0.0,0.0,0.0,0.0,0.0,0.0,0.0,0.0,0.0,0.0,0.0,0.0,0.0,0.0,0.0,0.0,0.0,0.0,0.0,0.0,0.0,0.0,0.0,0.0,0.0,0.0,0.0,0.0,0.0,0.0,0.0,0.0,0.0,0.0,0.0,0.0,0.0,0.0,0.0,0.0,0.0,0.0,0.0,0.0,0.0,0.0,0.0,0.0,0.0,0.0,0.0,0.0,0.0,0.0,0.0,0.0,0.0,0.0,0.0,0.0,0.0,0.0,0.0,0.0,0.0,0.0,0.0,0.0,0.0,0.0,0.0,0.0,0.0,0.0,0.0,0.0,0.0,0.0,0.0,0.0,0.0,0.0,0.0,0.0,0.0,0.0,0.0,0.0,0.0,0.0,0.0,0.0,0.0,0.0,1.2847,1.5724,1.851,0.0,2.203,2.27,2.2612,2.1382,1.9106,1.5545,0.0,0.0,0.0,0.0,0.0,0.0,0.0,0.0,0.0,0.0,0.0,0.0,0.0,0.0,0.0,0.0,0.0,0.0,0.0,0.0,0.0,0.0,0.0,0.0,0.0,0.0,0.0,0.0,0.0,0.0,0.0,0.0,0.0,0.0,0.0,0.0,0.0,0.0,0.0,0.0,0.0,0.0,0.0,0.0,0.0,0.0,0.0,0.0,0.0,0.0,0.0,0.0,0.0,0.0,0.0,0.0,0.0,0.0,0.0,0.0,0.0,0.0,0.0,0.0,0.0,0.0,0.0,0.0,0.0,0.0,0.0,0.0,0.0,0.0,0.0,0.0,0.0,0.0,0.0,0.0,0.0,0.0,0.0,0.0,0.0,0.0,0.0,0.0,0.0,0.0,0.0,0.0,0.0,0.0,0.0,0.0,0.0,0.0,0.0,0.0,0.0,0.0,1.3022,1.5866,1.8623,2.077,2.1643,2.2013,2.1806,1.9546,1.7087,0.0,0.0,0.0,0.0,0.0,0.0,0.0,0.0,0.0,0.0,0.0,0.0,0.0,0.0,0.0,0.0,0.0,0.0,0.0,0.0,0.0,0.0,0.0,0.0,0.0,0.0,0.0,0.0,0.0,0.0,0.0,0.0,0.0,0.0,0.0,0.0,0.0,0.0,0.0,0.0,0.0,0.0,0.0,0.0,0.0,0.0,0.0,0.0,0.0,0.0,0.0,0.0,0.0,0.0,0.0,0.0,0.0,0.0,0.0,0.0,0.0,0.0,0.0,0.0,0.0,0.0,0.0,0.0,0.0,0.0,0.0,0.0,0.0,0.0,0.0,0.0,0.0,0.0,0.0,0.0,0.0,0.0,0.0,0.0,0.0,0.0,0.0,0.0,0.0,0.0,0.0,0.0,0.0,0.0,0.0,0.0,0.0,0.0,0.0,0.0,0.0,0.0,0.0,1.3088,1.6472,1.9324,2.0516,2.1185,2.1522,2.1441,2.0438,1.8265,1.4708,0.0,0.0,0.0,0.0,0.0,0.0,0.0,0.0,0.0,0.0,0.0,0.0,0.0,0.0,0.0,0.0,0.0,0.0,0.0,0.0,0.0,0.0,0.0,0.0,0.0,0.0,0.0,0.0,0.0,0.0,0.0,0.0,0.0,0.0,0.0,0.0,0.0,0.0,0.0,0.0,0.0,0.0,0.0,0.0,0.0,0.0,0.0,0.0,0.0,0.0,0.0,0.0,0.0,0.0,0.0,0.0,0.0,0.0,0.0,0.0,0.0,0.0,0.0,0.0,0.0,0.0,0.0,0.0,0.0,0.0,0.0,0.0,0.0,0.0,0.0,0.0,0.0,0.0,0.0,0.0,0.0,0.0,0.0,0.0,0.0,0.0,0.0,0.0,0.0,0.0,0.0,0.0,0.0,0.0,0.0,0.0,0.0,0.0,0.0,0.0,0.0,0.0,1.3243,1.6697,1.9493,2.0414,2.104,2.1331,2.1151,2.0662,1.8768,1.5054,0.0,0.0,0.0,0.0,0.0,0.0,0.0,0.0,0.0,0.0,0.0,0.0,0.0,0.0,0.0,0.0,0.0,0.0,0.0,0.0,0.0,0.0,0.0,0.0,0.0,0.0,0.0,0.0,0.0,0.0,0.0,0.0,0.0,0.0,0.0,0.0,0.0,0.0,0.0,0.0,0.0,0.0,0.0,0.0,0.0,0.0,0.0,0.0,0.0,0.0,0.0,0.0,0.0,0.0,0.0,0.0,0.0,0.0,0.0,0.0,0.0,0.0,0.0,0.0,0.0,0.0,0.0,0.0,0.0,0.0,0.0,0.0,0.0,0.0,0.0,0.0,0.0,0.0,0.0,0.0,0.0,0.0,0.0,0.0,0.0,0.0,0.0,0.0,0.0,0.0,0.0,0.0,0.0,0.0,0.0,0.0,0.0,0.0,0.0,0.0,0.0,0.0,1.3447,1.669,1.9362,2.0448,2.1188,2.1394,2.0915,2.0358,1.8734,1.5576,0.0,0.0,0.0,0.0,0.0,0.0,0.0,0.0,0.0,0.0,0.0,0.0,0.0,0.0,0.0,0.0,0.0,0.0,0.0,0.0,0.0,0.0,0.0,0.0,0.0,0.0,0.0,0.0,0.0,0.0,0.0,0.0,0.0,0.0,0.0,0.0,0.0,0.0,0.0,0.0,0.0,0.0,0.0,0.0,0.0,0.0,0.0,0.0,0.0,0.0,0.0,0.0,0.0,0.0,0.0,0.0,0.0,0.0,0.0,0.0,1.369,1.279,0.0,0.0,0.0,0.0,0.0,0.0,0.0,0.0,0.0,0.0,0.0,0.0,0.0,0.0,0.0,0.0,0.0,0.0,0.0,0.0,0.0,0.0,0.0,0.0,0.0,0.0,0.0,0.0,0.0,0.0,0.0,0.0,0.0,0.0,0.0,0.0,0.0,0.0,0.0,0.0,1.3942,1.7169,1.9796,2.0943,2.1318,2.125,2.0576,2.0055,1.8694,1.618,1.5296,0.0,0.0,0.0,0.0,0.0,0.0,0.0,0.0,0.0,0.0,0.0,0.0,0.0,0.0,0.0,0.0,0.0,0.0,0.0,0.0,0.0,0.0,0.0,0.0,0.0,0.0,0.0,0.0,0.0,0.0,0.0,0.0,0.0,0.0,0.0,0.0,0.0,0.0,0.0,0.0,0.0,0.0,0.0,0.0,0.0,0.0,0.0,0.0,0.0,0.0,0.0,0.0,0.0,0.0,0.0,0.0,0.0,0.0,0.0,1.5587,1.4751,0.0,0.0,0.0,0.0,0.0,0.0,0.0,0.0,0.0,0.0,0.0,0.0,0.0,0.0,0.0,0.0,0.0,0.0,0.0,0.0,0.0,0.0,0.0,0.0,0.0,0.0,0.0,0.0,0.0,0.0,0.0,0.0,0.0,0.0,0.0,0.0,0.0,0.0,0.0,0.0,1.4526,1.75,1.994,2.1066,2.1598,2.1575,2.0849,2.0322,1.9206,1.7228,1.6253,0.0,0.0,0.0,0.0,0.0,0.0,0.0,0.0,0.0,0.0,0.0,0.0,0.0,0.0,0.0,0.0,0.0,0.0,0.0,0.0,0.0,0.0,0.0,0.0,0.0,0.0,0.0,0.0,0.0,0.0,0.0,0.0,0.0,0.0,0.0,0.0,0.0,0.0,0.0,0.0,0.0,0.0,0.0,0.0,0.0,0.0,0.0,0.0,0.0,0.0,0.0,0.0,0.0,1.8976,1.9316,2.0348,1.9809,2.0168,2.1036,1.7861,1.7379,1.8593,1.5973,0.0,0.0,0.0,0.0,0.0,0.0,0.0,0.0,0.0,0.0,0.0,0.0,0.0,0.0,0.0,0.0,0.0,0.0,0.0,0.0,0.0,0.0,1.8395,1.8633,1.9302,1.9152,1.6424,0.0,0.0,0.0,0.0,0.0,0.0,0.0,0.0,0.0,0.0,0.0,1.5315,1.7963,2.014,2.1269,2.1938,2.2006,2.1271,2.0797,1.9934,1.852,1.7244,1.5938,0.0,0.0,0.0,0.0,0.0,0.0,0.0,0.0,0.0,0.0,0.0,0.0,0.0,0.0,0.0,0.0,0.0,0.0,0.0,0.0,0.0,0.0,0.0,0.0,0.0,0.0,0.0,0.0,0.0,0.0,0.0,0.0,1.0931,1.1682,0.0,0.0,0.0,0.0,0.0,0.0,0.0,0.0,0.0,0.0,0.0,0.0,0.0,1.8635,2.0044,2.0648,2.1368,2.2184,2.2604,2.2906,2.3071,2.2996,2.3056,2.3191,2.2709,0.0,2.0272,1.8721,0.0,0.0,0.0,0.0,0.0,0.0,0.0,0.0,0.0,0.0,0.0,0.0,0.0,0.0,0.0,0.0,0.0,0.0,0.0,0.0,0.0,0.0,2.2194,2.1274,2.1658,2.1909,2.0603,1.8341,1.6292,1.5341,1.4648,1.3954,0.0,0.0,0.0,0.0,0.0,0.0,1.6589,1.8923,2.0905,2.2046,2.2243,2.2006,2.1271,2.1145,2.0704,1.9815,1.8567,1.7455,1.6572,1.4753,0.0,0.0,0.0,0.0,0.0,0.0,0.0,0.0,0.0,0.0,0.0,0.0,0.0,0.0,0.0,0.0,0.0,0.0,0.0,0.0,0.0,0.0,0.0,0.0,0.0,0.0,0.0,0.0,0.0,1.131,1.2641,1.3734,1.3857,1.3473,0.0,0.0,0.0,0.0,0.0,0.0,0.0,0.0,0.0,2.0034,2.0632,2.1717,2.3331,2.3318,2.3842,2.478,2.4717,2.4732,2.4732,2.4732,2.4732,2.4732,2.4732,2.4253,2.331,2.1231,2.0049,1.9361,0.0,0.0,0.0,0.0,1.7969,1.8786,1.9585,1.991,1.9947,1.9422,0.0,0.0,0.0,0.0,0.0,0.0,0.0,2.0611,2.1194,2.2324,2.3271,2.3226,2.2926,2.2567,2.2124,2.0666,1.9068,1.7698,1.7185,1.6339,1.436,1.409,0.0,0.0,0.0,1.6605,1.8308,1.9535,2.078,2.2153,2.231,2.2175,2.1854,2.1431,2.1068,2.0703,1.9729,1.8705,1.7614,1.6356,1.4689,0.0,0.0,0.0,0.0,0.0,0.0,0.0,0.0,0.0,0.0,0.0,0.0,0.0,0.0,0.0,0.0,0.0,0.0,0.0,0.0,0.0,0.0,0.0,0.0,0.0,0.0,0.0,0.0,1.2745,1.4214,1.5413,1.5654,1.5243,0.0,0.0,0.0,0.0,0.0,0.0,1.9051,1.954,2.0612,2.2571,2.2776,2.3778,2.5667,2.5314,2.5811,2.7209,2.6796,2.6617,2.6617,2.6452,2.6378,2.6363,2.6198,2.6108,2.5914,2.346,2.2443,2.2278,2.0617,2.0427,2.1057,2.1115,2.1332,2.1741,2.2728,2.2987,2.2769,2.1837,2.1371,2.0822,1.8961,0.0,0.0,0.0,0.0,2.2332,2.3648,2.384,2.3816,2.4388,2.3694,2.2946,2.2946,2.244,2.1458,1.9764,1.937,1.8524,1.6032,1.5894,0.0,1.5,1.6207,1.7856,1.9575,2.0147,2.0888,2.2158,2.231,2.231,2.231,2.1803,2.1465,2.1465,2.0754,1.9796,1.863,1.7714,1.6354,1.4583,0.0,0.0,0.0,0.0,0.0,0.0,0.0,0.0,0.0,0.0,0.0,0.0,0.0,0.0,0.0,0.0,0.0,0.0,0.0,0.0,0.0,0.0,0.0,0.0,0.0,0.0,0.0,0.0,0.0,1.6179,1.6574,0.0,0.0,0.0,0.0,1.6372,1.7971,1.9321,2.0251,2.1554,2.2273,2.2405,2.3018,2.4381,2.6404,2.6419,2.7428,2.9439,2.9439,2.9385,2.937,2.8742,2.8442,2.8412,2.7754,2.752,2.737,2.5315,2.4433,2.4358,2.364,2.337,2.3443,2.3443,2.3724,2.4045,2.3474,2.3537,2.3925,2.44,2.443,2.4133,2.3308,2.3088,0.0,0.0,2.3744,2.4354,2.4438,2.4455,2.4455,2.4506,2.4046,2.3654,2.3654,2.325,2.2521,2.1151,2.0652,2.0033,1.8812,0.0,1.7389,1.699,1.7961,1.9012,1.9867,2.088,2.1715,2.2237,2.231,2.231,2.231,2.2276,2.2243,2.2243,2.1549,2.0754,1.9942,1.8711,1.7308,1.5741,1.4538,0.0,0.0,0.0,0.0,0.0,0.0,0.0,0.0,0.0,0.0,0.0,0.0,0.0,0.0,0.0,0.0,0.0,0.0,0.0,0.0,0.0,0.0,0.0,0.0,0.0,0.0,0.0,0.0,1.7667,1.8127,0.0,1.6626,1.6735,1.7172,1.7863,1.849,1.9953,2.2324,2.293,2.3848,2.5312,2.5588,2.6075,2.6804,2.6818,2.7456,2.8749,2.8749,2.9042,2.9564,2.934,2.922,2.922,2.8966,2.8861,2.8816,2.8113,2.7051,2.5824,2.5151,2.4896,2.4896,2.4896,2.4972,2.5122,2.488,2.5081,2.5566,2.6016,2.5799,2.5379,2.5494,2.5862,2.6133,2.5659,2.6048,2.6522,2.6031,2.5698,2.5479,2.5479,2.4441,2.3523,2.3523,2.3007,2.2325,2.1603,2.1437,2.0909,1.9095,1.9349,1.9447,1.8336,1.9108,1.9987,2.0559,2.0973,2.1385,2.1794,2.2106,2.231,2.231,2.231,2.2107,2.1617,2.1356,2.0705,1.9596,1.8961,1.8107,1.7045,1.5983,1.4413,0.0,0.0,0.0,0.0,0.0,0.0,0.0,0.0,0.0,0.0,0.0,0.0,0.0,0.0,0.0,0.0,0.0,0.0,0.0,0.0,0.0,0.0,0.0,0.0,0.0,0.0,1.7638,1.8251,1.8752,1.8669,1.7737,1.7684,1.8118,1.9037,1.9232,2.0415,2.2874,2.2999,2.3722,2.5228,2.5579,2.5994,2.6489,2.6789,2.752,2.8533,2.8533,2.8841,2.9376,2.9469,2.9492,2.9478,2.956,2.9579,2.9579,2.9579,2.8801,2.753,2.6871,2.6617,2.6587,2.6363,2.6273,2.6243,2.6019,2.6138,2.6432,2.6668,2.6665,2.6632,2.7067,2.749,2.7827,2.757,2.7542,2.7537,2.7236,2.6614,2.6064,2.6064,2.4875,2.3763,2.3763,2.3225,2.2595,2.2149,2.2077,2.1626,2.0042,2.0387,2.0561,1.959,1.9811,2.0261,2.0731,2.0748,2.0926,2.1337,2.1675,2.1915,2.2032,2.2061,2.1956,2.172,2.1464,2.0872,1.9883,1.9411,1.8795,1.802,1.6883,1.5735,1.4537,0.0,0.0,0.0,0.0,0.0,0.0,0.0,0.0,0.0,0.0,0.0,0.0,0.0,0.0,0.0,0.0,0.0,0.0,0.0,0.0,0.0,0.0,0.0,1.4822,1.5875,1.7027,1.7843,1.8309,1.8487,1.8359,1.8496,1.8994,1.9817,2.0313,2.0998,2.1918,2.1929,2.194,2.2009,2.29,2.4044,2.5419,2.6375,2.7595,2.8994,2.8967,2.903,2.9002,2.9217,2.9303,2.9318,2.9548,2.9639,2.9639,2.9639,2.9639,2.9579,2.8891,2.8622,2.8547,2.7874,2.767,2.7565,2.6841,2.6563,2.6439,2.6439,2.7206,2.8139,2.8122,2.8139,2.8256,2.8807,2.8145,2.7342,2.7954,2.7138,2.6181,2.619,2.5287,2.442,2.4389,2.3964,2.343,2.2817,2.2504,2.2187,2.1774,2.1171,2.0737,2.0737,2.0154,0.0,2.0243,2.0296,2.0483,2.0926,2.0991,2.115,2.1552,2.1582,2.1903,2.2583,2.1917,2.1318,2.0923,2.0124,1.9381,1.8657,1.7304,1.6737,1.704,0.0,0.0,0.0,0.0,0.0,0.0,0.0,0.0,0.0,0.0,0.0,0.0,0.0,0.0,0.0,0.0,0.0,0.0,0.0,0.0,0.0,1.58,1.649,1.6959,1.801,1.8905,1.9251,1.975,1.9772,1.9093,1.9108,1.9301,1.9889,2.0327,2.1161,2.2445,2.2775,2.3263,2.3949,2.4251,2.4992,2.6178,2.6481,2.7477,2.9306,2.8866,2.8984,2.9573,2.9219,2.9066,2.9128,2.9822,3.0119,3.0119,3.0743,3.1001,3.0881,2.9759,2.931,2.928,2.9101,2.8727,2.8218,2.7545,2.7319,2.7349,2.7765,2.8124,2.8489,2.8918,2.9049,2.8979,2.8589,2.8275,2.7892,2.7522,2.6873,2.6236,2.5737,2.5047,2.4413,2.39,2.3724,2.355,2.337,2.3275,2.2923,2.1899,2.1545,2.1425,2.1425,2.0857,2.046,2.0557,2.0411,2.0348,2.0483,2.0797,2.1023,2.115,2.143,2.147,2.115,2.0849,2.0761,2.0888,2.0165,1.9767,1.9758,1.8954,1.8302,0.0,0.0,0.0,0.0,0.0,0.0,0.0,0.0,0.0,0.0,0.0,0.0,0.0,0.0,0.0,0.0,0.0,0.0,0.0,0.0,0.0,0.0,1.7174,1.7914,1.862,1.9013,1.9318,1.9758,2.0265,2.0471,2.0164,2.0264,2.0478,2.0723,2.0977,2.1531,2.233,2.2585,2.296,2.3594,2.3971,2.4513,2.5149,2.5547,2.6602,2.8154,2.7814,2.8158,2.9074,2.9121,2.9172,2.9224,2.9806,3.0086,3.0134,3.0369,3.0644,3.0925,0.0,0.0,0.0,0.0,2.934,2.8951,2.8547,2.8233,2.8096,2.8434,2.8517,2.8559,2.8919,2.8996,2.9009,2.8822,2.8381,2.7876,2.7395,2.6688,2.5839,2.5139,2.4542,2.3956,2.3305,2.3161,2.312,2.2844,2.2786,0.0,2.2188,2.2114,2.2017,2.1742,2.1372,2.1126,2.1126,2.0736,2.0462,2.0462,2.0447,2.0532,2.0682,2.1102,0.0,0.0,0.0,2.0912,2.1052,2.0782,0.0,0.0,0.0,0.0,0.0,1.9733,0.0,0.0,1.907,1.8998,0.0,0.0,0.0,0.0,0.0,0.0,0.0,0.0,0.0,0.0,0.0,0.0,0.0,0.0,0.0,0.0,1.8547,1.9313,2.0026,1.9482,1.9268,1.998,2.0449,2.0869,2.1269,2.166,2.1885,2.1885,2.1934,2.1953,2.1953,2.2002,0.0,0.0,0.0,2.3317,2.3479,2.435,2.5396,2.6523,2.6541,2.7122,2.8038,2.8866,2.9254,2.9298,2.9646,2.9734,2.9693,2.9366,2.961,3.0251,3.0395,3.0443,3.0241,2.9618,2.9451,2.9436,2.9431,0.0,0.0,2.8538,2.852,2.847,2.8394,2.8378,2.8493,2.895,2.824,2.7327,2.7238,2.6367,2.528,2.4565,2.3939,2.3389,2.2834,2.2641,2.2435,2.1917,2.1752,2.1899,2.2498,2.2658,2.2505,2.199,2.186,2.1799,2.1799,2.1231,2.0797,2.0722,2.0168,0.0,2.0227,2.0665,2.1212,2.1927,2.1772,2.1552,2.1393,2.1753,2.1917,2.1879,2.197,2.2355,2.2997,2.3107,2.3144,2.307,2.0344,2.0231,0.0,0.0,0.0,0.0,0.0,0.0,0.0,0.0,0.0,0.0,0.0,0.0,0.0,0.0,0.0,1.9428,2.0005,2.0544,2.1367,2.1367,2.1191,2.0996,2.1367,2.167,2.1748,2.1836,2.1885,2.1885,2.2197,2.2393,2.2393,2.2715,2.2891,2.2891,2.3054,2.3539,2.4514,2.4682,2.5348,2.6517,2.698,0.0,2.7464,2.8039,2.8375,2.8363,2.9136,2.9488,2.9544,3.0106,3.0097,2.9923,3.019,2.9886,2.919,2.8573,2.8288,2.8338,2.8498,2.7997,2.7409,2.8139,2.8347,2.8239,2.77,2.7608,0.0,2.7189,2.6467,2.5823,2.5809,2.5616,2.5258,2.4569,2.4309,2.4008,2.3403,2.2894,2.2572,2.2435,2.2056,2.1744,2.1852,2.2338,2.2834,2.3185,2.2835,2.2488,2.2488,2.1919,2.1306,2.0782,2.0602,2.0325,1.9863,2.0193,2.0682,2.1197,2.1989,2.229,2.1883,2.254,2.2747,2.2361,2.2996,2.3226,2.2997,2.3657,2.3969,2.3951,2.3364,2.308,0.0,0.0,0.0,0.0,0.0,0.0,0.0,0.0,0.0,0.0,0.0,1.7113,1.8027,0.0,1.9342,2.0522,2.1036,2.1377,2.1826,2.207,2.2041,2.1611,2.1934,2.2197,2.2197,2.2383,2.251,2.251,2.2705,2.2822,2.2822,2.3027,2.3135,2.3135,2.3135,2.3387,2.3963,2.3963,2.4542,2.563,2.5946,2.6323,2.6898,2.7765,2.8118,2.8105,2.8809,2.9134,2.9181,2.9767,2.9544,2.8963,2.9274,2.9251,2.8961,2.8595,2.8484,2.8505,2.8643,2.814,2.7561,2.8008,2.7917,2.7593,2.7256,2.7032,2.6806,2.6441,2.5911,2.5342,2.4951,2.4851,2.4657,2.394,2.376,2.3602,2.2968,2.2627,2.2299,2.1772,2.1416,2.1299,2.1657,2.1993,2.2438,2.3054,2.3154,2.3131,2.3131,2.2577,2.2054,2.1739,2.1395,2.0932,2.0258,2.0478,2.0846,2.1275,2.2169,2.2598,2.2356,2.29,2.3081,2.2843,2.3258,2.343,2.3355,2.3755,2.4237,2.4795,2.4795,2.4634,0.0,0.0,0.0,0.0,0.0,0.0,0.0,0.0,1.6498,1.807,1.8639,1.9021,1.9546,2.001,2.0557,2.1357,2.1777,2.2031,2.2119,2.2422,2.251,2.2168,2.2432,2.2637,2.2637,2.2939,2.3135,2.3135,2.3135,2.3135,2.3135,2.3135,2.3135,2.3135,2.3135,2.3135,2.3135,2.3135,2.3551,2.4457,2.4702,2.5294,2.6224,2.7279,2.7763,2.782,2.8227,2.8531,2.8786,2.8924,2.872,2.8283,2.8363,2.8584,2.8804,2.8573,2.8492,2.8556,2.8684,2.8307,2.7723,2.7912,2.7571,2.7121,2.6998,2.6658,2.6308,2.6075,2.5551,2.4986,2.4261,2.406,2.3884,2.3245,2.3078,2.2952,2.2573,2.2385,2.2046,2.1154,2.0869,2.0912,2.1586,2.1684,2.1946,2.274,2.329,2.3595,2.3595,2.3161,2.2817,2.2724,2.2203,2.162,2.0961,2.1019,2.1231,2.1642,2.2169,2.2512,2.2625,2.289,2.3133,2.3323,2.334,2.3602,2.4144,2.4144,2.4657,2.5642,2.5807,2.5788,1.2681,1.3578,1.4433,1.6049,1.6546,1.7367,0.0,0.0,1.9949,2.1156,2.1151,2.0918,2.0986,2.1367,2.1816,2.2295,2.2412,2.2578,2.2949,2.3037,2.3057,2.2998,2.3047,2.3066,2.3066,2.3105,2.3135,2.3135,2.3135,2.3135,2.3135,2.3135,2.3135,2.3135,2.3135,2.3135,2.3135,2.3135,2.3135,2.3299,2.4296,2.4872,2.5041,2.613,2.6637,2.6719,2.6744,2.729,2.8136,2.7753,2.802,2.8787,2.8296,2.8176,2.8071,2.7151,2.6782,2.6905,2.7604,2.7311,2.6815,2.7512,2.7657,2.7498,2.6892,2.677,2.6582,2.5501,2.4702,2.4012,2.3384,2.3245,2.3185,2.3138,2.3078,2.3053,2.299,2.2661,2.2272,2.2146,2.133,2.0894,2.1523,2.1645,2.2132,2.3319,2.3551,2.3595,2.3595,2.3535,2.3281,2.2783,2.2607,2.2308,2.165,2.1391,2.1459,2.1935,2.1804,2.1895,2.2321,2.236,2.286,2.3796,2.3813,2.4452,2.5739,2.5739,2.5996,2.6484,2.72,2.7145,1.6048,1.6607,0.0,0.0,1.9051,1.9423,2.0863,2.0797,2.0791,2.201,2.2083,2.2051,2.2295,2.249,2.2676,0.0,2.2881,2.2939,2.3115,2.3135,2.3047,2.2803,2.2988,2.3135,2.3135,2.3135,2.3135,2.3135,2.3135,2.3135,2.3135,2.3135,2.3135,2.3135,2.3135,2.3135,2.3135,2.3135,2.3135,2.3144,2.3551,2.38,2.3887,2.4967,2.5891,2.6483,2.6483,2.6719,2.7186,2.6898,2.7139,2.7411,2.6882,2.7067,2.7578,2.7117,2.6942,2.6961,2.702,2.6782,2.6589,2.6905,2.6973,2.6921,2.6678,2.637,2.5948,2.5166,2.4481,2.3866,2.3288,2.3078,2.3078,2.3078,2.3078,2.3078,2.3078,2.289,2.2698,2.2372,2.1945,2.1729,2.2021,2.2163,2.2538,2.3426,2.357,2.3595,2.3595,2.3595,2.349,2.3236,2.2892,2.2604,2.2293,2.2034,2.2087,2.2601,2.2769,2.3038,2.3579,2.3579,2.3803,2.424,2.424,2.462,2.5412,2.5603,2.6152,2.6968,2.7515,2.786,1.7873,0.0,0.0,2.0154,2.0807,2.0957,2.1074,2.1191,2.1543,2.249,2.2685,2.2783,2.3086,2.3135,2.3135,2.3135,2.3135,2.3135,2.3135,2.3135,2.3027,2.2725,2.2949,2.3135,2.3135,2.3135,2.3135,2.3135,2.3135,2.3135,2.3135,2.3135,2.3135,2.3135,2.3135,2.3135,2.3135,2.3135,2.3135,2.3135,2.3135,2.3135,2.3135,2.3963,2.4798,2.5557,2.5557,2.5724,2.6058,2.6058,2.6224,2.6438,2.5987,2.6325,2.7105,2.7224,2.7304,2.7218,2.6829,2.6647,2.6533,2.6533,2.6533,2.6533,2.6533,2.6163,2.5724,2.5184,2.4644,2.4092,2.3527,2.319,2.3078,2.3078,2.3078,2.3078,2.3078,2.3078,2.2965,2.2623,2.2422,2.2299,2.236,2.2642,2.2956,2.3215,2.3624,2.3819,2.3625,2.3595,2.3595,2.3595,2.3191,2.2936,2.2936,2.2631,2.2669,2.3319,2.3479,2.3836,2.4475,2.4506,2.4608,2.478,2.478,2.5098,2.5628,2.5991,2.6631,2.7536,2.7944,2.8448,0.0,0.0,1.8926,2.0281,2.1271,2.1953,2.2353,2.2764,2.3076,2.3105,2.3125,2.3125,2.3135,2.3135,2.3135,2.3135,2.3135,2.3135,2.3135,2.3135,2.3135,2.3125,2.3135,2.3135,2.3135,2.3135,2.3135,2.3135,2.3135,2.3135,2.3135,2.3135,2.3135,2.3135,2.3135,2.3135,2.3135,2.3135,2.3135,2.3135,2.3135,2.3135,2.3135,2.3135,2.3135,2.3222,2.3222,2.38,2.4872,2.4872,2.5462,2.6483,2.6461,2.6449,2.6558,2.7073,2.7334,2.7281,2.7268,2.6904,2.6533,2.6533,2.6533,2.6533,2.6533,2.6521,2.6382,2.5737,2.5197,2.4669,2.4117,2.3552,2.3078,2.3078,2.3078,2.3078,2.3078,2.3078,2.3125,2.3053,2.2673,2.2309,2.2284,2.3016,2.3368,2.2746,2.3725,2.4358,2.3684,2.3595,2.3595,2.3595,2.358,2.3565,2.3565,2.3038,2.3096,2.4015,2.3487,2.3518,2.4444,2.4506,2.4831,2.5558,2.5575,2.6138,2.7217,2.7637,2.8021,2.8384,2.8779,2.8975,0.0,0.0,2.0605,2.1611,2.2285,2.2754,2.2891,2.3037,2.3135,2.3135,2.292,2.2725,2.2725,2.249,2.2402,2.2676,2.2725,2.2822,2.3096,2.3135,2.3037,2.2754,2.2969,2.3027,2.2754,2.2969,2.3135,2.3135,2.3135,2.3135,2.3135,2.3135,2.3135,2.3135,2.3135,2.3135,2.3135,2.3135,2.3135,2.3135,2.3135,2.3135,2.3135,2.3135,2.3135,2.3135,2.3135,2.3299,2.3637,2.3637,2.3887,2.4221,2.4221,2.4723,2.5357,2.56,2.5858,2.63,2.7075,2.7155,2.6942,2.6647,2.6533,2.6533,2.6533,2.6533,2.6339,2.5762,2.5473,2.5134,2.423,2.3853,2.3615,2.3226,2.3078,2.3078,2.3078,2.3078,2.3078,2.3078,2.2927,2.2862,2.2862,2.353,2.4221,2.4559,2.4221,2.3864,2.3625,2.3595,2.3595,2.3595,2.3595,2.3595,2.3595,2.34,2.3603,2.4248,2.4417,2.4774,2.5461,2.5798,2.6065,2.6319,2.6336,2.6504,2.6906,2.7303,2.7707,2.8075,2.8438,2.9022,2.0234,2.1016,2.1475,2.248,2.2939,2.296,2.258,2.2775,2.2872,2.2111,2.1996,2.2012,2.1846,2.1465,2.1426,2.2168,2.2295,2.249,2.3057,2.3135,2.3037,2.2773,2.2969,2.3027,0.0,0.0,0.0,2.3135,2.3135,2.3135,2.3135,2.3135,2.3135,2.3135,2.3135,2.3135,2.3135,2.3135,2.3135,2.3135,2.3135,2.3135,2.3135,2.3135,2.3135,2.3135,2.3135,2.3135,2.3135,2.3135,2.3135,2.3135,2.3135,2.3551,2.4211,2.4628,2.5018,2.5532,2.6848,2.6992,2.6695,2.6797,2.6697,2.6533,2.6533,2.6533,2.6445,2.6013,2.5749,2.5435,2.4745,2.4431,2.4155,2.3577,2.3439,2.3389,2.3175,2.3078,2.3078,2.3078,2.3078,2.3078,2.3078,2.3821,2.4689,2.5443,2.4863,2.4238,2.3999,2.3744,2.3595,2.3595,2.3595,2.3595,2.3595,2.3595,2.3921,2.4632,2.5012,2.5524,2.6227,2.6556,2.6691,2.6691,2.6691,2.6691,2.6691,2.7115,2.7517,2.7897,2.8551,2.9305,2.0839,2.1218,2.1539,2.2746,2.3047,2.2668,2.1542,2.2171,2.2371,2.0371,2.0555,2.0957,2.0488,0.0,2.0273,2.1572,2.1846,2.2178,2.3018,2.3135,2.3135,0.0,0.0,0.0,0.0,0.0,0.0,2.3135,2.3135,2.3135,2.3135,2.3135,2.3135,2.3135,2.3135,2.3135,2.3135,2.3135,2.3135,2.3135,2.3135,2.3135,2.3135,2.3135,2.3135,2.3135,2.3135,2.3135,2.3135,2.3135,2.3135,2.3135,2.3135,2.3135,2.3222,2.4286,2.4702,2.4978,2.6633,2.6529,2.5837,2.6924,2.6929,2.6559,2.6533,2.6533,2.6533,2.6533,2.6063,2.5636,2.5598,2.5234,2.472,2.4142,2.4004,2.3841,2.3263,2.3078,2.3078,2.3078,2.3078,2.3138,2.3185,2.3904,2.4713,2.5509,2.56,2.542,2.4716,2.4088,2.3655,2.3655,2.3625,2.3595,2.3595,2.3595,2.4032,2.5105,2.5182,2.5635,2.6624,2.6691,2.6691,2.6691,2.6691,2.6691,2.6691,2.7083,2.7487,2.7996,2.9071,2.9831,2.0154,2.1466,2.2466,2.1868,2.1756,2.1585,2.102,2.0807,2.0624,2.0077,1.958,1.9072,1.833,0.0,0.0,2.0254,2.124,0.0,2.3018,2.3135,0.0,2.3135,0.0,2.3135,2.3135,2.3135,0.0,2.3135,2.3135,2.3135,2.3135,2.3135,2.3135,2.3135,2.3135,2.3135,2.3135,2.3135,2.3135,2.3135,2.3135,2.3135,2.3135,2.3135,2.3135,2.3135,2.3135,2.3135,2.3135,2.3135,2.3135,2.3135,2.3135,2.3135,2.3144,2.3474,2.3551,2.3704,2.4977,2.6086,2.6952,2.7244,2.718,2.6992,2.6647,2.6533,2.6533,2.6533,2.642,2.6138,2.5711,2.5498,2.5159,2.4217,2.4004,2.3841,2.3263,2.3078,2.3078,2.3078,2.3078,2.3471,2.461,2.4983,2.5584,2.6886,2.6653,2.6093,2.545,2.4777,2.4373,2.4373,2.3909,2.3595,2.3595,2.3595,2.3879,2.4552,2.4973,2.5486,2.6156,2.6505,2.6691,2.6691,2.6691,2.6691,2.6691,2.6808,2.7518,2.8805,2.9087,3.0215,1.9618,2.0607,2.14,2.0666,2.0477,2.0162,1.8853,1.9002,1.9039,1.7551,1.7404,0.0,1.6641,1.7217,0.0,0.0,0.0,0.0,2.2744,2.3027,2.3135,0.0,2.331,0.0,2.3428,2.3038,2.3052,2.3611,2.335,2.3135,2.3135,2.3135,2.3135,2.3135,2.3135,2.3135,2.3135,2.3135,2.3135,2.3135,2.3135,2.3135,2.3135,2.3135,2.3135,2.3135,2.3135,2.3135,2.3135,2.3135,2.3135,2.3135,2.3135,2.3135,2.3135,2.3135,2.3135,2.3299,2.4372,2.5445,2.6268,2.6767,2.711,2.718,2.6697,2.6533,2.6533,2.6533,2.6533,2.6445,2.6063,2.5975,2.5762,2.4908,2.4519,2.4205,2.364,2.3314,2.3078,2.3078,2.3078,2.3365,2.4266,2.4667,2.5287,2.6481,2.6572,2.6524,2.6464,2.5644,2.4956,2.4612,2.4283,2.3924,2.3625,2.3595,2.3921,2.4697,2.5012,2.5524,2.6297,2.6556,2.6691,2.6691,2.6691,2.6691,2.6691,2.7029,2.7853,2.9107,2.9781,3.0995,1.9052,1.9405,1.9497,1.9314,1.9273,1.8596,1.6346,1.7097,1.7421,1.4522,0.0,1.5654,1.5166,1.5889,1.6928,1.827,0.0,2.1403,2.2196,2.2814,2.3047,2.2862,2.3427,2.3699,2.3509,2.2852,2.2896,2.4034,2.3403,2.3047,2.3223,2.3223,2.3193,2.3135,2.295,2.2862,2.2862,2.2862,2.2862,2.2862,2.2862,2.296,2.3135,2.3135,2.3135,2.3135,2.3135,2.3135,2.3135,2.3135,2.3135,2.3135,2.3135,2.3135,2.3135,2.3135,2.3135,2.3222,2.4211,2.4702,2.4966,2.6124,2.6796,2.7126,2.664,2.6533,2.6533,2.6533,2.6533,2.6533,2.6533,2.6533,2.6382,2.5737,2.5197,2.4669,2.4117,2.354,2.3078,2.3078,2.3078,2.3138,2.3245,2.3943,2.4681,2.5453,2.6176,2.6878,2.7524,2.6497,2.5525,2.4956,2.4761,2.4433,2.3789,2.3729,2.4139,2.5144,2.5221,2.5635,2.6657,2.6793,2.6843,2.6843,2.6945,2.6996,2.6996,2.7655,2.8457,2.9444,3.0792,3.1882,1.7925,1.8772,1.9222,1.8234,1.7827,1.7166,1.5763,1.5646,0.0,0.0,0.0,1.4228,1.3457,1.459,0.0,1.7842,0.0,0.0,0.0,0.0,2.2765,0.0,0.0,0.0,0.0,0.0,0.0,2.2708,2.2271,2.2472,2.3582,2.3682,2.3516,2.3154,2.212,2.1569,2.1569,2.1569,2.1569,2.1569,2.1569,2.212,2.3135,2.3135,2.3135,2.3135,2.3135,2.3135,2.3135,2.3135,2.3135,2.3135,2.3135,2.3135,2.3135,2.3135,2.3135,2.3135,2.3299,2.4049,2.4966,2.6124,2.659,2.6649,2.6544,2.6533,2.6533,2.6533,2.6533,2.6533,2.6533,2.6533,2.6382,2.5737,2.5197,2.4669,2.4117,2.354,2.3078,2.3078,2.3078,2.3305,2.4002,2.4724,2.5453,2.6176,2.693,2.7473,2.7575,2.6901,2.6378,2.6258,2.5764,2.5181,2.4462,2.4448,2.4658,2.5176,2.5221,2.5635,2.6657,2.73,2.7621,2.7621,2.8264,2.8621,2.8621,2.8721,2.9558,3.1022,3.1288,3.22,1.6713,1.7124,1.7483,1.685,1.6395,1.5718,1.4523,0.0,0.0,0.0,0.0,1.3359,1.2959,0.0,0.0,0.0,0.0,0.0,0.0,0.0,0.0,0.0,0.0,0.0,0.0,2.2476,2.262,2.4019,2.1795,2.1113,2.2793,2.264,2.2424,2.2129,2.1569,2.1293,2.1293,2.0666,2.0666,2.1293,2.1293,2.1933,2.3135,2.3135,2.3135,2.3135,2.3135,2.3135,2.3135,2.3135,2.3135,2.3135,2.3135,2.3135,2.3135,2.3135,2.3135,2.3135,2.3135,2.3474,2.3982,2.4592,2.5624,2.6384,2.5851,2.6094,2.6533,2.6533,2.6533,2.6533,2.6533,2.6533,2.6458,2.6113,2.5423,2.4594,2.374,2.3265,2.3078,2.3078,2.3424,2.3708,2.3649,2.461,2.5508,2.5837,2.6549,2.7152,2.756,2.7305,2.6976,2.6632,2.6303,2.5854,2.5196,2.5136,2.5452,2.6262,2.627,2.6759,2.784,2.823,2.8416,2.8416,2.8789,2.9011,2.9011,2.9381,3.0213,3.1412,3.1788,3.2637,1.5752,1.5832,1.5832,1.5832,1.5344,1.4588,1.3518,1.3323,0.0,0.0,1.2403,1.2881,1.2881,0.0,0.0,0.0,0.0,0.0,0.0,0.0,0.0,0.0,0.0,0.0,0.0,2.2414,0.0,2.4184,2.1048,1.9779,2.149,2.0884,2.0666,2.0935,2.0935,2.0935,2.0935,2.0215,2.0395,2.1293,2.1293,2.1933,2.3135,2.3135,2.3135,2.3135,2.3135,2.3135,2.3135,2.3135,2.3135,2.3135,2.3135,2.3135,2.3135,2.3135,2.3135,2.3135,2.3135,2.3076,2.3044,2.3197,2.4591,2.5983,2.5253,2.5734,2.6533,2.6533,2.6533,2.6533,2.6533,2.6533,2.6496,2.637,2.5536,2.4544,2.354,2.3165,2.3078,2.3078,2.3767,2.4118,2.3484,2.461,2.5618,2.5618,2.6283,2.693,2.7524,2.7625,2.743,2.6856,2.6797,2.6527,2.5869,2.5809,2.623,2.7227,2.7294,2.7802,2.8938,2.9144,2.9228,2.9228,2.9381,2.9448,2.9448,3.0057,3.0743,3.15,3.2183,3.2934,1.5752,1.5832,1.5832,1.5832,1.519,1.4331,1.3468,0.0,0.0,1.1956,1.2363,1.2881,1.2881,1.3281,0.0,0.0,0.0,0.0,0.0,0.0,0.0,0.0,0.0,0.0,0.0,2.1321,2.1216,1.9907,1.8897,1.8979,2.022,1.887,1.8503,1.967,1.9679,1.9679,1.9679,2.0666,2.1203,2.1293,2.1293,2.1933,2.3135,2.3135,2.3135,2.3135,2.3135,2.3135,2.3135,2.3135,2.3135,2.3135,2.3135,2.3135,2.3135,2.3135,2.3135,2.3135,2.3135,2.2891,2.265,2.3175,2.4029,2.4957,2.5025,2.5734,2.6533,2.6533,2.6533,2.6533,2.6533,2.6533,2.6327,2.5799,2.5234,2.4657,2.4054,2.3502,2.3078,2.3078,2.3767,2.4292,2.4176,2.5398,2.6404,2.6404,2.7034,2.7509,2.7575,2.7625,2.7595,2.7535,2.7535,2.7215,2.6557,2.6497,2.6718,2.7243,2.7294,2.7802,2.8938,2.9634,3.0006,3.0006,3.0649,3.0987,3.0987,3.1055,3.1346,3.1793,3.2281,3.2777,1.52,1.5113,1.481,1.5417,1.491,1.411,1.3755,0.0,1.271,1.2485,1.2725,1.2881,1.2881,1.3018,1.3437,0.0,1.4824,1.5273,0.0,0.0,0.0,0.0,0.0,0.0,0.0,0.0,2.0067,1.7612,1.8682,1.9193,1.8715,1.8031,1.7963,1.8411,1.8411,1.8411,1.8411,1.8864,1.9497,2.0215,2.0935,2.1933,2.3135,2.3135,2.3135,2.3135,2.3135,2.3135,2.3135,2.3135,2.3135,2.3135,2.3135,2.3135,2.3135,2.3135,2.3135,2.3135,2.3135,2.2861,2.2601,2.3165,2.3845,2.4498,2.4858,2.5734,2.6533,2.6533,2.6533,2.6533,2.6533,2.6533,2.6382,2.5737,2.5435,2.5059,2.418,2.3816,2.3674,2.3785,2.4452,2.4951,2.4951,2.6215,2.6982,2.6563,2.7152,2.7625,2.7625,2.7625,2.7625,2.7625,2.7625,2.7505,2.72,2.7186,2.7428,2.7981,2.8338,2.8919,2.9752,3.0426,3.0768,3.0768,3.1055,3.119,3.119,3.119,3.1411,3.1825,3.2282,3.2745,1.4497,1.4558,1.4272,1.5107,1.471,1.4111,0.0,0.0,1.2821,1.2893,1.2881,1.2881,1.2881,1.2881,1.3018,0.0,1.3449,1.3717,1.4657,0.0,0.0,0.0,0.0,2.0923,0.0,1.9718,1.8982,1.6953,1.8714,1.9297,1.7792,1.7692,1.7692,1.7692,1.7692,1.787,1.8234,1.8596,1.9405,2.0584,2.14,2.2306,2.3135,2.3135,2.3135,2.3135,2.3135,2.3135,2.3135,2.3135,2.3135,2.3135,2.3135,2.3135,2.3135,2.3135,2.3135,2.3135,2.3135,2.2783,2.2518,2.3437,2.363,2.3824,2.504,2.5955,2.6533,2.6533,2.6533,2.6533,2.6533,2.6533,2.642,2.595,2.5724,2.5347,2.4443,2.4292,2.4295,2.4294,2.5063,2.5728,2.5728,2.6759,2.7408,2.6878,2.7255,2.7625,2.7625,2.7625,2.7625,2.7625,2.7625,2.7625,2.7625,2.7625,2.786,2.8463,2.8919,2.9496,3.0251,3.0699,3.1015,3.119,3.119,3.119,3.119,3.119,3.1351,3.1623,3.2074,3.2616,1.3854,1.4315,1.4603,1.4897,1.4734,1.4325,0.0,1.3639,1.3302,1.2995,1.2881,1.2881,1.2881,1.2881,1.3018,1.3437,1.3259,1.3362,1.4017,0.0,0.0,0.0,0.0,1.8382,1.7319,1.7781,1.8074,1.8074,1.897,1.8956,1.7777,1.7692,1.7692,1.7692,1.7692,1.8226,1.9497,2.0666,2.1845,2.3047,2.3047,2.3057,2.3135,2.3135,2.3135,2.3135,2.3135,2.3135,2.3135,2.3135,2.3135,2.3135,2.3135,2.3135,2.3135,2.3135,2.3135,2.3135,2.3135,2.2598,2.2205,2.4129,2.3547,2.2553,2.5569,2.6465,2.6533,2.6533,2.6533,2.6533,2.6533,2.6533,2.6533,2.6521,2.6013,2.5448,2.4921,2.497,2.4919,2.4398,2.5453,2.651,2.651,2.71,2.7625,2.7575,2.7575,2.7625,2.7625,2.7625,2.7625,2.7625,2.7625,2.7625,2.7625,2.7625,2.786,2.8463,2.8511,2.9058,3.0251,3.0293,3.0601,3.119,3.119,3.119,3.119,3.119,3.119,3.123,3.164,3.2298,1.2155,1.2164,1.1872,1.2718,1.2991,1.3048,1.2743,1.2823,1.2914,1.2878,1.2881,1.2725,1.2264,1.2569,1.2833,1.2572,0.0,0.0,0.0,0.0,0.0,0.0,0.0,1.7188,0.0,1.8645,1.891,1.7856,1.8835,1.9314,1.8948,1.7304,1.6386,1.6386,1.6386,1.6567,1.6929,1.9031,2.0215,2.0674,2.2315,2.3135,2.3135,2.3135,2.3135,2.3135,2.3135,2.3135,2.3135,2.3135,2.3135,2.3135,2.3135,2.3135,2.3135,2.3135,2.3135,2.3135,2.3135,2.2588,2.2113,2.3343,2.2928,2.2403,2.4779,2.5441,2.5594,2.6314,2.6533,2.6533,2.6533,2.6533,2.6533,2.6533,2.6314,2.6114,2.5652,2.5602,2.5655,2.5758,2.6176,2.6669,2.7137,2.7458,2.7625,2.7625,2.7625,2.7625,2.7625,2.7625,2.7625,2.7625,2.7625,2.7625,2.7625,2.7625,2.766,2.786,2.8271,2.8685,2.9042,2.9848,3.0393,3.0559,3.1015,3.119,3.119,3.119,3.1351,3.164,3.2074,3.2616,0.0,1.0943,1.0789,1.1506,1.1995,1.2183,1.2139,1.2341,1.2582,1.2485,1.2501,1.2246,1.1543,1.1801,1.1983,1.1658,1.1896,0.0,0.0,0.0,0.0,0.0,0.0,0.0,0.0,1.8155,1.873,1.7792,1.8864,1.9314,1.8864,1.7397,1.6292,1.5825,1.5832,1.6015,1.648,1.8488,1.9761,2.0215,2.2138,2.3135,2.3135,2.3135,2.3135,2.3135,2.3135,2.3135,0.0,2.3135,2.3135,2.3135,2.3135,2.3135,2.3135,2.3135,2.3135,2.3135,2.3135,2.2824,2.2574,2.3562,2.3777,2.3879,2.4707,2.5229,2.5734,2.6314,2.6533,2.6533,2.6533,2.6533,2.6533,2.6533,2.6533,2.646,2.6332,2.6312,2.6402,2.6826,2.6881,2.7034,2.7524,2.7625,2.7625,2.7625,2.7625,2.7625,2.7625,2.7625,2.7625,2.7625,2.7625,2.7625,2.7625,2.7625,2.7625,2.7625,2.7944,2.8286,2.8511,2.9451,3.0081,3.0309,3.0878,3.119,3.119,3.119,3.1312,3.1565,3.2039,3.2484,0.0,1.0341,1.0842,1.1109,1.139,1.1654,1.1853,1.2175,0.0,1.19,1.1778,1.1548,1.0981,1.0854,1.0812,1.0813,0.0,0.0,0.0,0.0,0.0,0.0,1.4856,0.0,1.5398,1.6779,1.7692,1.7692,1.8772,1.8864,1.7777,1.7598,1.7037,1.5825,1.5832,1.6386,1.7598,1.8864,2.0034,2.1203,2.2492,2.3135,2.3135,2.3135,2.3135,2.3135,2.3135,2.3135,2.3135,2.3135,2.3135,2.3135,2.3135,2.3135,2.3135,2.3135,2.3135,2.3135,2.3135,2.3217,2.3471,2.4425,2.5471,2.6245,2.53,2.5734,2.6533,2.6533,2.6533,2.6533,2.6533,2.6533,2.6533,2.6533,2.6533,2.6561,2.6804,2.6902,2.7086,2.734,2.7518,2.7569,2.7524,2.7575,2.7625,2.7625,2.7625,2.7625,2.7625,2.7625,2.7625,2.7625,2.7625,2.7625,2.7625,2.7625,2.7625,2.7625,2.7625,2.786,2.8415,2.9012,2.9629,3.0208,3.0878,3.119,3.119,3.119,3.119,3.119,3.1654,3.2109,0.7996,0.0,0.8664,0.8685,0.9146,0.97,0.0,1.0768,0.0,0.0,0.0,1.1349,1.149,1.1132,1.0885,0.0,0.0,0.0,0.0,0.0,0.0,0.0,1.5585,1.5651,1.5718,1.6901,1.7692,1.7692,1.7963,1.7956,1.7692,1.6763,1.6109,1.5832,1.5832,1.592,1.6197,1.8395,1.967,1.9943,2.2041,2.3135,2.3135,2.3135,2.3135,2.3135,2.3135,2.3135,2.3135,2.3135,2.3135,2.3135,2.3135,2.3135,2.3135,2.3135,2.3135,2.3135,2.3135,2.3217,2.3366,2.372,2.4522,2.53,2.5087,2.5734,2.6533,2.6533,2.6533,2.6533,2.6533,2.6533,2.6533,2.6533,2.6533,2.6561,2.6713,2.6784,2.6698,2.656,2.6958,2.7258,2.6861,2.7255,2.7625,2.7625,2.7625,2.7625,2.7625,2.7625,2.7625,2.7625,2.7625,2.7625,2.7625,2.7625,2.7625,2.7625,2.7625,2.766,2.781,2.8415,2.9012,2.9585,3.0658,3.119,3.119,3.119,3.119,3.1207,3.2259,3.2763,0.7261,0.7782,0.838,0.8764,0.8962,0.9364,1.0687,0.0,0.0,0.0,0.0,0.0,1.1292,0.0,0.0,0.0,0.0,0.0,0.0,0.0,0.0,1.5758,1.5832,1.5832,1.5832,1.6386,1.6857,1.6857,1.6857,1.6857,1.6857,1.6197,1.5832,1.5832,1.6386,1.6662,1.6662,1.8041,1.9222,2.0305,2.1667,2.258,2.3135,2.3135,2.3135,2.3135,2.3135,2.3135,2.3135,2.3135,2.3135,2.3135,2.3135,2.3135,2.3135,2.3135,2.3135,2.3135,2.3135,2.3459,2.4113,2.4649,2.5205,2.5664,2.5664,2.6094,2.6533,2.6533,2.6533,2.6533,2.6533,2.6533,2.6533,2.6533,2.6533,2.6625,2.7066,2.6908,2.6767,2.701,2.7109,2.7004,2.6468,2.6967,2.7357,2.713,2.7357,2.7625,2.7625,2.7625,2.7625,2.7625,2.7625,2.7625,2.7625,2.7625,2.7625,2.7625,2.7625,2.7625,2.7625,2.8189,2.8919,2.9805,3.074,3.119,3.119,3.119,3.136,3.1698,3.2388,3.2982,0.737,0.8194,0.9072,0.9525,0.9411,0.9782,0.0,0.0,0.0,0.0,0.0,0.0,0.0,0.0,0.0,0.0,0.0,0.0,0.0,0.0,0.0,1.5792,1.5832,1.5832,1.5832,1.5832,1.5832,1.5832,1.5832,1.5832,1.5832,1.5832,1.592,1.6109,1.7131,1.787,1.8234,1.8234,1.9314,2.1293,2.148,2.212,2.3135,2.3135,2.3135,2.3135,2.3135,2.3135,2.3135,2.3135,2.3135,2.3135,2.3135,2.3135,2.3135,2.3135,2.3135,2.3115,2.3152,2.3701,2.4647,2.5898,2.6245,2.6314,2.6452,2.6533,2.6533,2.6533,2.6533,2.6533,2.6533,2.6533,2.6533,2.6533,2.6533,2.6714,2.7351,2.7079,2.688,2.7485,2.7298,2.6813,2.6239,2.6793,2.7176,2.6712,2.7196,2.7625,2.7625,2.7625,2.7625,2.7625,2.7625,2.7625,2.7625,2.7625,2.7625,2.7625,2.7625,2.7625,2.7625,2.8271,2.9134,3.0123,3.0838,3.119,3.119,3.119,3.1562,3.2313,3.2432,3.3076,0.8969,0.961,0.9511,0.8224,0.8695,0.965,0.0,0.0,0.0,0.0,0.0,0.0,0.0,0.0,0.0,0.0,0.0,1.4196,0.0,0.0,1.5504,1.5792,1.5832,1.5832,1.5832,1.5832,1.5832,1.5832,1.5832,1.5832,1.5832,1.5832,1.6292,1.7412,1.7598,1.868,2.0755,2.0755,2.0935,2.1293,2.2306,2.295,2.3135,2.3135,2.3135,2.3135,2.3135,2.3135,2.3135,2.3135,2.3135,2.3135,2.3135,2.3135,2.3135,2.3135,2.3135,2.3114,2.3257,2.3196,2.3283,2.4751,2.5229,2.537,2.6245,2.6533,2.6533,2.6533,2.6533,2.6533,2.6533,2.6533,2.6533,2.6533,2.6533,2.6521,2.6658,2.6582,2.6435,2.6072,2.6388,2.6572,2.6065,2.6701,2.725,2.7164,2.7424,2.7625,2.7625,2.7625,2.7625,2.7625,2.7625,2.7625,2.7625,2.7625,2.7625,2.7625,2.7625,2.7625,2.7625,2.867,2.9361,2.954,3.0617,3.119,3.119,3.119,3.1562,3.2347,3.2933,3.3668,0.8218,0.931,0.9931,0.926,0.9915,1.1154,0.0,0.0,0.0,0.0,0.0,0.0,0.0,0.0,0.0,0.0,0.0,1.6668,1.6399,1.6522,1.6413,1.5906,1.5832,1.5832,1.5832,1.5832,1.5832,1.5832,1.5832,1.5832,1.5832,1.5832,1.6109,1.6669,1.7948,1.9222,2.0305,2.1578,2.2306,2.2306,2.2208,2.2492,2.3135,2.3135,2.3135,2.3135,2.3135,2.3135,2.3135,2.3135,2.3135,2.3135,2.3135,2.3135,2.3135,2.3135,2.2998,2.2791,2.3166,2.3424,2.3656,2.4655,2.537,2.5873,2.6383,2.6533,2.6533,2.6533,2.6533,2.6533,2.6533,2.6533,2.6533,2.6533,2.6533,2.6533,2.6533,2.6533,2.6445,2.6113,2.6375,2.6294,2.5422,2.6337,2.6918,2.6343,2.7039,2.7625,2.7625,2.7625,2.7625,2.7625,2.7625,2.7625,2.7625,2.7625,2.7625,2.7625,2.7625,2.7625,2.7625,2.8764,2.9406,2.9406,3.0576,3.119,3.119,3.1596,3.2154,3.2899,3.3643,3.4387,0.7905,0.9104,1.024,0.0,0.0,0.0,0.0,0.0,0.0,0.0,0.0,0.0,0.0,0.0,0.0,0.0,1.8784,1.8555,1.7817,1.742,1.7131,1.6749,1.6103,1.592,1.6197,1.6015,1.5832,1.5832,1.5832,1.5832,1.5832,1.5832,1.592,1.6204,1.8395,1.967,1.9943,2.2041,2.3135,2.3047,2.2129,2.2217,2.3135,2.3135,2.3135,2.3135,2.3135,2.3135,2.3135,2.3135,2.3135,2.3135,2.3135,2.3135,2.3125,2.3027,2.2725,2.2379,2.2707,2.3186,2.3793,2.4464,2.53,2.6164,2.6452,2.6533,2.6533,2.6533,2.6533,2.6533,2.6533,2.6533,2.6533,2.6533,2.6533,2.6533,2.6533,2.6533,2.6533,2.6533,2.6533,2.6219,2.542,2.6246,2.6748,2.5981,2.6846,2.7625,2.7625,2.7625,2.7625,2.7625,2.7625,2.7634,2.7799,2.7814,2.7814,2.7814,2.7715,2.7625,2.7625,2.8764,2.9406,2.9406,3.0767,3.1444,3.1444,3.2188,3.2933,3.3677,3.4235,3.4895,0.98,1.0133,1.0314,1.2688,0.0,0.0,0.0,0.0,0.0,0.0,0.0,0.0,0.0,0.0,0.0,0.0,1.8092,1.8195,1.9182,1.7375,1.6749,1.894,1.721,1.6292,1.7412,1.648,1.5832,1.5832,1.5832,1.5832,1.5832,1.5832,1.6386,1.7505,1.8856,2.0034,2.1203,2.2492,2.3135,2.3135,2.3047,2.3047,2.3135,2.3135,2.3135,2.3135,2.3135,2.3135,2.3135,2.3135,2.3135,2.3135,2.3135,2.3135,2.3096,2.2705,2.2295,2.1875,2.1507,2.1734,2.2295,2.3305,2.4264,2.53,2.6245,2.6533,2.6533,2.6533,2.6533,2.6533,2.6533,2.6533,2.6533,2.6533,2.6533,2.6533,2.6533,2.6533,2.6533,2.6533,2.6533,2.6523,2.657,2.6808,2.7048,2.7142,2.7401,2.7625,2.7625,2.7625,2.7625,2.7625,2.7625,2.7829,2.8472,2.8532,2.8532,2.8532,2.7919,2.7625,2.7625,2.8764,2.9406,2.9406,3.1266,3.2205,3.2205,3.2949,3.3694,3.4421,3.4472,3.4895,0.8847,0.9902,1.0931,1.2706,0.0,0.0,0.0,0.0,0.0,0.0,0.0,0.0,0.0,0.0,0.0,2.0495,2.0815,2.0953,2.0666,1.9844,1.9298,1.9497,1.8041,1.7131,1.7692,1.6574,1.5832,1.5832,1.5832,1.5832,1.5832,1.5832,1.6015,1.648,1.8495,1.9761,2.0215,2.2129,2.3135,2.3135,2.3135,2.3135,2.3135,2.3135,2.3135,2.3135,2.3135,2.3135,2.3135,2.3135,2.3135,2.3135,2.3135,2.2978,2.2734,2.2568,2.207,2.1455,2.1289,2.1994,2.2999,2.3368,2.4624,2.6013,2.6383,2.6533,2.6533,2.6533,2.6533,2.6533,2.6533,2.6533,2.6533,2.6533,2.6533,2.6533,2.6533,2.6533,2.6658,2.7162,2.7229,2.7183,2.7031,2.745,2.7556,2.6877,2.7233,2.7625,2.7625,2.7625,2.7625,2.7625,2.7625,2.7844,2.8547,2.8607,2.8771,2.919,2.8966,2.8637,2.8233,2.9373,3.0254,3.0686,3.1765,3.251,3.2983,3.3711,3.4218,3.4506,3.4979,3.5351,0.853,0.9771,1.1249,0.0,0.0,0.0,0.0,0.0,0.0,0.0,0.0,0.0,0.0,0.0,0.0,0.0,2.2313,2.2403,2.1933,2.1212,2.0666,2.0674,1.9231,1.8234,1.8234,1.7124,1.6386,1.6386,1.6386,1.6386,1.6386,1.6749,1.6749,1.6386,1.8756,2.0034,2.0034,2.2041,2.3135,2.3135,2.3135,2.3135,2.3135,2.3135,2.3135,2.3135,2.3135,2.3135,2.3135,2.3135,2.3135,2.3125,2.2988,2.2764,2.248,2.2522,2.2199,2.166,2.152,2.2539,2.3891,2.3588,2.4838,2.6533,2.6533,2.6533,2.6533,2.6533,2.6533,2.6533,2.6533,2.6533,2.6533,2.6533,2.6533,2.6533,2.6533,2.6714,2.704,2.7604,2.792,2.7985,2.7579,2.7968,2.795,2.7015,2.7306,2.7625,2.7625,2.7625,2.77,2.7874,2.7904,2.8248,2.9131,2.9205,2.94,2.9849,3.0073,2.9913,2.9273,3.0223,3.1085,3.1803,3.26,3.3237,3.3744,3.4489,3.4844,3.4861,3.5368,3.5622,0.9301,1.0056,0.0,0.0,0.0,0.0,0.0,0.0,0.0,0.0,0.0,0.0,0.0,0.0,0.0,2.2262,2.1858,2.1756,2.295,2.1042,2.0404,2.2862,2.0953,1.9497,1.9497,1.8411,1.7692,1.7692,1.7692,1.7692,1.7692,1.8864,1.8948,1.7777,2.0034,2.1293,2.1293,2.2492,2.3135,2.3135,2.3135,2.3135,2.3135,2.3135,2.3135,2.3135,2.3135,2.3135,2.3135,2.3135,2.3135,2.3096,2.2676,2.25,2.2562,2.269,2.273,2.2657,2.2195,2.3294,2.4862,2.3818,2.4838,2.6533,2.6533,2.6533,2.6533,2.6533,2.6533,2.6533,2.6533,2.6533,2.6533,2.6533,2.6533,2.6533,2.6533,2.7095,2.767,2.7736,2.8427,2.8864,2.8368,2.834,2.8132,2.7682,2.7625,2.7625,2.764,2.764,2.7844,2.8532,2.8607,2.9116,3.0387,3.0507,3.0507,3.0507,3.115,3.1248,3.0639,3.1195,3.1835,3.2512,3.3822,3.4489,3.4506,3.525,3.5622,3.5622,3.5622,3.5622,0.9524,0.0,0.0,0.0,0.0,0.0,0.0,0.0,0.0,0.0,0.0,0.0,2.2061,0.0,0.0,2.2405,2.2505,2.2677,2.3047,2.2501,2.2315,2.3047,2.1756,2.0755,2.0755,1.967,1.8956,1.8956,1.8141,1.7692,1.7692,1.8048,1.8048,1.7684,2.0034,2.1293,2.1293,2.2492,2.3135,2.3135,2.3135,2.3135,2.3135,2.3135,2.3135,2.3135,2.3135,2.3135,2.3115,2.2822,2.2705,2.2656,2.2236,2.2349,2.2652,2.2679,2.2981,2.3271,2.3117,2.3891,2.4933,2.4636,2.5441,2.6533,2.6533,2.6533,2.6533,2.6533,2.6533,2.6533,2.6533,2.6533,2.6533,2.6533,2.6533,2.6533,2.6533,2.7095,2.7855,2.8492,2.9317,2.9875,2.9837,2.9504,2.9144,2.9041,2.8592,2.8457,2.8936,2.8996,2.8891,2.8622,2.9011,2.9445,2.9819,3.0253,3.0717,3.1195,3.1362,3.146,3.13,3.1905,3.2757,3.3933,3.4298,3.4759,3.5284,3.5504,3.5622,3.5622,3.5622,3.5622,1.0488,0.0,0.0,0.0,0.0,0.0,0.0,0.0,0.0,0.0,0.0,2.1663,2.2553,2.2627,0.0,2.2734,2.2969,2.3135,2.3135,2.3135,2.3135,2.3135,2.2492,2.1845,2.1382,2.0666,2.0215,2.0215,1.9131,1.8588,1.9131,1.9131,1.9131,1.9131,2.1033,2.2031,2.2031,2.2765,2.3135,2.3135,2.2969,2.2891,2.2891,2.2891,2.2891,2.2881,2.2715,2.2646,2.2617,2.2373,2.2266,2.2217,2.1797,2.207,2.2709,2.2981,2.3475,2.4108,2.4108,2.4779,2.5511,2.5146,2.5664,2.6533,2.6533,2.6533,2.6533,2.6533,2.6533,2.6533,2.6533,2.6533,2.6533,2.6533,2.6533,2.6589,2.6905,2.7604,2.8492,2.938,3.0208,3.0749,3.0499,3.0193,2.9864,2.9624,2.925,2.9131,2.9535,2.9579,2.952,2.937,2.9714,3.0058,3.0328,3.0702,3.1091,3.1452,3.1482,3.1769,3.239,3.272,3.3616,3.4988,3.497,3.5165,3.5622,3.5622,3.5622,3.5622,3.5622,3.5622,0.0,0.0,0.0,0.0,0.0,0.0,0.0,0.0,0.0,0.0,0.0,2.2627,2.3018,2.2803,2.2695,2.3076,2.3135,2.3135,2.3135,2.3135,2.3135,2.3135,2.3135,2.2677,2.1569,2.1444,2.1425,2.1425,2.0219,2.0022,2.1096,2.1184,2.1184,2.1184,2.2378,2.3027,2.3027,2.3027,2.3027,2.3018,2.2637,2.2461,2.2461,2.2461,2.2461,2.2432,2.2051,2.1885,2.1885,2.1846,2.1826,2.1787,2.1418,2.1926,2.2847,2.3386,2.4264,2.5158,2.5158,2.5734,2.6383,2.5441,2.5734,2.6533,2.6533,2.6533,2.6533,2.6533,2.6533,2.6533,2.6533,2.6533,2.6521,2.6589,2.6589,2.6782,2.7537,2.8427,2.938,3.0133,3.097,3.1345,3.0717,3.0552,3.0313,2.9744,2.9714,2.9759,2.9759,2.9759,2.9953,3.0447,3.0552,3.0821,3.1332,3.1437,3.1482,3.1482,3.1482,3.2145,3.3531,3.3582,3.4252,3.5577,3.5622,3.5622,3.5622,3.5622,3.5622,3.5622,3.5622,3.5622,0.0,0.0,0.0,0.0,0.0,0.0,0.0,0.0,0.0,0.0,2.2285,2.2539,2.2627,2.2842,2.3037,2.3125,2.3135,2.3135,2.3135,2.3135,2.3135,2.3135,2.3135,2.296,2.2765,2.239,2.2198,2.2198,2.082,2.0022,2.0287,2.0278,2.0278,2.0278,2.1522,2.2158,2.2158,2.2158,2.2158,2.2158,2.206,2.2021,2.2021,2.2021,2.2021,2.2012,2.1924,2.1885,2.1865,2.1514,2.1377,2.1409,2.17,2.2412,2.3438,2.4299,2.5288,2.6176,2.6176,2.6314,2.6452,2.6245,2.6314,2.6533,2.6533,2.6533,2.6533,2.6533,2.6533,2.6533,2.6533,2.6533,2.6658,2.7284,2.7417,2.7484,2.767,2.8939,3.0072,3.0269,3.097,3.1422,3.1345,3.0866,3.0462,3.0328,3.0761,3.1106,3.1106,3.1106,3.0956,3.0552,3.0986,3.115,3.0761,3.1225,3.1482,3.1482,3.1482,3.2145,3.3531,3.3582,3.4252,3.5577,3.5622,3.5622,3.5622,3.5622,3.5622,3.5622,3.5622,3.5622,0.0,0.0,0.0,0.0,0.0,0.0,0.0,0.0,0.0,0.0,2.1768,2.2207,2.2207,2.2393,2.2539,2.2539,2.2539,2.2539,2.2539,2.2539,2.2539,2.2539,2.2539,2.2539,2.2539,2.2344,2.2207,2.2207,2.0847,2.0298,2.0913,2.0298,2.0298,2.0913,2.1534,2.1885,2.1885,2.1885,2.1885,2.1885,2.167,2.1465,2.126,2.1475,2.1455,2.125,2.125,2.125,2.124,2.1006,2.0918,2.0968,2.1686,2.2627,2.3599,2.4636,2.5664,2.6533,2.6533,2.6533,2.6533,2.6533,2.6533,2.6533,2.6533,2.6533,2.6533,2.6533,2.6533,2.6533,2.6533,2.6533,2.6589,2.704,2.7417,2.792,2.8748,2.9628,3.0389,3.0777,3.1219,3.1482,3.1482,3.124,3.1001,3.1001,3.13,3.1482,3.1482,3.1482,3.1405,3.1031,3.1315,3.139,3.1031,3.133,3.1482,3.1482,3.1482,3.2145,3.3531,3.3582,3.4252,3.5577,3.5622,3.5622,3.5622,3.5622,3.5622,3.5622,3.5622,3.5622,0.0,0.0,0.0,0.0,0.0,0.0,0.0,0.0,0.0,2.0449,2.1162,2.1777,2.1777,2.1836,2.1885,2.1885,2.1885,2.1885,2.1885,2.1885,2.1885,2.1885,2.1885,2.1885,2.1885,2.1816,2.1777,2.1777,2.0735,2.0523,2.166,2.0688,2.0605,2.166,2.166,2.166,2.166,2.166,2.166,2.166,2.1289,2.0918,2.0576,2.0947,2.0918,2.0566,2.0566,2.0566,2.0566,2.0566,2.0712,2.0934,2.1886,2.285,2.3891,2.485,2.5804,2.6533,2.6533,2.6533,2.6533,2.6533,2.6533,2.6533,2.6533,2.6533,2.6533,2.6533,2.6533,2.6533,2.6533,2.6533,2.6521,2.6658,2.7351,2.8298,2.9766,3.0329,3.0703,3.1351,3.1482,3.1482,3.1482,3.1482,3.1482,3.1482,3.1482,3.1482,3.1482,3.1482,3.1482,3.1482,3.1482,3.1482,3.1482,3.1482,3.1482,3.1482,3.164,3.2256,3.3547,3.3735,3.435,3.5577,3.5622,3.5622,3.5622,3.5622,3.5622,3.5622,3.5622,3.5622,0.0,0.0,0.0,0.0,0.0,0.0,0.0,0.0,0.0,0.0,2.0703,2.1318,2.1318,2.1631,2.1885,2.1885,2.1885,2.1885,2.1885,2.1885,2.1885,2.1885,2.1885,2.1885,2.1885,2.1543,2.1318,2.1318,2.0789,2.0566,2.0742,2.0575,2.0575,2.0742,2.0742,2.0742,2.0742,2.0742,2.0742,2.0742,2.0684,2.0625,2.0566,2.0625,2.0625,2.0566,2.0566,2.0566,2.0566,2.0566,2.1078,2.1886,2.2925,2.3891,2.4933,2.5955,2.6383,2.6533,2.6533,2.6533,2.6533,2.6533,2.6533,2.6533,2.6533,2.6533,2.6533,2.6533,2.6533,2.6533,2.6533,2.6533,2.6658,2.7351,2.8182,2.8876,2.9129,3.0329,3.1351,3.1467,3.1482,3.1482,3.1482,3.1482,3.1482,3.1482,3.1482,3.1482,3.1482,3.1482,3.1482,3.1482,3.1482,3.1482,3.1482,3.1482,3.1482,3.1482,3.212,3.2788,3.3598,3.4186,3.4847,3.5577,3.5622,3.5622,3.5622,3.5622,3.5622,3.5622,3.5622,3.5622,0.0,0.0,0.0,0.0,0.0,0.0,0.0,0.0,1.9561,1.9561,1.9873,2.0293,2.0771,2.1016,2.1143,2.1143,2.1143,2.1143,2.1143,2.1143,2.1143,2.1143,2.1143,2.1143,2.1143,2.0977,2.0859,2.0859,2.0674,2.0566,2.0566,2.0566,2.0566,2.0566,2.0566,2.0566,2.0566,2.0566,2.0566,2.0566,2.0566,2.0566,2.0566,2.0566,2.0566,2.0566,2.0566,2.0934,2.1375,2.1375,2.1962,2.2925,2.3963,2.4636,2.5158,2.6094,2.6533,2.6533,2.6533,2.6533,2.6533,2.6533,2.6533,2.6533,2.6533,2.6533,2.6533,2.6533,2.6533,2.6533,2.6533,2.6533,2.6589,2.6905,2.8051,2.9052,2.9352,3.051,3.1482,3.1482,3.1482,3.1482,3.1482,3.1482,3.1482,3.1482,3.1482,3.1482,3.1482,3.1482,3.1482,3.1482,3.1482,3.1482,3.1482,3.1482,3.1482,3.1482,3.2176,3.2895,3.3582,3.4235,3.4894,3.5577,3.5622,3.5622,3.5622,3.5622,3.5622,3.5622,3.5622,3.5622,0.0,0.0,0.0,0.0,0.0,0.0,0.0,0.0,1.8965,0.0,1.9141,1.9482,2.0127,2.0322,2.0439,2.0547,2.0566,2.0566,2.0566,2.0566,2.0566,2.0566,2.0566,2.0566,2.0566,2.0566,2.0566,2.0566,2.0566,2.0566,2.0566,2.0566,2.0566,2.0566,2.0566,2.0566,2.0566,2.0566,2.0566,2.0566,2.0566,2.0566,2.0566,2.0566,2.0566,2.0566,2.0566,2.1155,2.2027,2.2027,2.2776,2.3963,2.4719,2.5158,2.5441,2.6233,2.6533,2.6533,2.6533,2.6533,2.6533,2.6533,2.6533,2.6533,2.6533,2.6533,2.6533,2.6533,2.6533,2.6533,2.6533,2.6658,2.6782,2.6782,2.8117,2.9504,3.0104,3.0881,3.1482,3.1482,3.1482,3.1482,3.1482,3.1482,3.1482,3.1482,3.1482,3.1482,3.1482,3.1482,3.1482,3.1482,3.1482,3.1482,3.1482,3.1482,3.1582,3.1796,3.2477,3.3145,3.3836,3.4496,3.5098,3.5577,3.5622,3.5622,3.5622,3.5622,3.5622,3.5622,3.5622,3.5622,0.0,0.0,0.0,0.0,0.0,0.0,0.0,0.0,1.8076,1.8076,1.8721,1.9297,1.9346,1.9678,2.0088,2.0498,2.0566,2.0566,2.0566,2.0566,2.0566,2.0566,2.0566,2.0566,2.0566,2.0566,2.0566,2.0566,2.0566,2.0566,2.0566,2.0566,2.0566,2.0566,2.0566,2.0566,2.0566,2.0566,2.0566,2.0566,2.0566,2.0566,2.0566,2.0566,2.0566,2.0566,2.0566,2.1155,2.2027,2.2027,2.3147,2.4933,2.5004,2.5581,2.6452,2.6452,2.6533,2.6533,2.6533,2.6533,2.6533,2.6533,2.6533,2.6533,2.6533,2.6533,2.6533,2.6533,2.6533,2.6533,2.6533,2.7095,2.767,2.767,2.9002,3.045,3.1219,3.1467,3.1482,3.1482,3.1482,3.1482,3.1482,3.1482,3.1482,3.1482,3.1482,3.1482,3.1482,3.1482,3.1482,3.1482,3.1482,3.1482,3.1482,3.1482,3.1796,3.2492,3.3198,3.3836,3.4528,3.5207,3.556,3.5622,3.5622,3.5622,3.5622,3.5622,3.5622,3.5622,3.5622,3.5622,0.0,0.0,0.0,0.0,0.0,0.0,0.0,1.583,1.6758,1.6758,1.7461,1.8154,1.8418,1.9043,1.9561,1.9727,1.9746,1.9746,1.9746,1.9746,1.9746,1.9746,1.9746,1.9746,1.9746,1.9746,1.9746,1.9746,1.9746,1.9746,1.9746,1.9746,1.9746,1.9746,1.9746,1.9746,1.9746,1.9746,1.9746,1.9746,1.9746,1.9746,1.9746,1.9746,2.0108,2.0594,2.0594,2.1492,2.2925,2.2925,2.4181,2.5943,2.5943,2.6164,2.6483,2.605,2.6138,2.6433,2.5649,2.5875,2.6471,2.6025,2.6151,2.6533,2.6533,2.6533,2.6533,2.6533,2.6533,2.6589,2.7162,2.7484,2.7986,2.9129,3.0269,3.1161,3.1409,3.1482,3.1482,3.1482,3.1482,3.1482,3.1482,3.1482,3.1482,3.1482,3.1482,3.1482,3.1482,3.1482,3.1482,3.1482,3.1482,3.1482,3.1482,3.1482,3.1796,3.2532,3.3251,3.3887,3.4576,3.5253,3.5622,3.5622,3.5622,3.5622,3.5622,3.5622,3.5622,3.5622,3.5622,3.5622,0.0,0.0,0.0,0.0,0.0,0.0,0.0,0.0,1.5322,1.5762,1.6426,1.707,1.75,1.8047,1.8623,1.9189,1.9287,1.9287,1.9287,1.9287,1.9287,1.9287,1.9287,1.9287,1.9287,1.9287,1.9287,1.9287,1.9287,1.9287,1.9287,1.9287,1.9287,1.9287,1.9287,1.9287,1.9287,1.9287,1.9287,1.9287,1.9287,1.9287,1.9287,1.9287,1.964,2.0186,2.0461,2.1653,2.345,2.345,2.4388,2.5912,2.5912,2.5912,2.5862,2.5473,2.5586,2.5799,2.5071,2.5297,2.585,2.546,2.5598,2.5912,2.5912,2.5912,2.5912,2.5912,2.5912,2.6101,2.6896,2.7662,2.8614,3.0346,3.1087,3.1482,3.1482,3.1482,3.1482,3.1482,3.1482,3.1482,3.1482,3.1482,3.1482,3.1482,3.1482,3.1482,3.1482,3.1482,3.1482,3.1482,3.1482,3.1482,3.1482,3.1482,3.1894,3.2879,3.3339,3.3987,3.4894,3.5362,3.5622,3.5622,3.5622,3.5622,3.5622,3.5622,3.5622,3.5622,3.5622,3.5622,0.0,0.0,0.0,0.0,0.0,0.0,1.293,0.0,1.3799,1.5068,1.5684,1.6123,1.6592,1.6636,1.7256,1.8926,1.9209,1.9228,1.9228,1.9238,1.9248,1.9248,1.9248,1.9248,1.9248,1.9248,1.9248,1.9248,1.9248,1.9248,1.9248,1.9248,1.9248,1.9248,1.9248,1.9248,1.9248,1.9248,1.9248,1.9248,1.9248,1.9248,1.9248,1.9248,1.9248,1.9321,2.0216,2.1589,2.3242,2.3266,2.3911,2.482,2.482,2.482,2.482,2.4808,2.4808,2.482,2.4782,2.4795,2.482,2.4808,2.4808,2.482,2.482,2.482,2.482,2.482,2.482,2.4988,2.5733,2.7607,2.9638,3.107,3.1437,3.1437,3.1437,3.1467,3.1482,3.1482,3.1482,3.1482,3.1482,3.1482,3.1482,3.1482,3.1482,3.1482,3.1482,3.1482,3.1482,3.1482,3.1482,3.1482,3.1482,3.1482,3.2089,3.3479,3.3582,3.4202,3.5515,3.5577,3.5622,3.5622,3.5622,3.5622,3.5622,3.5622,3.5622,3.5622,3.5622,3.5622,0.6503,0.0,0.0,0.0,0.0,0.0,0.0,0.0,1.2002,1.3311,1.3916,1.4443,1.5186,1.583,1.6406,1.6885,1.749,1.791,1.791,1.8174,1.8359,1.8359,1.8359,1.8359,1.8359,1.8359,1.8359,1.8359,1.8359,1.8359,1.8359,1.8359,1.8359,1.8359,1.8359,1.8359,1.8359,1.8359,1.8359,1.8359,1.8359,1.8359,1.8359,1.8359,1.8695,1.9349,2.0202,2.1255,2.2365,2.3036,2.3911,2.482,2.482,2.482,2.477,2.4368,2.4481,2.4707,2.3891,2.4142,2.4757,2.4356,2.4494,2.482,2.482,2.482,2.482,2.482,2.482,2.5,2.5821,2.779,2.9463,2.9315,3.0009,3.0791,3.0791,3.118,3.1482,3.1482,3.1482,3.1482,3.1482,3.1482,3.1482,3.1482,3.1482,3.1482,3.1482,3.1482,3.1482,3.1482,3.1482,3.1482,3.1482,3.1482,3.1894,3.2841,3.3339,3.3987,3.4847,3.5362,3.5622,3.5622,3.5622,3.5622,3.5622,3.5622,3.5622,3.5622,3.5622,3.5622,0.0,0.0,0.0,0.0,0.0,0.0,1.1028,1.0855,1.0891,1.2802,1.3214,1.3506,1.4355,1.4922,1.5254,1.5254,1.5744,1.63,1.6996,1.7324,1.748,1.748,1.748,1.748,1.748,1.7637,1.7744,1.7744,1.791,1.8008,1.8008,1.8008,1.8008,1.8008,1.8008,1.8008,1.8008,1.8008,1.8008,1.8008,1.8008,1.8008,1.8008,1.8008,1.8462,1.9365,2.0204,2.1101,2.1987,2.285,2.3575,2.4117,2.4117,2.4117,2.4079,2.3753,2.3841,2.4029,2.3303,2.3503,2.4067,2.374,2.3853,2.4117,2.4117,2.4117,2.4117,2.4117,2.4354,2.4764,2.5524,2.7227,2.8649,2.845,2.9292,3.0118,3.0118,3.0432,3.0881,3.1377,3.1482,3.1482,3.1482,3.1482,3.1482,3.1482,3.1482,3.1482,3.1482,3.1482,3.1482,3.1482,3.1482,3.1482,3.1482,3.1482,3.1796,3.2532,3.3002,3.3454,3.41,3.4509,3.4712,3.4709,3.4996,3.5301,3.5622,3.5622,3.5622,3.5622,3.5622,3.5622,0.0,0.0,0.0,0.0,0.9443,0.0,1.1944,1.102,1.027,1.2669,1.2836,1.2773,1.3613,1.3766,1.3815,1.3801,1.3951,1.468,1.6331,1.6534,1.6602,1.6665,1.6665,1.6665,1.6665,1.708,1.7314,1.7314,1.7656,1.7871,1.7871,1.7871,1.7891,1.7939,1.7939,1.7959,1.8008,1.8008,1.8008,1.8008,1.8008,1.8008,1.8008,1.8076,1.8596,1.9365,2.0333,2.1175,2.1939,2.2763,2.3078,2.3078,2.3078,2.3078,2.3078,2.3078,2.3078,2.3078,2.3078,2.3078,2.3078,2.3078,2.3078,2.3078,2.3078,2.3078,2.3078,2.3078,2.3649,2.4398,2.4945,2.6242,2.753,2.8064,2.8851,2.9475,2.9475,2.9535,2.9924,3.1091,3.1315,3.1345,3.1347,3.1362,3.1362,3.1362,3.1422,3.1482,3.1482,3.1482,3.1482,3.1482,3.1482,3.1482,3.1482,3.1407,3.1675,3.2408,3.2455,3.2744,3.3236,3.3406,3.3445,3.3279,3.3989,3.4699,3.5397,3.5526,3.5622,3.5622,3.5622,3.5622,0.9912,1.0452,1.0964,0.9996,0.9839,0.0,0.9802,0.9681,0.9746,1.0288,1.0318,1.0497,1.1361,1.1826,1.203,1.192,1.2887,1.4134,1.5439,1.5694,1.5991,1.6602,1.6665,1.6665,1.6665,1.6807,1.6855,1.6855,1.6934,1.6982,1.6982,1.6982,1.7139,1.75,1.75,1.7666,1.8008,1.8008,1.8008,1.8008,1.8008,1.8008,1.8008,1.8721,1.911,1.9365,2.0974,2.1753,2.1939,2.2763,2.3078,2.3078,2.3078,2.3078,2.3078,2.3078,2.3078,2.3078,2.3078,2.3078,2.3078,2.3078,2.3078,2.3078,2.3078,2.3078,2.3078,2.3078,2.3649,2.4319,2.4424,2.5564,2.6712,2.6841,2.7827,2.8801,2.8801,2.9205,2.9654,2.9909,2.9968,3.0118,3.0612,3.0717,3.0717,3.0717,3.118,3.1482,3.1482,3.1482,3.1482,3.1482,3.1482,3.1482,3.1482,3.1031,3.0951,3.1612,3.1706,3.1773,3.1887,3.289,3.3165,3.2691,3.3295,3.3732,3.4014,3.5076,3.5622,3.5622,3.5622,3.5622,1.047,1.0803,1.1103,1.0965,1.0626,0.0,0.0,1.0267,0.9934,1.1075,1.057,1.0293,1.1328,1.1562,1.1655,1.176,1.2429,1.3176,1.4038,1.4535,1.4932,1.5381,1.5381,1.5527,1.5742,1.5947,1.626,1.6699,1.6665,1.6665,1.6665,1.6665,1.6836,1.7051,1.7061,1.7158,1.7373,1.7373,1.748,1.7695,1.7695,1.7803,1.8008,1.8462,1.911,2.0009,2.0846,2.1741,2.2506,2.2944,2.3078,2.3078,2.3078,2.3078,2.3078,2.3078,2.3078,2.3078,2.3078,2.3078,2.3078,2.3078,2.3078,2.3078,2.3078,2.3078,2.3078,2.3078,2.3365,2.3767,2.4176,2.5119,2.6068,2.6404,2.7298,2.8083,2.8083,2.8353,2.8682,2.9026,2.8816,2.8891,2.9879,3.0043,3.0043,3.0043,3.0342,3.0552,3.0552,3.0552,3.0552,3.0552,3.0552,3.0552,3.0552,3.0238,3.0193,3.0487,3.052,3.0522,3.0509,3.1394,3.1907,3.1951,3.2547,3.2916,3.3069,3.4393,3.525,3.5622,3.5622,3.5622,1.0542,1.0648,1.084,1.1596,1.1064,1.0641,0.0,0.0,0.0,1.1993,1.1307,1.0695,0.0,1.1543,1.1338,1.1644,1.1872,1.203,1.2081,1.3007,1.373,1.3984,1.4029,1.4268,1.4629,1.4824,1.5283,1.6101,1.6084,1.6103,1.6348,1.6357,1.6436,1.6602,1.6602,1.6641,1.6665,1.6665,1.6914,1.7256,1.7256,1.7441,1.7764,1.7888,1.8851,2.031,2.05,2.1493,2.2975,2.2975,2.3037,2.3078,2.3078,2.3078,2.3078,2.3078,2.3078,2.3078,2.3078,2.3078,2.3078,2.3078,2.3078,2.3078,2.3078,2.3185,2.3305,2.3125,2.3185,2.3543,2.4279,2.4951,2.5618,2.6496,2.7152,2.7625,2.7625,2.7625,2.779,2.8293,2.7949,2.7964,2.919,2.94,2.94,2.94,2.9505,2.9579,2.9579,2.9579,2.9579,2.9579,2.9579,2.9579,2.9579,2.946,2.9439,2.9584,2.9463,2.934,2.9314,2.988,3.0529,3.1193,3.1791,3.2161,3.2281,3.3638,3.4675,3.5402,3.5554,3.5622,1.0605,1.0789,1.0639,1.0119,1.0199,1.0191,0.9449,0.0,1.0446,1.0067,0.0,1.0801,1.0998,0.0,0.0,0.9824,1.0516,1.0628,0.9442,1.077,1.2285,1.3437,1.3906,1.4097,1.4145,1.3584,1.3516,1.4311,1.374,1.3809,1.4951,1.501,1.5352,1.6113,1.6143,1.6328,1.6728,1.6665,1.6758,1.6807,1.6807,1.6826,1.6875,1.7666,1.8441,1.934,2.0064,2.117,2.2397,2.2397,2.2686,2.3078,2.3078,2.3078,2.3078,2.3078,2.3078,2.3078,2.3078,2.3078,2.3078,2.3078,2.3078,2.3078,2.3078,2.359,2.4002,2.3305,2.359,2.435,2.5063,2.5342,2.5728,2.7137,2.7524,2.7625,2.7625,2.7625,2.764,2.773,2.7619,2.7814,2.8577,2.8712,2.8712,2.8712,2.9205,2.9579,2.9579,2.9579,2.9579,2.9579,2.9579,2.9579,2.9579,2.9041,2.8943,2.9458,2.8938,2.8616,2.8635,2.9215,2.9786,3.0425,3.0996,3.1405,3.1523,3.2882,3.3897,3.4641,3.5318,3.5622,1.0064,1.0358,1.0454,1.0187,1.0217,1.0164,0.9546,0.9514,0.9699,1.0173,0.0,0.0,0.0,0.0,0.0,0.0,1.0466,1.0167,0.9054,1.0041,1.1113,1.1904,1.2158,1.2568,1.334,1.2888,1.2972,1.4019,1.3147,1.3068,1.4355,1.4648,1.4951,1.5303,1.5557,1.5771,1.5967,1.5967,1.6094,1.6338,1.6338,1.6484,1.6728,1.7502,1.8341,1.9171,1.9936,2.09,2.1832,2.1832,2.197,2.2184,2.2184,2.2573,2.3078,2.3078,2.3078,2.3078,2.3078,2.3078,2.3198,2.3649,2.3484,2.3245,2.415,2.4394,2.435,2.4381,2.4667,2.5119,2.5837,2.6068,2.6283,2.7357,2.7625,2.7625,2.7625,2.7625,2.7625,2.7625,2.7625,2.7715,2.7949,2.8008,2.8008,2.8008,2.8233,2.8464,2.8464,2.8464,2.8464,2.8464,2.8464,2.8464,2.8464,2.8158,2.8147,2.8369,2.8145,2.814,2.8463,2.8732,2.918,2.9761,3.0393,3.0709,3.0738,3.211,3.3136,3.3897,3.5064,3.5622,0.9413,0.9684,0.9864,0.9743,0.962,0.9549,0.9379,0.9195,0.9283,1.0312,1.0188,0.0,0.0,0.0,0.0,0.0,0.0,0.9902,0.8809,0.9395,1.0088,1.0508,1.0869,1.1465,1.2422,1.1956,1.2101,1.3299,1.2244,1.2225,1.3669,1.4092,1.4424,1.4775,1.5078,1.5293,1.541,1.541,1.5566,1.5889,1.5889,1.6176,1.6665,1.7184,1.8003,1.9045,1.9573,2.0358,2.1267,2.1267,2.1355,2.1493,2.1493,2.1983,2.2698,2.2862,2.294,2.3078,2.3078,2.3078,2.3198,2.3767,2.3603,2.3305,2.4439,2.4667,2.4681,2.5007,2.5398,2.5837,2.6336,2.651,2.6669,2.7408,2.7625,2.7625,2.7625,2.7625,2.7625,2.7625,2.7625,2.7625,2.7625,2.7625,2.7625,2.7625,2.7625,2.7625,2.7625,2.7625,2.7625,2.7625,2.7625,2.7625,2.7625,2.7625,2.7625,2.7625,2.7625,2.786,2.8463,2.8511,2.8873,2.9629,3.0081,3.0393,3.0559,3.1739,3.2662,3.344,3.4726,3.5419,0.8804,0.8864,0.8729,0.8138,0.799,0.7975,0.7972,0.8968,0.9843,0.9732,1.134,1.258,1.1926,0.0,0.0,0.0,0.0,0.0,0.0,0.8506,0.9199,0.9583,1.0781,1.1596,1.1645,1.0469,1.0225,1.1587,1.0459,1.0624,1.2803,1.293,1.3506,1.4746,1.4795,1.5,1.541,1.541,1.542,1.543,1.543,1.5778,1.6534,1.6534,1.7346,1.8709,1.8762,1.9502,2.0743,2.0743,2.1004,2.1493,2.1493,2.1506,2.1606,2.2133,2.2673,2.3078,2.3078,2.3078,2.3078,2.3138,2.3138,2.3138,2.3125,2.4208,2.5231,2.4509,2.5342,2.6457,2.651,2.651,2.6669,2.7408,2.7625,2.7625,2.7625,2.7625,2.7625,2.7625,2.7625,2.7625,2.7625,2.7625,2.7625,2.7625,2.7625,2.7625,2.7625,2.7625,2.7625,2.7625,2.7625,2.7625,2.7625,2.7625,2.7625,2.7625,2.7625,2.786,2.8463,2.8511,2.9042,3.0251,3.0293,3.0601,3.119,3.1918,3.2662,3.3423,3.4184,3.4928,0.8804,0.8945,0.8951,0.837,0.8223,0.8118,0.7722,0.7996,0.8543,0.9297,0.9781,1.0527,1.1846,0.0,0.0,0.0,0.0,0.0,0.0,0.7948,0.832,0.875,0.0,0.0,0.9922,0.9753,0.9962,1.0684,1.0316,1.0751,1.2336,1.2988,1.3623,1.4326,1.5103,1.5745,1.614,1.6151,1.6368,1.6856,1.6368,1.6539,1.7246,1.7731,1.8221,1.8715,1.9202,1.9691,2.0087,2.0087,2.02,2.0376,2.0376,2.0614,2.1054,2.197,2.2422,2.2636,2.2952,2.3078,2.3198,2.3708,2.3531,2.3305,2.4323,2.4681,2.4851,2.5563,2.6122,2.6616,2.7086,2.7255,2.7306,2.756,2.7625,2.7625,2.7625,2.7625,2.7625,2.7625,2.7625,2.7625,2.7625,2.7625,2.7625,2.7625,2.7625,2.7625,2.7625,2.7625,2.7625,2.7625,2.7625,2.7625,2.7625,2.7625,2.7625,2.7625,2.7625,2.766,2.791,2.7894,2.8271,2.9088,2.9088,2.9585,3.0601,3.085,3.1574,3.2679,3.3423,3.4438,0.8804,0.8945,0.8971,0.849,0.8427,0.8243,0.7742,0.7932,0.8332,0.8875,0.9236,0.9819,1.1129,1.083,0.0,0.0,0.0,0.0,0.0,0.7695,0.7802,0.8115,0.0,0.0,0.0,0.9059,0.9364,1.0234,0.9877,1.0305,1.1924,1.251,1.3154,1.3834,1.4629,1.5442,1.6287,1.6287,1.6751,1.7567,1.7146,1.7302,1.8004,1.8501,1.8821,1.9097,1.9579,1.9798,1.9798,1.9798,1.9798,1.9798,1.9798,2.0024,2.0476,2.1393,2.197,2.2359,2.2723,2.2915,2.3198,2.3708,2.3531,2.3305,2.4266,2.461,2.4908,2.5837,2.651,2.6982,2.7458,2.7625,2.7625,2.7625,2.7625,2.7625,2.7625,2.7625,2.7625,2.7625,2.7625,2.7625,2.7625,2.7625,2.7625,2.7625,2.7625,2.7625,2.7625,2.7625,2.7625,2.7625,2.7625,2.7625,2.7625,2.7625,2.7625,2.7625,2.7625,2.7625,2.7625,2.7625,2.7894,2.8463,2.8511,2.9012,2.9978,3.0208,3.0883,3.2009,3.2681,3.366]},{"header":{"parameterUnit":"m.s-1","parameterCategory":1,"la1":30.6,"la2":29.2853,"lo1":-89.7004,"lo2":-87.6739,"dy":0.0162,"dx":0.0183,"nx":112,"ny":82,"refTime":"2024-08-14T18:00:00:Z","depth":0,"parameterNumber":3,"parameterNumberName":"V-component_of_WINDS"},"data":[0.0,0.0,0.0,0.0,0.0,0.0,0.0,0.0,0.0,0.0,0.0,0.0,0.0,0.0,0.0,0.0,0.0,0.0,0.0,0.0,0.0,0.0,0.0,0.0,0.0,0.0,0.0,0.0,0.0,0.0,0.0,0.0,0.0,0.0,0.0,0.0,0.0,0.0,0.0,0.0,0.0,0.0,0.0,0.0,0.0,0.0,0.0,0.0,0.0,0.0,0.0,0.0,0.0,0.0,0.0,0.0,0.0,0.0,0.0,0.0,0.0,0.0,0.0,0.0,0.0,0.0,0.0,0.0,0.0,0.0,0.0,0.0,0.0,0.0,0.0,0.0,0.0,0.0,0.0,0.0,0.0,0.0,0.0,0.0,0.0,0.0,0.0,0.0,0.0,0.0,-0.7754,-0.8948,-0.9443,-0.9159,-0.7977,-0.7689,-0.691,-0.5409,0.0,0.0,0.0,0.0,0.0,0.0,0.0,0.0,0.0,0.0,0.0,0.0,0.0,0.0,0.0,0.0,0.0,0.0,0.0,0.0,0.0,0.0,0.0,0.0,0.0,0.0,0.0,0.0,0.0,0.0,0.0,0.0,0.0,0.0,0.0,0.0,0.0,0.0,0.0,0.0,0.0,0.0,0.0,0.0,0.0,0.0,0.0,0.0,0.0,0.0,0.0,0.0,0.0,0.0,0.0,0.0,0.0,0.0,0.0,0.0,0.0,0.0,0.0,0.0,0.0,0.0,0.0,0.0,0.0,0.0,0.0,0.0,0.0,0.0,0.0,0.0,0.0,0.0,0.0,0.0,0.0,0.0,0.0,0.0,0.0,0.0,0.0,0.0,0.0,0.0,0.0,0.0,0.0,0.0,0.0,0.0,0.0,0.0,0.0,0.0,0.0,0.0,0.0,0.0,-0.857,-0.9324,-0.9431,-0.9052,-0.7997,-0.7842,-0.7098,-0.5418,0.0,0.0,0.0,0.0,0.0,0.0,0.0,0.0,0.0,0.0,0.0,0.0,0.0,0.0,0.0,0.0,0.0,0.0,0.0,0.0,0.0,0.0,0.0,0.0,0.0,0.0,0.0,0.0,0.0,0.0,0.0,0.0,0.0,0.0,0.0,0.0,0.0,0.0,0.0,0.0,0.0,0.0,0.0,0.0,0.0,0.0,0.0,0.0,0.0,0.0,0.0,0.0,0.0,0.0,0.0,0.0,0.0,0.0,0.0,0.0,0.0,0.0,0.0,0.0,0.0,0.0,0.0,0.0,0.0,0.0,0.0,0.0,0.0,0.0,0.0,0.0,0.0,0.0,0.0,0.0,0.0,0.0,0.0,0.0,0.0,0.0,0.0,0.0,0.0,0.0,0.0,0.0,0.0,0.0,0.0,0.0,0.0,0.0,0.0,0.0,0.0,0.0,0.0,-0.8198,-0.8794,-0.944,-0.9576,-0.9293,-0.8467,-0.8068,-0.7308,-0.5887,-0.5353,0.0,0.0,0.0,0.0,0.0,0.0,0.0,0.0,0.0,0.0,0.0,0.0,0.0,0.0,0.0,0.0,0.0,0.0,0.0,0.0,0.0,0.0,0.0,0.0,0.0,0.0,0.0,0.0,0.0,0.0,0.0,0.0,0.0,0.0,0.0,0.0,0.0,0.0,0.0,0.0,0.0,0.0,0.0,0.0,0.0,0.0,0.0,0.0,0.0,0.0,0.0,0.0,0.0,0.0,0.0,0.0,0.0,0.0,0.0,0.0,0.0,0.0,0.0,0.0,0.0,0.0,0.0,0.0,0.0,0.0,0.0,0.0,0.0,0.0,0.0,0.0,0.0,0.0,0.0,0.0,0.0,0.0,0.0,0.0,0.0,0.0,0.0,0.0,0.0,0.0,0.0,0.0,0.0,0.0,0.0,0.0,0.0,0.0,0.0,0.0,0.0,0.0,-0.886,-0.9116,-0.9452,-0.9805,-0.9651,-0.8662,-0.8056,-0.7214,-0.6062,-0.543,0.0,0.0,0.0,0.0,0.0,0.0,0.0,0.0,0.0,0.0,0.0,0.0,0.0,0.0,0.0,0.0,0.0,0.0,0.0,0.0,0.0,0.0,0.0,0.0,0.0,0.0,0.0,0.0,0.0,0.0,0.0,0.0,0.0,0.0,0.0,0.0,0.0,0.0,0.0,0.0,0.0,0.0,0.0,0.0,0.0,0.0,0.0,0.0,0.0,0.0,0.0,0.0,0.0,0.0,0.0,0.0,0.0,0.0,0.0,0.0,0.0,0.0,0.0,0.0,0.0,0.0,0.0,0.0,0.0,0.0,0.0,0.0,0.0,0.0,0.0,0.0,0.0,0.0,0.0,0.0,0.0,0.0,0.0,0.0,0.0,0.0,0.0,0.0,0.0,0.0,0.0,0.0,0.0,0.0,0.0,0.0,0.0,0.0,0.0,0.0,0.0,0.0,-0.9486,-0.9993,-0.9567,-1.0238,-0.9953,-0.8132,-0.739,-0.6587,-0.545,-0.479,0.0,0.0,0.0,0.0,0.0,0.0,0.0,0.0,0.0,0.0,0.0,0.0,0.0,0.0,0.0,0.0,0.0,0.0,0.0,0.0,0.0,0.0,0.0,0.0,0.0,0.0,0.0,0.0,0.0,0.0,0.0,0.0,0.0,0.0,0.0,0.0,0.0,0.0,0.0,0.0,0.0,0.0,0.0,0.0,0.0,0.0,0.0,0.0,0.0,0.0,0.0,0.0,0.0,0.0,0.0,0.0,0.0,0.0,0.0,0.0,0.0,0.0,0.0,0.0,0.0,0.0,0.0,0.0,0.0,0.0,0.0,0.0,0.0,0.0,0.0,0.0,0.0,0.0,0.0,0.0,0.0,0.0,0.0,0.0,0.0,0.0,0.0,0.0,0.0,0.0,0.0,0.0,0.0,0.0,0.0,0.0,0.0,0.0,0.0,0.0,0.0,0.0,-0.8649,-0.8935,0.0,-0.9384,-0.9027,-0.8272,-0.7829,-0.7001,-0.5638,0.0,0.0,0.0,0.0,0.0,0.0,0.0,0.0,0.0,0.0,0.0,0.0,0.0,0.0,0.0,0.0,0.0,0.0,0.0,0.0,0.0,0.0,0.0,0.0,0.0,0.0,0.0,0.0,0.0,0.0,0.0,0.0,0.0,0.0,0.0,0.0,0.0,0.0,0.0,0.0,0.0,0.0,0.0,0.0,0.0,0.0,0.0,0.0,0.0,0.0,0.0,0.0,0.0,0.0,0.0,0.0,0.0,0.0,0.0,0.0,0.0,0.0,0.0,0.0,0.0,0.0,0.0,0.0,0.0,0.0,0.0,0.0,0.0,0.0,0.0,0.0,0.0,0.0,0.0,0.0,0.0,0.0,0.0,0.0,0.0,0.0,0.0,0.0,0.0,0.0,0.0,0.0,0.0,0.0,0.0,0.0,0.0,0.0,0.0,0.0,0.0,0.0,-0.8224,-0.8493,-0.8829,0.0,-0.9182,-0.8771,-0.8286,-0.7782,-0.6954,-0.5658,0.0,0.0,0.0,0.0,0.0,0.0,0.0,0.0,0.0,0.0,0.0,0.0,0.0,0.0,0.0,0.0,0.0,0.0,0.0,0.0,0.0,0.0,0.0,0.0,0.0,0.0,0.0,0.0,0.0,0.0,0.0,0.0,0.0,0.0,0.0,0.0,0.0,0.0,0.0,0.0,0.0,0.0,0.0,0.0,0.0,0.0,0.0,0.0,0.0,0.0,0.0,0.0,0.0,0.0,0.0,0.0,0.0,0.0,0.0,0.0,0.0,0.0,0.0,0.0,0.0,0.0,0.0,0.0,0.0,0.0,0.0,0.0,0.0,0.0,0.0,0.0,0.0,0.0,0.0,0.0,0.0,0.0,0.0,0.0,0.0,0.0,0.0,0.0,0.0,0.0,0.0,0.0,0.0,0.0,0.0,0.0,0.0,0.0,0.0,0.0,0.0,0.0,-0.8019,-0.9392,-1.0112,-0.9575,-0.992,-0.9572,-0.8044,-0.7114,-0.6219,0.0,0.0,0.0,0.0,0.0,0.0,0.0,0.0,0.0,0.0,0.0,0.0,0.0,0.0,0.0,0.0,0.0,0.0,0.0,0.0,0.0,0.0,0.0,0.0,0.0,0.0,0.0,0.0,0.0,0.0,0.0,0.0,0.0,0.0,0.0,0.0,0.0,0.0,0.0,0.0,0.0,0.0,0.0,0.0,0.0,0.0,0.0,0.0,0.0,0.0,0.0,0.0,0.0,0.0,0.0,0.0,0.0,0.0,0.0,0.0,0.0,0.0,0.0,0.0,0.0,0.0,0.0,0.0,0.0,0.0,0.0,0.0,0.0,0.0,0.0,0.0,0.0,0.0,0.0,0.0,0.0,0.0,0.0,0.0,0.0,0.0,0.0,0.0,0.0,0.0,0.0,0.0,0.0,0.0,0.0,0.0,0.0,0.0,0.0,0.0,0.0,0.0,0.0,-0.806,-0.9319,-1.0167,-1.0285,-0.9655,-0.908,-0.8663,-0.7743,-0.6693,-0.539,0.0,0.0,0.0,0.0,0.0,0.0,0.0,0.0,0.0,0.0,0.0,0.0,0.0,0.0,0.0,0.0,0.0,0.0,0.0,0.0,0.0,0.0,0.0,0.0,0.0,0.0,0.0,0.0,0.0,0.0,0.0,0.0,0.0,0.0,0.0,0.0,0.0,0.0,0.0,0.0,0.0,0.0,0.0,0.0,0.0,0.0,0.0,0.0,0.0,0.0,0.0,0.0,0.0,0.0,0.0,0.0,0.0,0.0,0.0,0.0,0.0,0.0,0.0,0.0,0.0,0.0,0.0,0.0,0.0,0.0,0.0,0.0,0.0,0.0,0.0,0.0,0.0,0.0,0.0,0.0,0.0,0.0,0.0,0.0,0.0,0.0,0.0,0.0,0.0,0.0,0.0,0.0,0.0,0.0,0.0,0.0,0.0,0.0,0.0,0.0,0.0,0.0,-0.7918,-0.9398,-1.0474,-1.057,-1.0148,-0.9665,-0.9252,-0.8401,-0.7298,-0.5854,0.0,0.0,0.0,0.0,0.0,0.0,0.0,0.0,0.0,0.0,0.0,0.0,0.0,0.0,0.0,0.0,0.0,0.0,0.0,0.0,0.0,0.0,0.0,0.0,0.0,0.0,0.0,0.0,0.0,0.0,0.0,0.0,0.0,0.0,0.0,0.0,0.0,0.0,0.0,0.0,0.0,0.0,0.0,0.0,0.0,0.0,0.0,0.0,0.0,0.0,0.0,0.0,0.0,0.0,0.0,0.0,0.0,0.0,0.0,0.0,0.0,0.0,0.0,0.0,0.0,0.0,0.0,0.0,0.0,0.0,0.0,0.0,0.0,0.0,0.0,0.0,0.0,0.0,0.0,0.0,0.0,0.0,0.0,0.0,0.0,0.0,0.0,0.0,0.0,0.0,0.0,0.0,0.0,0.0,0.0,0.0,0.0,0.0,0.0,0.0,0.0,0.0,-0.7803,-0.9685,-1.0954,-1.0758,-1.103,-1.0842,-0.9864,-0.9064,-0.8,-0.6692,0.0,0.0,0.0,0.0,0.0,0.0,0.0,0.0,0.0,0.0,0.0,0.0,0.0,0.0,0.0,0.0,0.0,0.0,0.0,0.0,0.0,0.0,0.0,0.0,0.0,0.0,0.0,0.0,0.0,0.0,0.0,0.0,0.0,0.0,0.0,0.0,0.0,0.0,0.0,0.0,0.0,0.0,0.0,0.0,0.0,0.0,0.0,0.0,0.0,0.0,0.0,0.0,0.0,0.0,0.0,0.0,0.0,0.0,0.0,0.0,-0.99,-0.9378,0.0,0.0,0.0,0.0,0.0,0.0,0.0,0.0,0.0,0.0,0.0,0.0,0.0,0.0,0.0,0.0,0.0,0.0,0.0,0.0,0.0,0.0,0.0,0.0,0.0,0.0,0.0,0.0,0.0,0.0,0.0,0.0,0.0,0.0,0.0,0.0,0.0,0.0,0.0,0.0,-0.846,-1.0521,-1.1953,-1.1849,-1.1575,-1.1121,-1.0597,-0.9673,-0.8667,-0.7588,-0.6651,0.0,0.0,0.0,0.0,0.0,0.0,0.0,0.0,0.0,0.0,0.0,0.0,0.0,0.0,0.0,0.0,0.0,0.0,0.0,0.0,0.0,0.0,0.0,0.0,0.0,0.0,0.0,0.0,0.0,0.0,0.0,0.0,0.0,0.0,0.0,0.0,0.0,0.0,0.0,0.0,0.0,0.0,0.0,0.0,0.0,0.0,0.0,0.0,0.0,0.0,0.0,0.0,0.0,0.0,0.0,0.0,0.0,0.0,0.0,-1.2123,-1.1319,0.0,0.0,0.0,0.0,0.0,0.0,0.0,0.0,0.0,0.0,0.0,0.0,0.0,0.0,0.0,0.0,0.0,0.0,0.0,0.0,0.0,0.0,0.0,0.0,0.0,0.0,0.0,0.0,0.0,0.0,0.0,0.0,0.0,0.0,0.0,0.0,0.0,0.0,0.0,0.0,-0.9077,-1.0988,-1.2279,-1.2224,-1.2158,-1.1959,-1.1497,-1.0579,-0.9628,-0.8778,-0.7709,0.0,0.0,0.0,0.0,0.0,0.0,0.0,0.0,0.0,0.0,0.0,0.0,0.0,0.0,0.0,0.0,0.0,0.0,0.0,0.0,0.0,0.0,0.0,0.0,0.0,0.0,0.0,0.0,0.0,0.0,0.0,0.0,0.0,0.0,0.0,0.0,0.0,0.0,0.0,0.0,0.0,0.0,0.0,0.0,0.0,0.0,0.0,0.0,0.0,0.0,0.0,0.0,0.0,-1.5298,-1.6208,-1.7074,-1.6622,-1.6923,-1.7652,-1.4658,-1.3824,-1.4461,-1.2706,0.0,0.0,0.0,0.0,0.0,0.0,0.0,0.0,0.0,0.0,0.0,0.0,0.0,0.0,0.0,0.0,0.0,0.0,0.0,0.0,0.0,0.0,-0.9022,-0.9803,-1.0209,-1.0076,-0.8964,0.0,0.0,0.0,0.0,0.0,0.0,0.0,0.0,0.0,0.0,0.0,-0.9803,-1.1389,-1.2402,-1.2341,-1.2666,-1.2705,-1.2219,-1.1469,-1.0767,-1.0056,-0.8834,-0.7688,0.0,0.0,0.0,0.0,0.0,0.0,0.0,0.0,0.0,0.0,0.0,0.0,0.0,0.0,0.0,0.0,0.0,0.0,0.0,0.0,0.0,0.0,0.0,0.0,0.0,0.0,0.0,0.0,0.0,0.0,0.0,0.0,-1.0556,-1.1183,0.0,0.0,0.0,0.0,0.0,0.0,0.0,0.0,0.0,0.0,0.0,0.0,0.0,-1.5499,-1.6523,-1.7172,-1.7772,-1.8287,-1.8883,-1.9221,-1.9359,-1.9296,-1.9346,-1.9459,-1.897,0.0,-1.686,-1.564,0.0,0.0,0.0,0.0,0.0,0.0,0.0,0.0,0.0,0.0,0.0,0.0,0.0,0.0,0.0,0.0,0.0,0.0,0.0,0.0,0.0,0.0,-1.0586,-1.1075,-1.1395,-1.1588,-1.1657,-1.0536,-0.9359,-0.8857,-0.8457,-0.8057,0.0,0.0,0.0,0.0,0.0,0.0,-1.1032,-1.2172,-1.2873,-1.2792,-1.2842,-1.2705,-1.2219,-1.2086,-1.1834,-1.1383,-1.0134,-0.9232,-0.8812,-0.6997,0.0,0.0,0.0,0.0,0.0,0.0,0.0,0.0,0.0,0.0,0.0,0.0,0.0,0.0,0.0,0.0,0.0,0.0,0.0,0.0,0.0,0.0,0.0,0.0,0.0,0.0,0.0,0.0,0.0,-1.0639,-1.2101,-1.3555,-1.3737,-1.3651,0.0,0.0,0.0,0.0,0.0,0.0,0.0,0.0,0.0,-1.681,-1.7313,-1.7902,-1.8641,-1.9307,-1.9654,-1.9799,-2.0466,-2.0752,-2.0752,-2.0752,-2.0752,-2.0752,-2.0752,-2.0351,-1.956,-1.7815,-1.6823,-1.6245,0.0,0.0,0.0,0.0,-1.3541,-1.3215,-1.3777,-1.3303,-1.2343,-1.2077,0.0,0.0,0.0,0.0,0.0,0.0,0.0,-1.1075,-1.1269,-1.1807,-1.2439,-1.2808,-1.3103,-1.3293,-1.3425,-1.2664,-1.1571,-1.0321,-0.9922,-0.9434,-0.8291,-0.8135,0.0,0.0,0.0,-1.1148,-1.172,-1.2808,-1.3366,-1.2919,-1.2881,-1.2803,-1.2617,-1.2373,-1.2102,-1.1953,-1.1219,-1.0368,-0.9514,-0.8424,-0.7085,0.0,0.0,0.0,0.0,0.0,0.0,0.0,0.0,0.0,0.0,0.0,0.0,0.0,0.0,0.0,0.0,0.0,0.0,0.0,0.0,0.0,0.0,0.0,0.0,0.0,0.0,0.0,0.0,-1.2416,-1.4153,-1.596,-1.6568,-1.6708,0.0,0.0,0.0,0.0,0.0,0.0,-1.8398,-1.8706,-1.9221,-1.9969,-2.015,-2.0398,-2.0785,-2.1335,-2.1562,-2.1546,-2.2089,-2.2334,-2.2334,-2.2196,-2.2133,-2.2121,-2.1983,-2.1907,-2.1744,-1.9685,-1.8832,-1.8694,-1.73,-1.6764,-1.6825,-1.672,-1.6443,-1.6161,-1.6665,-1.6171,-1.5142,-1.4249,-1.316,-1.2021,-1.0947,0.0,0.0,0.0,0.0,-1.2764,-1.2974,-1.3351,-1.375,-1.4009,-1.4378,-1.4618,-1.4618,-1.4503,-1.3935,-1.223,-1.1639,-1.1075,-0.9873,-0.9836,0.0,-1.007,-1.1348,-1.233,-1.2531,-1.3335,-1.363,-1.2987,-1.2881,-1.2881,-1.2881,-1.2588,-1.2393,-1.2393,-1.1982,-1.1257,-1.0221,-0.9618,-0.8513,-0.6761,0.0,0.0,0.0,0.0,0.0,0.0,0.0,0.0,0.0,0.0,0.0,0.0,0.0,0.0,0.0,0.0,0.0,0.0,0.0,0.0,0.0,0.0,0.0,0.0,0.0,0.0,0.0,0.0,0.0,-1.789,-1.9492,0.0,0.0,0.0,0.0,-1.9254,-2.0764,-2.1553,-2.1062,-2.203,-2.2665,-2.27,-2.322,-2.3647,-2.4089,-2.4103,-2.4266,-2.4593,-2.4593,-2.4657,-2.4644,-2.4117,-2.3866,-2.3841,-2.3288,-2.299,-2.2865,-2.1242,-2.0592,-2.0529,-1.9836,-1.961,-1.9584,-1.9584,-1.9211,-1.8618,-1.8175,-1.7576,-1.6909,-1.6074,-1.4971,-1.3863,-1.3457,-1.333,0.0,0.0,-1.364,-1.399,-1.4038,-1.4048,-1.4048,-1.4077,-1.4663,-1.5142,-1.5142,-1.5756,-1.5917,-1.4741,-1.3669,-1.301,-1.3111,0.0,-1.275,-1.3214,-1.3291,-1.3437,-1.3782,-1.382,-1.3569,-1.2968,-1.2881,-1.2881,-1.2881,-1.2861,-1.2842,-1.2842,-1.2441,-1.1982,-1.1514,-1.0318,-0.93,-0.8502,-0.6857,0.0,0.0,0.0,0.0,0.0,0.0,0.0,0.0,0.0,0.0,0.0,0.0,0.0,0.0,0.0,0.0,0.0,0.0,0.0,0.0,0.0,0.0,0.0,0.0,0.0,0.0,0.0,0.0,-2.087,-2.2088,0.0,-2.3095,-2.357,-2.4074,-2.4586,-2.5217,-2.5654,-2.5908,-2.6262,-2.6255,-2.5758,-2.5925,-2.6075,-2.6226,-2.6239,-2.6055,-2.566,-2.566,-2.5358,-2.4808,-2.4619,-2.4519,-2.4519,-2.4305,-2.4217,-2.418,-2.359,-2.2698,-2.1669,-2.1104,-2.0891,-2.0891,-2.0891,-2.0769,-2.0526,-2.0328,-1.9861,-1.9004,-1.7383,-1.6357,-1.5628,-1.4943,-1.4932,-1.5088,-1.4814,-1.5039,-1.5312,-1.5029,-1.5289,-1.5614,-1.5614,-1.6331,-1.6934,-1.6934,-1.6946,-1.6977,-1.6954,-1.5718,-1.437,-1.3557,-1.3738,-1.3871,-1.3506,-1.4204,-1.4722,-1.4463,-1.4415,-1.4154,-1.3552,-1.3152,-1.2881,-1.2881,-1.2881,-1.2764,-1.248,-1.2268,-1.1714,-1.0695,-1.051,-0.9628,-0.7858,-0.741,-0.6379,0.0,0.0,0.0,0.0,0.0,0.0,0.0,0.0,0.0,0.0,0.0,0.0,0.0,0.0,0.0,0.0,0.0,0.0,0.0,0.0,0.0,0.0,0.0,0.0,0.0,0.0,-2.1302,-2.3785,-2.4998,-2.5932,-2.6672,-2.7361,-2.8033,-2.8762,-2.9056,-2.9291,-2.9543,-2.957,-2.9295,-2.8767,-2.8533,-2.8368,-2.8282,-2.8106,-2.764,-2.7077,-2.7077,-2.6777,-2.6219,-2.573,-2.5525,-2.5512,-2.5025,-2.482,-2.482,-2.482,-2.4167,-2.31,-2.2548,-2.2334,-2.2309,-2.2121,-2.2046,-2.202,-2.1832,-2.1166,-2.0191,-1.8847,-1.7817,-1.7048,-1.6424,-1.6517,-1.6638,-1.5998,-1.6467,-1.704,-1.6446,-1.6711,-1.717,-1.717,-1.7662,-1.8152,-1.8152,-1.8145,-1.8216,-1.8421,-1.7171,-1.5857,-1.5171,-1.5363,-1.5424,-1.483,-1.5408,-1.5688,-1.5062,-1.5005,-1.4789,-1.419,-1.3742,-1.343,-1.3238,-1.319,-1.2869,-1.2101,-1.1959,-1.1332,-1.0022,-1.0213,-0.9576,-0.7882,-0.765,-0.6719,-0.5112,0.0,0.0,0.0,0.0,0.0,0.0,0.0,0.0,0.0,0.0,0.0,0.0,0.0,0.0,0.0,0.0,0.0,0.0,0.0,0.0,0.0,0.0,0.0,-1.9669,-2.2359,-2.5008,-2.6578,-2.8329,-2.9443,-2.9523,-3.1244,-3.2085,-3.156,-3.2194,-3.2335,-3.1742,-3.1758,-3.1774,-3.1726,-3.109,-3.0637,-3.0428,-2.9812,-2.9334,-2.9121,-2.9093,-2.903,-2.9002,-2.7605,-2.6969,-2.6865,-2.546,-2.487,-2.487,-2.487,-2.487,-2.482,-2.4243,-2.4017,-2.3954,-2.3389,-2.3115,-2.3027,-2.2523,-2.151,-2.0471,-2.0471,-1.9406,-1.8099,-1.8089,-1.8099,-1.7915,-1.7053,-1.8017,-1.9145,-1.824,-1.8305,-1.8589,-1.8509,-1.8626,-1.8738,-1.8715,-1.9319,-1.966,-1.9145,-1.8142,-1.7569,-1.8109,-1.7765,-1.74,-1.74,-1.6911,0.0,-1.5744,-1.5644,-1.5365,-1.4789,-1.4698,-1.4468,-1.3862,-1.3815,-1.3226,-1.1944,-1.1531,-1.0862,-0.9757,-0.9437,-0.9089,-0.87,-0.7569,-0.6593,-0.5702,0.0,0.0,0.0,0.0,0.0,0.0,0.0,0.0,0.0,0.0,0.0,0.0,0.0,0.0,0.0,0.0,0.0,0.0,0.0,0.0,0.0,-2.3315,-2.5272,-2.4675,-2.6205,-2.8029,-2.9929,-3.1001,-3.1795,-3.2253,-3.2765,-3.3263,-3.3597,-3.4337,-3.4701,-3.4562,-3.507,-3.5147,-3.4683,-3.4473,-3.4085,-3.3506,-3.3291,-3.2602,-3.129,-3.082,-3.0277,-2.9702,-2.8839,-2.8438,-2.8375,-2.7327,-2.6882,-2.6882,-2.6257,-2.6013,-2.5912,-2.4971,-2.4594,-2.4569,-2.4418,-2.4104,-2.3678,-2.3113,-2.2621,-2.2246,-2.1692,-2.1193,-2.0699,-2.0061,-1.9871,-1.9731,-1.9193,-1.9342,-1.9621,-1.9093,-1.9435,-1.9771,-1.9394,-1.9746,-2.0035,-1.9614,-1.9643,-1.9761,-1.961,-1.9358,-1.8896,-1.8294,-1.8078,-1.7978,-1.7978,-1.7501,-1.7092,-1.6945,-1.6163,-1.5543,-1.5365,-1.4971,-1.4652,-1.4468,-1.405,-1.3481,-1.2771,-1.1617,-1.0578,-0.974,-0.9349,-0.8904,-0.8438,-0.7466,-0.6707,0.0,0.0,0.0,0.0,0.0,0.0,0.0,0.0,0.0,0.0,0.0,0.0,0.0,0.0,0.0,0.0,0.0,0.0,0.0,0.0,0.0,0.0,-2.6829,-2.8948,-2.9798,-2.9988,-3.0766,-3.256,-3.3395,-3.4069,-3.4749,-3.5098,-3.547,-3.5893,-3.6332,-3.6552,-3.6619,-3.7036,-3.7103,-3.668,-3.6388,-3.6002,-3.5584,-3.5324,-3.4512,-3.3257,-3.2855,-3.225,-3.1452,-3.0687,-3.0341,-3.0263,-2.9162,-2.8675,-2.8596,-2.7828,-2.7351,-2.6883,0.0,0.0,0.0,0.0,-2.4619,-2.4293,-2.3954,-2.369,-2.3367,-2.2923,-2.238,-2.1815,-2.1302,-2.1164,-2.098,-2.0369,-2.0715,-2.1197,-2.0926,-2.1229,-2.1681,-2.1661,-2.1809,-2.176,-2.1169,-2.1038,-2.0908,-2.066,-2.0607,0.0,-1.9458,-1.8887,-1.8639,-1.89,-1.8253,-1.7727,-1.7727,-1.6942,-1.6349,-1.6349,-1.5832,-1.5332,-1.5096,-1.4503,0.0,0.0,0.0,-1.054,-0.9428,-0.8875,0.0,0.0,0.0,0.0,0.0,-0.694,0.0,0.0,-0.583,-0.5313,0.0,0.0,0.0,0.0,0.0,0.0,0.0,0.0,0.0,0.0,0.0,0.0,0.0,0.0,0.0,0.0,-3.0118,-3.1984,-3.4513,-3.3744,-3.3372,-3.4607,-3.5419,-3.6146,-3.684,-3.7516,-3.7905,-3.7905,-3.799,-3.8024,-3.8024,-3.8108,0.0,0.0,0.0,-3.7134,-3.7032,-3.6442,-3.5768,-3.5038,-3.4903,-3.4404,-3.3712,-3.2771,-3.2347,-3.2254,-3.0833,-3.0257,-3.0216,-2.9495,-2.8719,-2.7842,-2.6422,-2.5886,-2.5942,-2.5408,-2.5153,-2.5141,-2.5026,0.0,0.0,-2.4267,-2.3406,-2.2344,-2.2283,-2.2271,-2.2061,-2.1227,-2.2163,-2.3339,-2.3263,-2.343,-2.3781,-2.4352,-2.4149,-2.3594,-2.2934,-2.274,-2.2533,-2.1917,-2.1752,-2.152,-2.0979,-1.9959,-1.9392,-1.9887,-1.9003,-1.8292,-1.8292,-1.7815,-1.7451,-1.7388,-1.6923,0.0,-1.5732,-1.5152,-1.4307,-1.311,-1.2006,-1.0745,-0.9136,-0.8514,-0.8194,-0.8072,-0.8105,-0.8192,-0.8427,-0.841,-0.8424,-0.8397,-0.6659,-0.6041,0.0,0.0,0.0,0.0,0.0,0.0,0.0,0.0,0.0,0.0,0.0,0.0,0.0,0.0,0.0,-3.1549,-3.346,-3.5228,-3.7009,-3.7009,-3.6705,-3.6366,-3.7009,-3.7533,-3.7669,-3.7821,-3.7905,-3.7905,-3.8447,-3.8785,-3.8785,-3.9343,-3.9648,-3.9648,-3.9531,-3.9175,-3.848,-3.8372,-3.7936,-3.7176,-3.5966,0.0,-3.5153,-3.3863,-3.3223,-3.3208,-3.2217,-3.1761,-3.1682,-3.0904,-3.0228,-2.9405,-2.7908,-2.7748,-2.8311,-2.7713,-2.7557,-2.7366,-2.6228,-2.6222,-2.6584,-2.5897,-2.5524,-2.5205,-2.4723,-2.4533,0.0,-2.3739,-2.4253,-2.4937,-2.4924,-2.4954,-2.4929,-2.4569,-2.4415,-2.4218,-2.3608,-2.3095,-2.2671,-2.2533,-2.2056,-2.1649,-2.1568,-2.0922,-2.0291,-1.9889,-1.9246,-1.8869,-1.8869,-1.8392,-1.7877,-1.7438,-1.7287,-1.6979,-1.6374,-1.5776,-1.5096,-1.4365,-1.2695,-1.1235,-1.0146,-1.0213,-0.9891,-0.9148,-0.9349,-0.909,-0.8427,-0.8611,-0.8724,-0.8717,-0.8331,-0.7778,0.0,0.0,0.0,0.0,0.0,0.0,0.0,0.0,0.0,0.0,0.0,-2.7123,-2.9131,0.0,-3.2673,-3.4494,-3.5891,-3.7026,-3.7804,-3.8227,-3.8176,-3.7432,-3.799,-3.8447,-3.8447,-3.8768,-3.8988,-3.8988,-3.9326,-3.9529,-3.9529,-3.9884,-4.007,-4.007,-4.007,-3.9901,-3.9489,-3.9489,-3.9086,-3.8358,-3.7576,-3.7074,-3.6684,-3.5537,-3.5034,-3.5019,-3.388,-3.3368,-3.3275,-3.2062,-3.1682,-3.1608,-3.0051,-2.9251,-2.8961,-2.872,-2.8609,-2.8505,-2.7781,-2.7653,-2.7681,-2.7285,-2.6959,-2.6647,-2.6321,-2.5991,-2.5662,-2.5422,-2.5351,-2.5453,-2.5837,-2.596,-2.5983,-2.6012,-2.6044,-2.5871,-2.5286,-2.491,-2.4442,-2.376,-2.3371,-2.284,-2.1846,-2.1424,-2.1015,-2.0396,-1.9775,-1.9409,-1.9409,-1.8945,-1.8505,-1.8242,-1.7953,-1.7564,-1.6999,-1.5855,-1.4869,-1.4283,-1.2735,-1.1576,-1.1146,-1.0923,-1.058,-1.0111,-1.0234,-0.9885,-0.9082,-0.9238,-0.9182,-0.9025,-0.9025,-0.8723,0.0,0.0,0.0,0.0,0.0,0.0,0.0,0.0,-2.6402,-2.9059,-3.0268,-3.15,-3.3685,-3.4658,-3.5605,-3.6992,-3.7719,-3.8159,-3.8311,-3.8836,-3.8988,-3.8396,-3.8853,-3.9208,-3.9208,-3.9732,-4.007,-4.007,-4.007,-4.007,-4.007,-4.007,-4.007,-4.007,-4.007,-4.007,-4.007,-4.007,-3.9782,-3.9139,-3.8962,-3.858,-3.7978,-3.7203,-3.6843,-3.6751,-3.5646,-3.5076,-3.4766,-3.3421,-3.3184,-3.3557,-3.22,-3.0922,-2.9827,-2.9588,-2.9504,-2.9442,-2.9317,-2.9058,-2.8834,-2.8652,-2.8302,-2.7841,-2.7715,-2.7365,-2.6888,-2.6651,-2.6343,-2.6101,-2.6592,-2.6721,-2.6878,-2.7458,-2.7625,-2.7475,-2.6901,-2.6677,-2.6273,-2.5211,-2.4761,-2.4056,-2.2353,-2.1874,-2.1472,-2.0746,-2.0156,-1.9798,-1.9798,-1.9434,-1.9145,-1.8983,-1.8631,-1.8141,-1.7589,-1.5984,-1.4797,-1.4189,-1.2929,-1.2159,-1.203,-1.1475,-1.1158,-1.1124,-1.1133,-1.0756,-1.0001,-1.0001,-0.9775,-0.9269,-0.9329,-0.9323,-2.276,-2.3283,-2.4503,-2.7246,-2.7267,-2.7793,0.0,0.0,-3.2237,-3.3694,-3.5027,-3.605,-3.6349,-3.7009,-3.7787,-3.8616,-3.8819,-3.9106,-3.9749,-3.9901,-3.9935,-3.9834,-3.9918,-3.9952,-3.9952,-4.002,-4.007,-4.007,-4.007,-4.007,-4.007,-4.007,-4.007,-4.007,-4.007,-4.007,-4.007,-4.007,-4.007,-3.9952,-3.9262,-3.8854,-3.8745,-3.8019,-3.769,-3.7632,-3.7494,-3.705,-3.6338,-3.5522,-3.4912,-3.4307,-3.3572,-3.3136,-3.2867,-3.1649,-3.1219,-3.1087,-3.0389,-3.06,-3.0984,-3.0288,-3.005,-2.9878,-2.9347,-2.9087,-2.8756,-2.7707,-2.7798,-2.8114,-2.7622,-2.7458,-2.7509,-2.7575,-2.7625,-2.7595,-2.752,-2.7006,-2.6542,-2.6393,-2.542,-2.4356,-2.3591,-2.2513,-2.128,-2.0093,-1.985,-1.9798,-1.9798,-1.9748,-1.9535,-1.9033,-1.897,-1.8719,-1.8166,-1.6939,-1.5951,-1.5359,-1.4227,-1.3351,-1.2822,-1.2715,-1.2541,-1.2322,-1.233,-1.1794,-1.0793,-1.0793,-1.0371,-0.9639,-0.99,-0.988,-2.6974,-2.7914,0.0,0.0,-3.155,-3.2647,-3.4722,-3.4784,-3.4947,-3.6812,-3.7677,-3.8193,-3.8616,-3.8954,-3.9276,0.0,-3.9631,-3.9732,-4.0037,-4.007,-3.9918,-3.9495,-3.9817,-4.007,-4.007,-4.007,-4.007,-4.007,-4.007,-4.007,-4.007,-4.007,-4.007,-4.007,-4.007,-4.007,-4.007,-4.007,-4.007,-4.0087,-3.9782,-3.961,-3.9558,-3.8816,-3.8206,-3.7822,-3.7822,-3.7632,-3.7247,-3.7022,-3.6676,-3.6375,-3.5673,-3.5115,-3.4515,-3.275,-3.2108,-3.1989,-3.122,-3.1219,-3.1409,-3.1087,-3.1029,-3.097,-3.0689,-3.0336,-2.9849,-2.895,-2.8664,-2.8442,-2.7754,-2.7625,-2.7625,-2.7625,-2.7625,-2.7625,-2.7625,-2.74,-2.7051,-2.6662,-2.6153,-2.5441,-2.4457,-2.3152,-2.1956,-2.1093,-2.0309,-1.9798,-1.9798,-1.9798,-1.971,-1.9497,-1.9208,-1.8883,-1.8706,-1.7605,-1.6644,-1.5973,-1.507,-1.4326,-1.3613,-1.3613,-1.3536,-1.3436,-1.3436,-1.3022,-1.2189,-1.1735,-1.1168,-1.0623,-1.0287,-1.014,-2.9454,0.0,0.0,-3.305,-3.4801,-3.6299,-3.6502,-3.6705,-3.7313,-3.8954,-3.9292,-3.9462,-3.9986,-4.007,-4.007,-4.007,-4.007,-4.007,-4.007,-4.007,-3.9884,-3.936,-3.9749,-4.007,-4.007,-4.007,-4.007,-4.007,-4.007,-4.007,-4.007,-4.007,-4.007,-4.007,-4.007,-4.007,-4.007,-4.007,-4.007,-4.007,-4.007,-4.007,-4.007,-3.9489,-3.8924,-3.843,-3.843,-3.8318,-3.8092,-3.8092,-3.7978,-3.7758,-3.7287,-3.6737,-3.597,-3.4073,-3.2976,-3.2437,-3.1973,-3.1616,-3.1482,-3.1482,-3.1482,-3.1482,-3.1482,-3.118,-3.0657,-3.0013,-2.937,-2.8712,-2.8038,-2.776,-2.7625,-2.7625,-2.7625,-2.7625,-2.7625,-2.7625,-2.749,-2.6961,-2.6722,-2.634,-2.5385,-2.3964,-2.2757,-2.2126,-2.0901,-1.9987,-1.9823,-1.9798,-1.9798,-1.9798,-1.9459,-1.9246,-1.9246,-1.8326,-1.7395,-1.648,-1.5836,-1.5039,-1.4131,-1.4077,-1.4136,-1.4307,-1.4307,-1.3984,-1.3412,-1.2606,-1.1927,-1.1406,-1.0587,-1.0354,0.0,0.0,-3.278,-3.4952,-3.6658,-3.8024,-3.8717,-3.9428,-3.9969,-4.002,-4.0054,-4.0054,-4.007,-4.007,-4.007,-4.007,-4.007,-4.007,-4.007,-4.007,-4.007,-4.0054,-4.007,-4.007,-4.007,-4.007,-4.007,-4.007,-4.007,-4.007,-4.007,-4.007,-4.007,-4.007,-4.007,-4.007,-4.007,-4.007,-4.007,-4.007,-4.007,-4.007,-4.007,-4.007,-4.007,-4.002,-4.002,-3.961,-3.8854,-3.8854,-3.8469,-3.7822,-3.779,-3.7774,-3.7578,-3.6091,-3.421,-3.2512,-3.2497,-3.2063,-3.1482,-3.1482,-3.1482,-3.1482,-3.1482,-3.1467,-3.1302,-3.0672,-3.0028,-2.94,-2.8742,-2.8068,-2.7625,-2.7625,-2.7625,-2.7625,-2.7625,-2.7625,-2.756,-2.7595,-2.7021,-2.6587,-2.6557,-2.4898,-2.3368,-2.2746,-2.155,-2.0439,-1.9874,-1.9798,-1.9798,-1.9798,-1.9786,-1.9773,-1.9773,-1.9246,-1.8371,-1.7051,-1.6445,-1.5566,-1.4184,-1.4077,-1.4336,-1.4756,-1.4766,-1.4563,-1.4168,-1.333,-1.2549,-1.1757,-1.0975,-1.0618,0.0,0.0,-3.569,-3.7432,-3.8599,-3.9411,-3.9648,-3.9901,-4.007,-4.007,-3.9698,-3.936,-3.936,-3.8954,-3.8802,-3.9276,-3.936,-3.9529,-4.0003,-4.007,-3.9901,-3.9411,-3.9783,-3.9884,-3.9411,-3.9783,-4.007,-4.007,-4.007,-4.007,-4.007,-4.007,-4.007,-4.007,-4.007,-4.007,-4.007,-4.007,-4.007,-4.007,-4.007,-4.007,-4.007,-4.007,-4.007,-4.007,-4.007,-3.9952,-3.9731,-3.9731,-3.9558,-3.9332,-3.9332,-3.8995,-3.8492,-3.7954,-3.6757,-3.506,-3.3138,-3.2362,-3.2108,-3.1616,-3.1482,-3.1482,-3.1482,-3.1482,-3.139,-3.0702,-3.0357,-2.9953,-2.8876,-2.8427,-2.8143,-2.7679,-2.7625,-2.7625,-2.7625,-2.7625,-2.7625,-2.7625,-2.7445,-2.7245,-2.7245,-2.5566,-2.3699,-2.2113,-2.087,-2.0024,-1.9823,-1.9798,-1.9798,-1.9798,-1.9798,-1.9798,-1.9798,-1.9635,-1.9113,-1.819,-1.7497,-1.671,-1.5756,-1.5196,-1.5049,-1.5195,-1.5205,-1.5148,-1.4991,-1.4213,-1.3364,-1.2573,-1.1779,-1.1213,-3.5047,-3.64,-3.7195,-3.8937,-3.9732,-4.0171,-4.0319,-4.0254,-4.0018,-3.9685,-3.8877,-3.8125,-3.7838,-3.7178,-3.711,-3.8396,-3.8616,-3.8954,-3.9935,-4.007,-3.9901,-3.9445,-3.9783,-3.9884,0.0,0.0,0.0,-4.007,-4.007,-4.007,-4.007,-4.007,-4.007,-4.007,-4.007,-4.007,-4.007,-4.007,-4.007,-4.007,-4.007,-4.007,-4.007,-4.007,-4.007,-4.007,-4.007,-4.007,-4.007,-4.007,-4.007,-4.007,-4.007,-3.9782,-3.9315,-3.9032,-3.8341,-3.715,-3.4519,-3.3332,-3.2819,-3.2077,-3.1676,-3.1482,-3.1482,-3.1482,-3.1377,-3.1001,-3.0687,-3.0313,-2.949,-2.9116,-2.8786,-2.8098,-2.7934,-2.7874,-2.7619,-2.7625,-2.7625,-2.7625,-2.7625,-2.7625,-2.7625,-2.5882,-2.3946,-2.2411,-2.1142,-2.0338,-2.0137,-1.9924,-1.9798,-1.9798,-1.9798,-1.9798,-1.9798,-1.9798,-1.9371,-1.8394,-1.7841,-1.7135,-1.6151,-1.5642,-1.541,-1.541,-1.541,-1.541,-1.541,-1.4569,-1.3795,-1.3009,-1.2266,-1.1617,-3.6276,-3.6937,-3.7496,-3.9596,-4.0121,-4.0269,-4.0728,-4.0412,-3.9742,-3.8718,-3.7466,-3.6299,-3.5487,0.0,-3.5115,-3.7364,-3.7838,-3.8413,-3.9868,-4.007,-4.007,0.0,0.0,0.0,0.0,0.0,0.0,-4.007,-4.007,-4.007,-4.007,-4.007,-4.007,-4.007,-4.007,-4.007,-4.007,-4.007,-4.007,-4.007,-4.007,-4.007,-4.007,-4.007,-4.007,-4.007,-4.007,-4.007,-4.007,-4.007,-4.007,-4.007,-4.007,-4.007,-4.002,-3.9246,-3.8962,-3.8646,-3.649,-3.4887,-3.3671,-3.2808,-3.2093,-3.1511,-3.1482,-3.1482,-3.1482,-3.1482,-3.1061,-3.0552,-3.0507,-3.0073,-2.946,-2.8771,-2.8607,-2.8412,-2.7724,-2.7625,-2.7625,-2.7625,-2.7625,-2.7575,-2.7509,-2.5859,-2.4285,-2.3477,-2.2352,-2.133,-2.0832,-2.0213,-1.9849,-1.9849,-1.9823,-1.9798,-1.9798,-1.9798,-1.9202,-1.7743,-1.7633,-1.6968,-1.5526,-1.541,-1.541,-1.541,-1.541,-1.541,-1.541,-1.4628,-1.3855,-1.2981,-1.249,-1.1826,-3.7905,-3.8726,-3.9508,-4.0487,-4.0703,-4.0595,-4.0164,-3.9548,-3.8384,-3.6034,-3.4432,-3.3034,-3.1749,0.0,0.0,-3.5081,-3.6789,0.0,-3.9868,-4.007,0.0,-4.007,0.0,-4.007,-4.007,-4.007,0.0,-4.007,-4.007,-4.007,-4.007,-4.007,-4.007,-4.007,-4.007,-4.007,-4.007,-4.007,-4.007,-4.007,-4.007,-4.007,-4.007,-4.007,-4.007,-4.007,-4.007,-4.007,-4.007,-4.007,-4.007,-4.007,-4.007,-4.007,-4.0087,-3.985,-3.9782,-3.9645,-3.8461,-3.674,-3.4809,-3.305,-3.2392,-3.2168,-3.1616,-3.1482,-3.1482,-3.1482,-3.1347,-3.115,-3.0642,-3.0387,-2.9983,-2.8861,-2.8607,-2.8412,-2.7724,-2.7625,-2.7625,-2.7625,-2.7625,-2.724,-2.6162,-2.5534,-2.4706,-2.3372,-2.2564,-2.1895,-2.1355,-2.079,-2.0451,-2.0451,-2.0062,-1.9798,-1.9798,-1.9798,-1.9423,-1.8501,-1.7895,-1.7191,-1.6265,-1.569,-1.541,-1.541,-1.541,-1.541,-1.541,-1.5167,-1.4478,-1.3279,-1.3179,-1.2593,-3.9781,-4.0443,-4.0891,-4.1223,-4.1296,-4.0885,-3.9306,-3.8321,-3.6769,-3.336,-3.1397,0.0,-2.8822,-2.982,0.0,0.0,0.0,0.0,-3.9394,-3.9884,-4.007,0.0,-4.0375,0.0,-4.0578,-4.1137,-4.1375,-4.1103,-4.0443,-4.007,-4.007,-4.007,-4.007,-4.007,-4.007,-4.007,-4.007,-4.007,-4.007,-4.007,-4.007,-4.007,-4.007,-4.007,-4.007,-4.007,-4.007,-4.007,-4.007,-4.007,-4.007,-4.007,-4.007,-4.007,-4.007,-4.007,-4.007,-3.9952,-3.9193,-3.8082,-3.6657,-3.426,-3.3034,-3.2392,-3.1676,-3.1482,-3.1482,-3.1482,-3.1482,-3.1377,-3.1061,-3.0956,-3.0702,-2.9684,-2.922,-2.8846,-2.8173,-2.7784,-2.7625,-2.7625,-2.7625,-2.7357,-2.6481,-2.6108,-2.5508,-2.4266,-2.3612,-2.2955,-2.2304,-2.1518,-2.0941,-2.0743,-2.0376,-2.0075,-1.9823,-1.9798,-1.9371,-1.8274,-1.7841,-1.7135,-1.6036,-1.5642,-1.541,-1.541,-1.541,-1.541,-1.541,-1.5605,-1.4888,-1.3418,-1.3729,-1.3157,-4.1564,-4.1853,-4.181,-4.1895,-4.1806,-4.1042,-3.8277,-3.6874,-3.4941,-3.0617,0.0,-2.7114,-2.6268,-2.752,-2.9468,-3.1805,0.0,-3.7259,-3.9033,-3.9714,-4.0121,-4.0204,-4.0781,-4.1256,-4.1342,-4.253,-4.3061,-4.2481,-4.1155,-4.0324,-4.0223,-4.0223,-4.0172,-4.007,-4.0154,-4.0204,-4.0204,-4.0204,-4.0204,-4.0204,-4.0204,-4.0171,-4.007,-4.007,-4.007,-4.007,-4.007,-4.007,-4.007,-4.007,-4.007,-4.007,-4.007,-4.007,-4.007,-4.007,-4.007,-4.002,-3.9315,-3.8962,-3.8444,-3.5628,-3.3839,-3.2616,-3.1749,-3.1482,-3.1482,-3.1482,-3.1482,-3.1482,-3.1482,-3.1482,-3.1302,-3.0672,-3.0028,-2.94,-2.8742,-2.8053,-2.7625,-2.7625,-2.7625,-2.7575,-2.7458,-2.6826,-2.6122,-2.5342,-2.4624,-2.3884,-2.3198,-2.2234,-2.1418,-2.0941,-2.0869,-2.0592,-1.9962,-1.9911,-1.9287,-1.7688,-1.7578,-1.6968,-1.5468,-1.5469,-1.5498,-1.5498,-1.5557,-1.5586,-1.5586,-1.5967,-1.529,-1.3574,-1.4195,-1.3615,-4.2487,-4.2162,-4.1937,-4.244,-4.1998,-4.0687,-3.759,-3.5558,0.0,0.0,0.0,-2.4644,-2.3308,-2.527,0.0,-3.0903,0.0,0.0,0.0,0.0,-4.0237,0.0,0.0,0.0,0.0,0.0,0.0,-4.316,-4.2331,-4.1604,-4.1052,-4.1018,-4.073,-4.0104,-4.0528,-4.078,-4.078,-4.078,-4.078,-4.078,-4.078,-4.0528,-4.007,-4.007,-4.007,-4.007,-4.007,-4.007,-4.007,-4.007,-4.007,-4.007,-4.007,-4.007,-4.007,-4.007,-4.007,-4.007,-3.9952,-3.9437,-3.8444,-3.5628,-3.4496,-3.3956,-3.2058,-3.1482,-3.1482,-3.1482,-3.1482,-3.1482,-3.1482,-3.1482,-3.1302,-3.0672,-3.0028,-2.94,-2.8742,-2.8053,-2.7625,-2.7625,-2.7625,-2.7408,-2.6774,-2.6054,-2.5342,-2.4624,-2.3826,-2.3258,-2.3138,-2.2573,-2.2133,-2.2033,-2.1619,-2.1129,-2.0618,-2.0514,-1.9702,-1.771,-1.7578,-1.6968,-1.5468,-1.5762,-1.5947,-1.5947,-1.6318,-1.6441,-1.6441,-1.6582,-1.5799,-1.4301,-1.4424,-1.3668,-4.2978,-4.2921,-4.2734,-4.305,-4.2159,-4.0159,-3.5946,0.0,0.0,0.0,0.0,-2.3139,-2.2446,0.0,0.0,0.0,0.0,0.0,0.0,0.0,0.0,0.0,0.0,0.0,0.0,-4.3875,-4.4634,-4.4009,-4.4195,-4.3529,-4.1763,-4.1268,-4.0874,-4.0546,-4.078,-4.0903,-4.0903,-4.1223,-4.1223,-4.0903,-4.0903,-4.0607,-4.007,-4.007,-4.007,-4.007,-4.007,-4.007,-4.007,-4.007,-4.007,-4.007,-4.007,-4.007,-4.007,-4.007,-4.007,-4.007,-4.007,-3.985,-3.9135,-3.6632,-3.5268,-3.4384,-3.2645,-3.1796,-3.1482,-3.1482,-3.1482,-3.1482,-3.1482,-3.1482,-3.1392,-3.112,-3.0298,-2.931,-2.8293,-2.785,-2.7625,-2.7625,-2.7306,-2.7034,-2.7086,-2.6162,-2.5287,-2.4951,-2.4221,-2.3603,-2.3125,-2.2912,-2.2636,-2.2347,-2.2071,-2.1694,-2.1142,-2.1091,-2.0336,-1.8474,-1.8395,-1.7712,-1.6154,-1.6299,-1.6406,-1.6406,-1.6621,-1.6665,-1.6665,-1.6963,-1.6149,-1.4481,-1.4739,-1.3938,-4.3277,-4.3497,-4.3497,-4.3497,-4.2158,-3.9543,-3.4539,-3.1773,0.0,0.0,-2.249,-2.231,-2.231,0.0,0.0,0.0,0.0,0.0,0.0,0.0,0.0,0.0,0.0,0.0,0.0,-4.4956,0.0,-4.5008,-4.5397,-4.4686,-4.2405,-4.166,-4.1223,-4.1087,-4.1087,-4.1087,-4.1087,-4.1446,-4.1358,-4.0903,-4.0903,-4.0607,-4.007,-4.007,-4.007,-4.007,-4.007,-4.007,-4.007,-4.007,-4.007,-4.007,-4.007,-4.007,-4.007,-4.007,-4.007,-4.007,-4.007,-3.9969,-3.9514,-3.7485,-3.5948,-3.4638,-3.306,-3.2064,-3.1482,-3.1482,-3.1482,-3.1482,-3.1482,-3.1482,-3.1437,-3.1287,-3.0432,-2.925,-2.8053,-2.773,-2.7625,-2.7625,-2.6982,-2.6669,-2.7255,-2.6162,-2.5175,-2.5175,-2.4509,-2.3826,-2.3198,-2.3078,-2.2915,-2.2535,-2.2485,-2.2259,-2.1707,-2.1656,-2.0958,-1.9242,-1.9112,-1.8401,-1.6792,-1.6826,-1.6875,-1.6875,-1.6963,-1.7002,-1.7002,-1.7353,-1.6606,-1.494,-1.5093,-1.4235,-4.3277,-4.3497,-4.3497,-4.3497,-4.1735,-3.8847,-3.4411,0.0,0.0,-2.372,-2.2535,-2.231,-2.231,-2.3004,0.0,0.0,0.0,0.0,0.0,0.0,0.0,0.0,0.0,0.0,0.0,-4.5464,-4.6287,-4.6058,-4.479,-4.365,-4.2873,-4.2632,-4.2302,-4.1707,-4.1725,-4.1725,-4.1725,-4.1223,-4.0949,-4.0903,-4.0903,-4.0607,-4.007,-4.007,-4.007,-4.007,-4.007,-4.007,-4.007,-4.007,-4.007,-4.007,-4.007,-4.007,-4.007,-4.007,-4.007,-4.007,-4.007,-3.9648,-3.8839,-3.7269,-3.6303,-3.5313,-3.3209,-3.2064,-3.1482,-3.1482,-3.1482,-3.1482,-3.1482,-3.1482,-3.1375,-3.0746,-3.0073,-2.9385,-2.8667,-2.8008,-2.7625,-2.7625,-2.6982,-2.651,-2.6616,-2.5398,-2.4408,-2.4408,-2.3708,-2.3185,-2.3138,-2.3078,-2.3053,-2.3002,-2.3002,-2.2836,-2.2284,-2.2234,-2.1348,-1.9253,-1.9112,-1.8401,-1.6792,-1.7109,-1.7324,-1.7324,-1.7695,-1.7891,-1.7891,-1.793,-1.7375,-1.6374,-1.557,-1.4593,-4.2334,-4.3277,-4.3629,-4.2941,-4.0965,-3.7992,-3.3412,0.0,-2.7412,-2.3357,-2.2377,-2.231,-2.231,-2.2547,-2.3274,0.0,-2.5676,-2.7554,0.0,0.0,0.0,0.0,0.0,0.0,0.0,0.0,-4.5071,-4.529,-4.4012,-4.3108,-4.2785,-4.2739,-4.2577,-4.2342,-4.2342,-4.2342,-4.2342,-4.2121,-4.181,-4.1446,-4.1087,-4.0607,-4.007,-4.007,-4.007,-4.007,-4.007,-4.007,-4.007,-4.007,-4.007,-4.007,-4.007,-4.007,-4.007,-4.007,-4.007,-4.007,-4.007,-3.9597,-3.8754,-3.7252,-3.6026,-3.4825,-3.3138,-3.2064,-3.1482,-3.1482,-3.1482,-3.1482,-3.1482,-3.1482,-3.1302,-3.0672,-3.0313,-2.9864,-2.8816,-2.8382,-2.7965,-2.7122,-2.6336,-2.5837,-2.5837,-2.4553,-2.3767,-2.4234,-2.3603,-2.3078,-2.3078,-2.3078,-2.3078,-2.3078,-2.3078,-2.2977,-2.2824,-2.2811,-2.2211,-2.0895,-2.0307,-1.9506,-1.8322,-1.7922,-1.7764,-1.7764,-1.793,-1.8008,-1.8008,-1.8008,-1.7501,-1.6567,-1.5658,-1.4665,-4.0657,-4.1981,-4.2656,-4.2077,-3.9873,-3.676,0.0,0.0,-2.6581,-2.3022,-2.231,-2.231,-2.231,-2.231,-2.2547,0.0,-2.365,-2.5133,-2.8766,0.0,0.0,0.0,0.0,-4.0193,0.0,-4.3772,-4.4181,-4.4455,-4.3297,-4.259,-4.2691,-4.2711,-4.2711,-4.2711,-4.2711,-4.2616,-4.244,-4.2262,-4.1853,-4.1286,-4.0891,-4.0449,-4.007,-4.007,-4.007,-4.007,-4.007,-4.007,-4.007,-4.007,-4.007,-4.007,-4.007,-4.007,-4.007,-4.007,-4.007,-4.007,-4.007,-3.9462,-3.8419,-3.6966,-3.5701,-3.4342,-3.278,-3.191,-3.1482,-3.1482,-3.1482,-3.1482,-3.1482,-3.1482,-3.1347,-3.0926,-3.0657,-3.0208,-2.9131,-2.8568,-2.7948,-2.6746,-2.5728,-2.5063,-2.5063,-2.3989,-2.3305,-2.3884,-2.3484,-2.3078,-2.3078,-2.3078,-2.3078,-2.3078,-2.3078,-2.3078,-2.3078,-2.3078,-2.2763,-2.1939,-2.1302,-2.0462,-1.9365,-1.8721,-1.8269,-1.8008,-1.8008,-1.8008,-1.8008,-1.8008,-1.7647,-1.6991,-1.6079,-1.495,-3.8065,-3.9331,-4.012,-4.0928,-3.8382,-3.5015,0.0,-2.8918,-2.5553,-2.2852,-2.231,-2.231,-2.231,-2.231,-2.2547,-2.3274,-2.4293,-2.651,-3.0937,0.0,0.0,0.0,0.0,-3.9873,-4.1301,-4.2928,-4.3906,-4.3906,-4.2608,-4.208,-4.2655,-4.2711,-4.2711,-4.2711,-4.2711,-4.2422,-4.181,-4.1223,-4.0655,-4.0121,-4.0121,-4.0138,-4.007,-4.007,-4.007,-4.007,-4.007,-4.007,-4.007,-4.007,-4.007,-4.007,-4.007,-4.007,-4.007,-4.007,-4.007,-4.007,-4.007,-3.914,-3.7696,-3.6283,-3.524,-3.4235,-3.2145,-3.1539,-3.1482,-3.1482,-3.1482,-3.1482,-3.1482,-3.1482,-3.1482,-3.1467,-3.1001,-3.0328,-2.9699,-2.8473,-2.7313,-2.6625,-2.5342,-2.4292,-2.4292,-2.3662,-2.3078,-2.3138,-2.3138,-2.3078,-2.3078,-2.3078,-2.3078,-2.3078,-2.3078,-2.3078,-2.3078,-2.3078,-2.2763,-2.1939,-2.1877,-2.1112,-1.9365,-1.9299,-1.8844,-1.8008,-1.8008,-1.8008,-1.8008,-1.8008,-1.8008,-1.794,-1.7001,-1.5579,-3.4089,-3.5328,-3.6003,-3.5423,-3.3842,-3.1697,-2.8961,-2.6884,-2.4941,-2.2762,-2.231,-2.2377,-2.2588,-2.2443,-2.3033,-2.5355,0.0,0.0,0.0,0.0,0.0,0.0,0.0,-4.2811,0.0,-4.288,-4.3233,-4.3108,-4.2305,-4.1895,-4.2062,-4.2828,-4.325,-4.325,-4.325,-4.316,-4.2977,-4.2003,-4.1446,-4.1241,-4.0466,-4.007,-4.007,-4.007,-4.007,-4.007,-4.007,-4.007,-4.007,-4.007,-4.007,-4.007,-4.007,-4.007,-4.007,-4.007,-4.007,-4.007,-4.007,-3.9123,-3.7728,-3.6818,-3.5646,-3.4333,-3.2734,-3.2272,-3.2176,-3.164,-3.1482,-3.1482,-3.1482,-3.1482,-3.1482,-3.1482,-3.136,-3.0711,-2.9122,-2.8434,-2.7511,-2.5423,-2.4624,-2.4118,-2.359,-2.3245,-2.3078,-2.3078,-2.3078,-2.3078,-2.3078,-2.3078,-2.3078,-2.3078,-2.3078,-2.3078,-2.3078,-2.3078,-2.3005,-2.2763,-2.2187,-2.1616,-2.1101,-1.9944,-1.9177,-1.8911,-1.8269,-1.8008,-1.8008,-1.8008,-1.7647,-1.7001,-1.6079,-1.495,0.0,-3.1782,-3.272,-3.2268,-3.1045,-2.9413,-2.7264,-2.5728,-2.4299,-2.2757,-2.2436,-2.2554,-2.29,-2.279,-2.3267,-2.5144,-2.5657,0.0,0.0,0.0,0.0,0.0,0.0,0.0,0.0,-4.2771,-4.2821,-4.2691,-4.2121,-4.1895,-4.2121,-4.279,-4.3286,-4.3479,-4.3497,-4.341,-4.3214,-4.2266,-4.1664,-4.1446,-4.0563,-4.007,-4.007,-4.007,-4.007,-4.007,-4.007,-4.007,0.0,-4.007,-4.007,-4.007,-4.007,-4.007,-4.007,-4.007,-4.007,-4.007,-4.007,-3.8941,-3.7385,-3.6631,-3.5085,-3.3323,-3.2788,-3.2437,-3.2064,-3.164,-3.1482,-3.1482,-3.1482,-3.1482,-3.1482,-3.1482,-3.1482,-3.0981,-2.9117,-2.834,-2.734,-2.5015,-2.4204,-2.3708,-2.3198,-2.3078,-2.3078,-2.3078,-2.3078,-2.3078,-2.3078,-2.3078,-2.3078,-2.3078,-2.3078,-2.3078,-2.3078,-2.3078,-2.3078,-2.3078,-2.2628,-2.2199,-2.1877,-2.0526,-1.9628,-1.9309,-1.8462,-1.8008,-1.8008,-1.8008,-1.7716,-1.7139,-1.6149,-1.5234,0.0,-2.8411,-2.9787,-3.0522,-2.9289,-2.7623,-2.6621,-2.4963,0.0,-2.2738,-2.2626,-2.2788,-2.3283,-2.3277,-2.3319,-2.3726,0.0,0.0,0.0,0.0,0.0,0.0,-4.0818,0.0,-4.2304,-4.2596,-4.2711,-4.2711,-4.2162,-4.2121,-4.2655,-4.275,-4.2976,-4.3479,-4.3497,-4.325,-4.275,-4.2121,-4.1534,-4.0949,-4.0368,-4.007,-4.007,-4.007,-4.007,-4.007,-4.007,-4.007,-4.007,-4.007,-4.007,-4.007,-4.007,-4.007,-4.007,-4.007,-4.007,-4.007,-4.007,-3.8639,-3.6666,-3.5873,-3.3802,-3.1697,-3.2382,-3.2064,-3.1482,-3.1482,-3.1482,-3.1482,-3.1482,-3.1482,-3.1482,-3.1482,-3.1482,-3.1099,-2.9638,-2.8349,-2.6968,-2.5495,-2.4133,-2.3236,-2.3198,-2.3138,-2.3078,-2.3078,-2.3078,-2.3078,-2.3078,-2.3078,-2.3078,-2.3078,-2.3078,-2.3078,-2.3078,-2.3078,-2.3078,-2.3078,-2.3078,-2.2763,-2.2002,-2.1175,-2.0268,-1.9431,-1.8462,-1.8008,-1.8008,-1.8008,-1.8008,-1.8008,-1.7097,-1.6184,-2.1969,0.0,-2.3804,-2.4025,-2.3519,-2.2851,0.0,-2.1715,0.0,0.0,0.0,-2.2516,-2.464,-2.401,-2.4593,0.0,0.0,0.0,0.0,0.0,0.0,0.0,-4.2818,-4.3002,-4.3185,-4.2905,-4.2711,-4.2711,-4.2577,-4.2559,-4.2711,-4.3105,-4.3375,-4.3497,-4.3497,-4.3444,-4.3321,-4.2306,-4.1707,-4.1578,-4.0594,-4.007,-4.007,-4.007,-4.007,-4.007,-4.007,-4.007,-4.007,-4.007,-4.007,-4.007,-4.007,-4.007,-4.007,-4.007,-4.007,-4.007,-4.007,-3.8639,-3.6501,-3.4675,-3.3291,-3.2382,-3.2547,-3.2064,-3.1482,-3.1482,-3.1482,-3.1482,-3.1482,-3.1482,-3.1482,-3.1482,-3.1482,-3.1099,-2.9668,-2.9101,-2.8381,-2.6445,-2.536,-2.4543,-2.408,-2.3484,-2.3078,-2.3078,-2.3078,-2.3078,-2.3078,-2.3078,-2.3078,-2.3078,-2.3078,-2.3078,-2.3078,-2.3078,-2.3078,-2.3078,-2.3078,-2.3005,-2.2823,-2.2002,-2.1175,-2.0333,-1.8787,-1.8008,-1.8008,-1.8008,-1.8008,-1.8018,-1.7333,-1.6965,-1.995,-2.1382,-2.2868,-2.2682,-2.2898,-2.3032,-2.2406,0.0,0.0,0.0,0.0,0.0,-2.4215,0.0,0.0,0.0,0.0,0.0,0.0,0.0,0.0,-4.3296,-4.3497,-4.3497,-4.3497,-4.325,-4.3069,-4.3069,-4.3069,-4.3069,-4.3069,-4.3321,-4.3497,-4.3497,-4.325,-4.3124,-4.3124,-4.2501,-4.1937,-4.1402,-4.075,-4.0319,-4.007,-4.007,-4.007,-4.007,-4.007,-4.007,-4.007,-4.007,-4.007,-4.007,-4.007,-4.007,-4.007,-4.007,-4.007,-4.007,-4.007,-3.847,-3.5918,-3.3464,-3.2407,-3.212,-3.212,-3.1796,-3.1482,-3.1482,-3.1482,-3.1482,-3.1482,-3.1482,-3.1482,-3.1482,-3.1482,-3.1174,-3.006,-2.9623,-2.8957,-2.7485,-2.664,-2.5964,-2.5337,-2.4603,-2.3991,-2.3688,-2.3365,-2.3078,-2.3078,-2.3078,-2.3078,-2.3078,-2.3078,-2.3078,-2.3078,-2.3078,-2.3078,-2.3078,-2.3078,-2.3078,-2.3078,-2.2322,-2.1302,-2.0009,-1.8654,-1.8008,-1.8008,-1.8008,-1.8105,-1.8301,-1.7953,-1.7722,-1.9451,-2.1771,-2.3945,-2.3283,-2.4044,-2.4675,0.0,0.0,0.0,0.0,0.0,0.0,0.0,0.0,0.0,0.0,0.0,0.0,0.0,0.0,0.0,-4.3387,-4.3497,-4.3497,-4.3497,-4.3497,-4.3497,-4.3497,-4.3497,-4.3497,-4.3497,-4.3497,-4.3444,-4.3375,-4.2939,-4.2616,-4.244,-4.244,-4.1895,-4.0903,-4.0827,-4.0528,-4.007,-4.007,-4.007,-4.007,-4.007,-4.007,-4.007,-4.007,-4.007,-4.007,-4.007,-4.007,-4.007,-4.007,-4.007,-4.0037,-3.9699,-3.793,-3.5364,-3.2558,-3.1697,-3.164,-3.1524,-3.1482,-3.1482,-3.1482,-3.1482,-3.1482,-3.1482,-3.1482,-3.1482,-3.1482,-3.1482,-3.1278,-3.0644,-3.0074,-2.9463,-2.8711,-2.8022,-2.7404,-2.6818,-2.5873,-2.5011,-2.4477,-2.3641,-2.3078,-2.3078,-2.3078,-2.3078,-2.3078,-2.3078,-2.3078,-2.3078,-2.3078,-2.3078,-2.3078,-2.3078,-2.3078,-2.3078,-2.2187,-2.0974,-1.9562,-1.8529,-1.8008,-1.8008,-1.8008,-1.8223,-1.8562,-1.863,-1.8524,-2.0144,-2.2103,-2.3247,-2.1425,-2.1933,-2.2596,0.0,0.0,0.0,0.0,0.0,0.0,0.0,0.0,0.0,0.0,0.0,-3.848,0.0,0.0,-4.2598,-4.3387,-4.3497,-4.3497,-4.3497,-4.3497,-4.3497,-4.3497,-4.3497,-4.3497,-4.3497,-4.3497,-4.3286,-4.2826,-4.275,-4.2203,-4.1178,-4.1178,-4.1087,-4.0903,-4.0449,-4.0154,-4.007,-4.007,-4.007,-4.007,-4.007,-4.007,-4.007,-4.007,-4.007,-4.007,-4.007,-4.007,-4.007,-4.007,-4.007,-3.9834,-3.7952,-3.6587,-3.5344,-3.3146,-3.2437,-3.2327,-3.1697,-3.1482,-3.1482,-3.1482,-3.1482,-3.1482,-3.1482,-3.1482,-3.1482,-3.1482,-3.1482,-3.1467,-3.1351,-3.1261,-3.0951,-3.0258,-2.9565,-2.8872,-2.8197,-2.6469,-2.519,-2.511,-2.3944,-2.3078,-2.3078,-2.3078,-2.3078,-2.3078,-2.3078,-2.3078,-2.3078,-2.3078,-2.3078,-2.3078,-2.3078,-2.3078,-2.3078,-2.1604,-2.0655,-2.0398,-1.8854,-1.8008,-1.8008,-1.8008,-1.8223,-1.8582,-1.9014,-1.9341,-1.8789,-2.0548,-2.1918,-2.1424,-2.3502,-2.535,0.0,0.0,0.0,0.0,0.0,0.0,0.0,0.0,0.0,0.0,0.0,-4.0239,-4.1632,-4.2214,-4.2759,-4.3408,-4.3497,-4.3497,-4.3497,-4.3497,-4.3497,-4.3497,-4.3497,-4.3497,-4.3497,-4.3497,-4.3375,-4.3142,-4.2541,-4.1937,-4.1402,-4.0797,-4.0449,-4.0449,-4.048,-4.0368,-4.007,-4.007,-4.007,-4.007,-4.007,-4.007,-4.007,-4.007,-4.007,-4.007,-4.007,-4.007,-4.007,-4.007,-3.9834,-3.9277,-3.7435,-3.6069,-3.4907,-3.3168,-3.2327,-3.1951,-3.1582,-3.1482,-3.1482,-3.1482,-3.1482,-3.1482,-3.1482,-3.1482,-3.1482,-3.1482,-3.1482,-3.1482,-3.1482,-3.1482,-3.1377,-3.112,-3.0745,-3.0247,-2.9245,-2.7512,-2.6108,-2.5439,-2.4027,-2.3078,-2.3078,-2.3078,-2.3078,-2.3078,-2.3078,-2.3078,-2.3078,-2.3078,-2.3078,-2.3078,-2.3078,-2.3078,-2.3078,-2.1479,-2.059,-2.059,-1.8921,-1.8008,-1.8008,-1.8242,-1.8564,-1.8994,-1.9424,-1.9853,-1.7967,-1.9525,-2.0995,0.0,0.0,0.0,0.0,0.0,0.0,0.0,0.0,0.0,0.0,0.0,0.0,0.0,-3.9382,-4.1189,-4.1471,-4.2316,-4.2939,-4.3069,-4.3356,-4.3444,-4.3321,-4.341,-4.3497,-4.3497,-4.3497,-4.3497,-4.3497,-4.3497,-4.3444,-4.3339,-4.2306,-4.1707,-4.1578,-4.0594,-4.007,-4.0121,-4.0546,-4.0497,-4.007,-4.007,-4.007,-4.007,-4.007,-4.007,-4.007,-4.007,-4.007,-4.007,-4.007,-4.007,-4.0054,-3.9884,-3.936,-3.8567,-3.7236,-3.5874,-3.4458,-3.3212,-3.2382,-3.1739,-3.1524,-3.1482,-3.1482,-3.1482,-3.1482,-3.1482,-3.1482,-3.1482,-3.1482,-3.1482,-3.1482,-3.1482,-3.1482,-3.1482,-3.1482,-3.1482,-3.1482,-3.1108,-2.9763,-2.8269,-2.6865,-2.5531,-2.4067,-2.3078,-2.3078,-2.3078,-2.3078,-2.3078,-2.3078,-2.3188,-2.3326,-2.3339,-2.3339,-2.3339,-2.3153,-2.3078,-2.3078,-2.1479,-2.059,-2.059,-1.8946,-1.8154,-1.8154,-1.8584,-1.9014,-1.9443,-1.9766,-2.0146,-1.9338,-2.0547,-2.1264,-2.289,0.0,0.0,0.0,0.0,0.0,0.0,0.0,0.0,0.0,0.0,0.0,0.0,-4.1117,-4.235,-4.1848,-4.2736,-4.3069,-4.2044,-4.2865,-4.3286,-4.2826,-4.3214,-4.3497,-4.3497,-4.3497,-4.3497,-4.3497,-4.3497,-4.325,-4.2788,-4.2103,-4.1534,-4.0949,-4.0368,-4.007,-4.007,-4.0121,-4.0121,-4.007,-4.007,-4.007,-4.007,-4.007,-4.007,-4.007,-4.007,-4.007,-4.007,-4.007,-4.007,-4.0003,-3.9326,-3.8616,-3.7889,-3.7064,-3.5816,-3.4496,-3.3751,-3.3093,-3.2382,-3.1697,-3.1482,-3.1482,-3.1482,-3.1482,-3.1482,-3.1482,-3.1482,-3.1482,-3.1482,-3.1482,-3.1482,-3.1482,-3.1482,-3.1482,-3.1482,-3.1482,-3.1055,-2.9639,-2.825,-2.6813,-2.5421,-2.403,-2.3078,-2.3078,-2.3078,-2.3078,-2.3078,-2.3078,-2.3351,-2.3891,-2.3941,-2.3941,-2.3941,-2.3427,-2.3078,-2.3078,-2.1479,-2.059,-2.059,-1.9254,-1.8594,-1.8594,-1.9023,-1.9453,-1.9873,-1.9902,-2.0146,-1.6995,-1.9022,-2.0887,-2.2343,0.0,0.0,0.0,0.0,0.0,0.0,0.0,0.0,0.0,0.0,0.0,-3.8343,-3.9985,-4.1122,-4.1223,-4.1603,-4.186,-4.181,-4.2501,-4.2939,-4.2711,-4.3178,-4.3497,-4.3497,-4.3497,-4.3497,-4.3497,-4.3497,-4.341,-4.3214,-4.2284,-4.1664,-4.1446,-4.0546,-4.007,-4.007,-4.007,-4.007,-4.007,-4.007,-4.007,-4.007,-4.007,-4.007,-4.007,-4.007,-4.007,-4.007,-4.007,-3.98,-3.9377,-3.9089,-3.8227,-3.7161,-3.6874,-3.5542,-3.3937,-3.3684,-3.2826,-3.1838,-3.1582,-3.1482,-3.1482,-3.1482,-3.1482,-3.1482,-3.1482,-3.1482,-3.1482,-3.1482,-3.1482,-3.1482,-3.1482,-3.1482,-3.1351,-3.0837,-3.0777,-3.019,-2.8361,-2.7212,-2.6149,-2.4845,-2.3777,-2.3078,-2.3078,-2.3078,-2.3078,-2.3078,-2.3078,-2.3364,-2.3954,-2.4004,-2.4142,-2.4494,-2.4305,-2.4029,-2.369,-2.2034,-2.1184,-2.1487,-1.9561,-1.8769,-1.9043,-1.9463,-1.9756,-1.9922,-2.0195,-2.041,-1.6213,-1.8474,-2.0717,0.0,0.0,0.0,0.0,0.0,0.0,0.0,0.0,0.0,0.0,0.0,0.0,0.0,-3.9438,-4.0417,-4.0607,-4.0967,-4.1223,-4.1241,-4.1955,-4.244,-4.244,-4.2921,-4.325,-4.325,-4.325,-4.325,-4.325,-4.3069,-4.3069,-4.325,-4.2126,-4.1534,-4.1534,-4.0594,-4.007,-4.007,-4.007,-4.007,-4.007,-4.007,-4.007,-4.007,-4.007,-4.007,-4.007,-4.007,-4.007,-4.0054,-3.9817,-3.9428,-3.8937,-3.8235,-3.7314,-3.6407,-3.6172,-3.4874,-3.3339,-3.3531,-3.2664,-3.1482,-3.1482,-3.1482,-3.1482,-3.1482,-3.1482,-3.1482,-3.1482,-3.1482,-3.1482,-3.1482,-3.1482,-3.1482,-3.1482,-3.1278,-3.097,-3.0389,-3.0072,-2.9233,-2.722,-2.6425,-2.5612,-2.4112,-2.3424,-2.3078,-2.3078,-2.3078,-2.314,-2.3389,-2.3414,-2.3703,-2.4443,-2.4506,-2.4669,-2.5046,-2.5234,-2.4878,-2.3811,-2.2364,-2.1564,-2.1552,-1.988,-1.9189,-1.9482,-1.9912,-2.0117,-2.0127,-2.042,-2.0566,-1.7772,-1.9317,0.0,0.0,0.0,0.0,0.0,0.0,0.0,0.0,0.0,0.0,0.0,0.0,0.0,-3.895,-4.0048,-4.0703,-4.0154,-4.1076,-4.1375,-4.0204,-4.1122,-4.181,-4.181,-4.2342,-4.2711,-4.2711,-4.2711,-4.2711,-4.2711,-4.2121,-4.2062,-4.2655,-4.1534,-4.0903,-4.0903,-4.0368,-4.007,-4.007,-4.007,-4.007,-4.007,-4.007,-4.007,-4.007,-4.007,-4.007,-4.007,-4.007,-4.007,-4.0003,-3.9276,-3.8971,-3.8687,-3.6489,-3.5679,-3.5564,-3.4839,-3.3735,-3.2695,-3.3391,-3.2664,-3.1482,-3.1482,-3.1482,-3.1482,-3.1482,-3.1482,-3.1482,-3.1482,-3.1482,-3.1482,-3.1482,-3.1482,-3.1482,-3.1482,-3.0896,-3.0329,-3.0269,-2.9566,-2.8365,-2.6454,-2.6083,-2.5441,-2.3435,-2.3078,-2.3078,-2.309,-2.309,-2.3364,-2.3941,-2.4004,-2.4431,-2.5498,-2.5598,-2.5598,-2.5598,-2.6138,-2.5531,-2.3404,-2.2457,-2.1574,-2.0613,-2.0122,-1.9912,-1.9922,-2.0352,-2.0566,-2.0566,-2.0566,-2.0566,-1.7007,0.0,0.0,0.0,0.0,0.0,0.0,0.0,0.0,0.0,0.0,0.0,-3.8795,0.0,0.0,-3.9003,-3.9778,-4.0286,-4.0121,-4.0385,-4.0466,-4.0121,-4.0703,-4.1178,-4.1178,-4.1707,-4.208,-4.208,-4.248,-4.2711,-4.2711,-4.2519,-4.2519,-4.2693,-4.1534,-4.0903,-4.0903,-4.0368,-4.007,-4.007,-4.007,-4.007,-4.007,-4.007,-4.007,-4.007,-4.007,-4.007,-4.0037,-3.9529,-3.9326,-3.9242,-3.8514,-3.7565,-3.6605,-3.5943,-3.5052,-3.4177,-3.3951,-3.3339,-3.2641,-3.2841,-3.2272,-3.1482,-3.1482,-3.1482,-3.1482,-3.1482,-3.1482,-3.1482,-3.1482,-3.1482,-3.1482,-3.1482,-3.1482,-3.1482,-3.1482,-3.0896,-3.0133,-2.9504,-2.8684,-2.7616,-2.6051,-2.5422,-2.5001,-2.4368,-2.3991,-2.3879,-2.428,-2.433,-2.4243,-2.4017,-2.4343,-2.4707,-2.5021,-2.5385,-2.5774,-2.6176,-2.6433,-2.5704,-2.4017,-2.3074,-2.2303,-2.1618,-2.0507,-2.0068,-2.0371,-2.0498,-2.0566,-2.0566,-2.0566,-2.0566,-1.8257,0.0,0.0,0.0,0.0,0.0,0.0,0.0,0.0,0.0,0.0,-3.9487,-3.9459,-3.9191,0.0,-3.9377,-3.9783,-4.007,-4.007,-4.007,-4.007,-4.007,-4.0368,-4.0655,-4.0856,-4.1223,-4.1446,-4.1446,-4.1979,-4.2244,-4.1979,-4.1979,-4.1979,-4.1979,-4.1059,-4.0577,-4.0577,-4.0237,-4.007,-4.007,-3.9783,-3.9648,-3.9648,-3.9648,-3.9648,-3.9631,-3.9343,-3.9225,-3.9174,-3.8751,-3.8565,-3.8481,-3.7753,-3.6731,-3.5646,-3.5052,-3.4156,-3.3182,-3.3182,-3.2734,-3.2216,-3.2477,-3.212,-3.1482,-3.1482,-3.1482,-3.1482,-3.1482,-3.1482,-3.1482,-3.1482,-3.1482,-3.1482,-3.1482,-3.1482,-3.1409,-3.1087,-3.0389,-2.9504,-2.862,-2.7802,-2.6848,-2.582,-2.5335,-2.5059,-2.4858,-2.4544,-2.4443,-2.4782,-2.482,-2.477,-2.4644,-2.4933,-2.5222,-2.5448,-2.5762,-2.6088,-2.6508,-2.6533,-2.5726,-2.3967,-2.3447,-2.2567,-2.1441,-2.0599,-2.0303,-2.0566,-2.0566,-2.0566,-2.0566,-2.0566,-2.0566,0.0,0.0,0.0,0.0,0.0,0.0,0.0,0.0,0.0,0.0,0.0,-3.9191,-3.9868,-3.9495,-3.9309,-3.9969,-4.007,-4.007,-4.007,-4.007,-4.007,-4.007,-4.007,-4.0286,-4.078,-4.0758,-4.0723,-4.0723,-4.1227,-4.1279,-4.0741,-4.0695,-4.0695,-4.0695,-4.0163,-3.9884,-3.9884,-3.9884,-3.9884,-3.9868,-3.9208,-3.8903,-3.8903,-3.8903,-3.8903,-3.8853,-3.8193,-3.7905,-3.7905,-3.7838,-3.7804,-3.7736,-3.6912,-3.6133,-3.5349,-3.4027,-3.3093,-3.2492,-3.2492,-3.2064,-3.1582,-3.2272,-3.2064,-3.1482,-3.1482,-3.1482,-3.1482,-3.1482,-3.1482,-3.1482,-3.1482,-3.1482,-3.1467,-3.1409,-3.1409,-3.1219,-3.045,-2.9566,-2.862,-2.7855,-2.704,-2.6302,-2.5774,-2.5636,-2.5435,-2.4958,-2.4933,-2.4971,-2.4971,-2.4971,-2.5134,-2.5548,-2.5636,-2.5862,-2.6408,-2.6496,-2.6533,-2.6533,-2.6533,-2.5569,-2.3588,-2.3514,-2.2563,-2.0644,-2.0566,-2.0566,-2.0566,-2.0566,-2.0566,-2.0566,-2.0566,-2.0566,0.0,0.0,0.0,0.0,0.0,0.0,0.0,0.0,0.0,0.0,-3.8599,-3.9039,-3.9191,-3.9563,-3.9901,-4.0054,-4.007,-4.007,-4.007,-4.007,-4.007,-4.007,-4.007,-4.0171,-4.0237,-3.9776,-3.9435,-3.9435,-3.9364,-3.9295,-3.918,-3.9163,-3.9163,-3.9163,-3.8628,-3.8379,-3.8379,-3.8379,-3.8379,-3.8379,-3.821,-3.8142,-3.8142,-3.8142,-3.8142,-3.8125,-3.7973,-3.7905,-3.7872,-3.7263,-3.7026,-3.6895,-3.5585,-3.4677,-3.3944,-3.314,-3.2367,-3.1754,-3.1754,-3.164,-3.1524,-3.1697,-3.164,-3.1482,-3.1482,-3.1482,-3.1482,-3.1482,-3.1482,-3.1482,-3.1482,-3.1482,-3.1351,-3.0703,-3.0584,-3.0524,-3.0329,-2.9066,-2.792,-2.7736,-2.704,-2.6483,-2.6302,-2.59,-2.5561,-2.5448,-2.5812,-2.6101,-2.6101,-2.6101,-2.5975,-2.5636,-2.6,-2.6138,-2.5812,-2.6201,-2.6533,-2.6533,-2.6533,-2.5569,-2.3588,-2.3514,-2.2563,-2.0644,-2.0566,-2.0566,-2.0566,-2.0566,-2.0566,-2.0566,-2.0566,-2.0566,0.0,0.0,0.0,0.0,0.0,0.0,0.0,0.0,0.0,0.0,-3.7702,-3.8464,-3.8464,-3.8785,-3.9039,-3.9039,-3.9039,-3.9039,-3.9039,-3.9039,-3.9039,-3.9039,-3.9039,-3.9039,-3.9039,-3.87,-3.8464,-3.8464,-3.8597,-3.858,-3.8317,-3.858,-3.858,-3.8317,-3.8061,-3.7905,-3.7905,-3.7905,-3.7905,-3.7905,-3.7533,-3.7178,-3.6823,-3.7195,-3.7161,-3.6806,-3.6806,-3.6806,-3.6789,-3.6383,-3.6231,-3.6134,-3.5044,-3.4186,-3.3547,-3.2841,-3.212,-3.1482,-3.1482,-3.1482,-3.1482,-3.1482,-3.1482,-3.1482,-3.1482,-3.1482,-3.1482,-3.1482,-3.1482,-3.1482,-3.1482,-3.1482,-3.1409,-3.097,-3.0584,-3.0072,-2.9254,-2.8363,-2.7604,-2.7229,-2.6782,-2.6533,-2.6533,-2.6214,-2.6013,-2.6013,-2.6264,-2.6533,-2.6533,-2.6533,-2.6352,-2.6038,-2.6276,-2.6339,-2.6038,-2.6289,-2.6533,-2.6533,-2.6533,-2.5569,-2.3588,-2.3514,-2.2563,-2.0644,-2.0566,-2.0566,-2.0566,-2.0566,-2.0566,-2.0566,-2.0566,-2.0566,0.0,0.0,0.0,0.0,0.0,0.0,0.0,0.0,0.0,-3.5419,-3.6654,-3.7719,-3.7719,-3.7821,-3.7905,-3.7905,-3.7905,-3.7905,-3.7905,-3.7905,-3.7905,-3.7905,-3.7905,-3.7905,-3.7905,-3.7787,-3.7719,-3.7719,-3.7991,-3.7995,-3.7516,-3.7905,-3.795,-3.7516,-3.7516,-3.7516,-3.7516,-3.7516,-3.7516,-3.7516,-3.6874,-3.6231,-3.5639,-3.6282,-3.6231,-3.5622,-3.5622,-3.5622,-3.5622,-3.5622,-3.5515,-3.5362,-3.4688,-3.4037,-3.3339,-3.268,-3.2007,-3.1482,-3.1482,-3.1482,-3.1482,-3.1482,-3.1482,-3.1482,-3.1482,-3.1482,-3.1482,-3.1482,-3.1482,-3.1482,-3.1482,-3.1482,-3.1467,-3.1351,-3.0644,-2.969,-2.8247,-2.767,-2.7284,-2.6658,-2.6533,-2.6533,-2.6533,-2.6533,-2.6533,-2.6533,-2.6533,-2.6533,-2.6533,-2.6533,-2.6533,-2.6533,-2.6533,-2.6533,-2.6533,-2.6533,-2.6533,-2.6533,-2.6314,-2.5429,-2.3599,-2.3294,-2.2414,-2.0644,-2.0566,-2.0566,-2.0566,-2.0566,-2.0566,-2.0566,-2.0566,-2.0566,0.0,0.0,0.0,0.0,0.0,0.0,0.0,0.0,0.0,0.0,-3.5859,-3.6924,-3.6924,-3.7466,-3.7905,-3.7905,-3.7905,-3.7905,-3.7905,-3.7905,-3.7905,-3.7905,-3.7905,-3.7905,-3.7905,-3.7313,-3.6924,-3.6924,-3.6373,-3.5983,-3.5926,-3.6,-3.6,-3.5926,-3.5926,-3.5926,-3.5926,-3.5926,-3.5926,-3.5926,-3.5825,-3.5723,-3.5622,-3.5723,-3.5723,-3.5622,-3.5622,-3.5622,-3.5622,-3.5622,-3.5253,-3.4688,-3.3987,-3.3339,-3.2641,-3.191,-3.1582,-3.1482,-3.1482,-3.1482,-3.1482,-3.1482,-3.1482,-3.1482,-3.1482,-3.1482,-3.1482,-3.1482,-3.1482,-3.1482,-3.1482,-3.1482,-3.1351,-3.0644,-2.9827,-2.9129,-2.8876,-2.767,-2.6658,-2.6521,-2.6533,-2.6533,-2.6533,-2.6533,-2.6533,-2.6533,-2.6533,-2.6533,-2.6533,-2.6533,-2.6533,-2.6533,-2.6533,-2.6533,-2.6533,-2.6533,-2.6533,-2.6533,-2.5664,-2.4707,-2.3526,-2.2627,-2.1669,-2.0644,-2.0566,-2.0566,-2.0566,-2.0566,-2.0566,-2.0566,-2.0566,-2.0566,0.0,0.0,0.0,0.0,0.0,0.0,0.0,0.0,-3.388,-3.388,-3.4421,-3.5148,-3.5977,-3.64,-3.662,-3.662,-3.662,-3.662,-3.662,-3.662,-3.662,-3.662,-3.662,-3.662,-3.662,-3.6332,-3.6129,-3.6129,-3.5808,-3.5622,-3.5622,-3.5622,-3.5622,-3.5622,-3.5622,-3.5622,-3.5622,-3.5622,-3.5622,-3.5622,-3.5622,-3.5622,-3.5622,-3.5622,-3.5622,-3.5622,-3.5622,-3.5362,-3.5052,-3.5052,-3.464,-3.3987,-3.3287,-3.2841,-3.2492,-3.1796,-3.1482,-3.1482,-3.1482,-3.1482,-3.1482,-3.1482,-3.1482,-3.1482,-3.1482,-3.1482,-3.1482,-3.1482,-3.1482,-3.1482,-3.1482,-3.1482,-3.1409,-3.1087,-2.995,-2.8925,-2.8593,-2.7471,-2.6533,-2.6533,-2.6533,-2.6533,-2.6533,-2.6533,-2.6533,-2.6533,-2.6533,-2.6533,-2.6533,-2.6533,-2.6533,-2.6533,-2.6533,-2.6533,-2.6533,-2.6533,-2.6533,-2.6533,-2.5594,-2.4564,-2.3514,-2.2553,-2.1593,-2.0644,-2.0566,-2.0566,-2.0566,-2.0566,-2.0566,-2.0566,-2.0566,-2.0566,0.0,0.0,0.0,0.0,0.0,0.0,0.0,0.0,-3.2848,0.0,-3.3152,-3.3744,-3.4861,-3.5199,-3.5402,-3.5588,-3.5622,-3.5622,-3.5622,-3.5622,-3.5622,-3.5622,-3.5622,-3.5622,-3.5622,-3.5622,-3.5622,-3.5622,-3.5622,-3.5622,-3.5622,-3.5622,-3.5622,-3.5622,-3.5622,-3.5622,-3.5622,-3.5622,-3.5622,-3.5622,-3.5622,-3.5622,-3.5622,-3.5622,-3.5622,-3.5622,-3.5622,-3.5207,-3.4576,-3.4576,-3.4087,-3.3287,-3.2803,-3.2492,-3.2272,-3.1682,-3.1482,-3.1482,-3.1482,-3.1482,-3.1482,-3.1482,-3.1482,-3.1482,-3.1482,-3.1482,-3.1482,-3.1482,-3.1482,-3.1482,-3.1482,-3.1351,-3.1219,-3.1219,-2.9889,-2.8492,-2.7828,-2.7082,-2.6533,-2.6533,-2.6533,-2.6533,-2.6533,-2.6533,-2.6533,-2.6533,-2.6533,-2.6533,-2.6533,-2.6533,-2.6533,-2.6533,-2.6533,-2.6533,-2.6533,-2.6533,-2.6383,-2.6094,-2.5146,-2.4192,-2.3147,-2.2188,-2.1298,-2.0644,-2.0566,-2.0566,-2.0566,-2.0566,-2.0566,-2.0566,-2.0566,-2.0566,0.0,0.0,0.0,0.0,0.0,0.0,0.0,0.0,-3.1309,-3.1309,-3.2425,-3.3423,-3.3508,-3.4083,-3.4793,-3.5504,-3.5622,-3.5622,-3.5622,-3.5622,-3.5622,-3.5622,-3.5622,-3.5622,-3.5622,-3.5622,-3.5622,-3.5622,-3.5622,-3.5622,-3.5622,-3.5622,-3.5622,-3.5622,-3.5622,-3.5622,-3.5622,-3.5622,-3.5622,-3.5622,-3.5622,-3.5622,-3.5622,-3.5622,-3.5622,-3.5622,-3.5622,-3.5207,-3.4576,-3.4576,-3.3836,-3.2641,-3.2586,-3.216,-3.1524,-3.1524,-3.1482,-3.1482,-3.1482,-3.1482,-3.1482,-3.1482,-3.1482,-3.1482,-3.1482,-3.1482,-3.1482,-3.1482,-3.1482,-3.1482,-3.1482,-3.0896,-3.0329,-3.0329,-2.9002,-2.7537,-2.6782,-2.6521,-2.6533,-2.6533,-2.6533,-2.6533,-2.6533,-2.6533,-2.6533,-2.6533,-2.6533,-2.6533,-2.6533,-2.6533,-2.6533,-2.6533,-2.6533,-2.6533,-2.6533,-2.6533,-2.6094,-2.5158,-2.412,-2.3147,-2.2103,-2.1155,-2.0634,-2.0566,-2.0566,-2.0566,-2.0566,-2.0566,-2.0566,-2.0566,-2.0566,-2.0566,0.0,0.0,0.0,0.0,0.0,0.0,0.0,-2.7418,-2.9025,-2.9025,-3.0243,-3.1444,-3.1901,-3.2983,-3.388,-3.4167,-3.4201,-3.4201,-3.4201,-3.4201,-3.4201,-3.4201,-3.4201,-3.4201,-3.4201,-3.4201,-3.4201,-3.4201,-3.4201,-3.4201,-3.4201,-3.4201,-3.4201,-3.4201,-3.4201,-3.4201,-3.4201,-3.4201,-3.4201,-3.4201,-3.4201,-3.4201,-3.4201,-3.4201,-3.3967,-3.3606,-3.3606,-3.3736,-3.3987,-3.3987,-3.313,-3.1894,-3.1894,-3.1739,-3.1422,-3.1046,-3.115,-3.1362,-3.0567,-3.0836,-3.1407,-3.1016,-3.1165,-3.1482,-3.1482,-3.1482,-3.1482,-3.1482,-3.1482,-3.1409,-3.0837,-3.0524,-3.0011,-2.8876,-2.7736,-2.685,-2.6589,-2.6533,-2.6533,-2.6533,-2.6533,-2.6533,-2.6533,-2.6533,-2.6533,-2.6533,-2.6533,-2.6533,-2.6533,-2.6533,-2.6533,-2.6533,-2.6533,-2.6533,-2.6533,-2.6533,-2.6094,-2.5075,-2.4047,-2.3073,-2.2027,-2.1078,-2.0566,-2.0566,-2.0566,-2.0566,-2.0566,-2.0566,-2.0566,-2.0566,-2.0566,-2.0566,0.0,0.0,0.0,0.0,0.0,0.0,0.0,0.0,-2.6539,-2.73,-2.845,-2.9567,-3.0311,-3.1258,-3.2256,-3.3237,-3.3406,-3.3406,-3.3406,-3.3406,-3.3406,-3.3406,-3.3406,-3.3406,-3.3406,-3.3406,-3.3406,-3.3406,-3.3406,-3.3406,-3.3406,-3.3406,-3.3406,-3.3406,-3.3406,-3.3406,-3.3406,-3.3406,-3.3406,-3.3406,-3.3406,-3.3406,-3.3406,-3.3406,-3.3177,-3.2779,-3.2585,-3.2559,-3.2574,-3.2574,-3.1927,-3.0881,-3.0881,-3.0881,-3.0821,-3.0357,-3.0492,-3.0746,-2.9879,-3.0148,-3.0806,-3.0342,-3.0507,-3.0881,-3.0881,-3.0881,-3.0881,-3.0881,-3.0881,-3.0696,-2.9871,-2.9405,-2.8865,-2.7564,-2.6905,-2.6533,-2.6533,-2.6533,-2.6533,-2.6533,-2.6533,-2.6533,-2.6533,-2.6533,-2.6533,-2.6533,-2.6533,-2.6533,-2.6533,-2.6533,-2.6533,-2.6533,-2.6533,-2.6533,-2.6533,-2.6533,-2.5943,-2.4552,-2.3891,-2.2925,-2.1593,-2.0934,-2.0566,-2.0566,-2.0566,-2.0566,-2.0566,-2.0566,-2.0566,-2.0566,-2.0566,-2.0566,0.0,0.0,0.0,0.0,0.0,0.0,-2.2395,0.0,-2.39,-2.6099,-2.7165,-2.7926,-2.8738,-2.896,-2.9888,-3.278,-3.3271,-3.3305,-3.3305,-3.3322,-3.3339,-3.3339,-3.3339,-3.3339,-3.3339,-3.3339,-3.3339,-3.3339,-3.3339,-3.3339,-3.3339,-3.3339,-3.3339,-3.3339,-3.3339,-3.3339,-3.3339,-3.3339,-3.3339,-3.3339,-3.3339,-3.3339,-3.3339,-3.3339,-3.3339,-3.3296,-3.2669,-3.1707,-3.0565,-3.0596,-3.0195,-2.9579,-2.9579,-2.9579,-2.9579,-2.9564,-2.9564,-2.9579,-2.9535,-2.9549,-2.9579,-2.9564,-2.9564,-2.9579,-2.9579,-2.9579,-2.9579,-2.9579,-2.9579,-2.9387,-2.8579,-2.7607,-2.6804,-2.6536,-2.6496,-2.6496,-2.6496,-2.6521,-2.6533,-2.6533,-2.6533,-2.6533,-2.6533,-2.6533,-2.6533,-2.6533,-2.6533,-2.6533,-2.6533,-2.6533,-2.6533,-2.6533,-2.6533,-2.6533,-2.6533,-2.6533,-2.5639,-2.3661,-2.3514,-2.2638,-2.0712,-2.0644,-2.0566,-2.0566,-2.0566,-2.0566,-2.0566,-2.0566,-2.0566,-2.0566,-2.0566,-2.0566,-1.104,0.0,0.0,0.0,0.0,0.0,0.0,0.0,-2.0788,-2.3054,-2.4103,-2.5017,-2.6302,-2.7418,-2.8416,-2.9245,-3.0294,-3.1021,-3.1021,-3.1478,-3.1799,-3.1799,-3.1799,-3.1799,-3.1799,-3.1799,-3.1799,-3.1799,-3.1799,-3.1799,-3.1799,-3.1799,-3.1799,-3.1799,-3.1799,-3.1799,-3.1799,-3.1799,-3.1799,-3.1799,-3.1799,-3.1799,-3.1799,-3.1799,-3.158,-3.1115,-3.0521,-2.9798,-2.9146,-3.0157,-3.0195,-2.9579,-2.9579,-2.9579,-2.952,-2.9041,-2.9175,-2.9445,-2.8472,-2.8771,-2.9505,-2.9026,-2.919,-2.9579,-2.9579,-2.9579,-2.9579,-2.9579,-2.9579,-2.9401,-2.8552,-2.6837,-2.5499,-2.5935,-2.5972,-2.5837,-2.5837,-2.6163,-2.6533,-2.6533,-2.6533,-2.6533,-2.6533,-2.6533,-2.6533,-2.6533,-2.6533,-2.6533,-2.6533,-2.6533,-2.6533,-2.6533,-2.6533,-2.6533,-2.6533,-2.6533,-2.5943,-2.4636,-2.3891,-2.2925,-2.1669,-2.0934,-2.0566,-2.0566,-2.0566,-2.0566,-2.0566,-2.0566,-2.0566,-2.0566,-2.0566,-2.0566,0.0,0.0,0.0,0.0,0.0,0.0,-1.7821,-1.8155,-1.8768,-2.1519,-2.2546,-2.3393,-2.4864,-2.5845,-2.642,-2.642,-2.7828,-2.9106,-2.9587,-3.0006,-3.0277,-3.0277,-3.0277,-3.0277,-3.0277,-3.0548,-3.0734,-3.0734,-3.1021,-3.119,-3.119,-3.119,-3.119,-3.119,-3.119,-3.119,-3.119,-3.119,-3.119,-3.119,-3.119,-3.119,-3.119,-3.119,-3.0878,-3.0251,-2.9673,-2.9042,-2.8525,-2.9116,-2.9113,-2.8742,-2.8742,-2.8742,-2.8697,-2.8308,-2.8412,-2.8637,-2.7895,-2.8135,-2.8682,-2.8293,-2.8427,-2.8742,-2.8742,-2.8742,-2.8742,-2.8742,-2.8515,-2.8238,-2.7977,-2.6408,-2.5125,-2.573,-2.5576,-2.5272,-2.5272,-2.5536,-2.5912,-2.6445,-2.6533,-2.6533,-2.6533,-2.6533,-2.6533,-2.6533,-2.6533,-2.6533,-2.6533,-2.6533,-2.6533,-2.6533,-2.6533,-2.6533,-2.6533,-2.6533,-2.6094,-2.5075,-2.442,-2.3425,-2.1829,-2.1251,-2.0651,-2.0039,-2.0205,-2.0381,-2.0566,-2.0566,-2.0566,-2.0566,-2.0566,-2.0566,0.0,0.0,0.0,0.0,-1.5562,0.0,-1.8046,-1.755,-1.7434,-2.0572,-2.1362,-2.2012,-2.3579,-2.3964,-2.4049,-2.4147,-2.5695,-2.7321,-2.8572,-2.8929,-2.9047,-2.9011,-2.9011,-2.9011,-2.9011,-2.9583,-2.9989,-2.9989,-3.0581,-3.0954,-3.0954,-3.0954,-3.0987,-3.1072,-3.1072,-3.1106,-3.119,-3.119,-3.119,-3.119,-3.119,-3.119,-3.119,-3.1151,-3.0797,-3.0251,-2.9585,-2.9012,-2.8463,-2.786,-2.7625,-2.7625,-2.7625,-2.7625,-2.7625,-2.7625,-2.7625,-2.7625,-2.7625,-2.7625,-2.7625,-2.7625,-2.7625,-2.7625,-2.7625,-2.7625,-2.7625,-2.7625,-2.7086,-2.6625,-2.7104,-2.6128,-2.5116,-2.5603,-2.5191,-2.4732,-2.4732,-2.4782,-2.5109,-2.6088,-2.6276,-2.6302,-2.642,-2.6433,-2.6433,-2.6433,-2.6483,-2.6533,-2.6533,-2.6533,-2.6533,-2.6533,-2.6533,-2.6533,-2.6533,-2.6471,-2.5995,-2.498,-2.4791,-2.3681,-2.1583,-2.1282,-2.0595,-1.9505,-1.9723,-2.0134,-2.0643,-2.0615,-2.0566,-2.0566,-2.0566,-2.0566,-1.7168,-1.7394,-1.7631,-1.6802,-1.6872,0.0,-1.6395,-1.5875,-1.5904,-1.7378,-1.7087,-1.7299,-1.9579,-2.0483,-2.1155,-2.1953,-2.3249,-2.4856,-2.6877,-2.8459,-2.9299,-2.9047,-2.9011,-2.9011,-2.9011,-2.911,-2.9194,-2.9194,-2.933,-2.9414,-2.9414,-2.9414,-2.9685,-3.0311,-3.0311,-3.0598,-3.119,-3.119,-3.119,-3.119,-3.119,-3.119,-3.119,-3.0699,-3.0435,-3.0251,-2.9134,-2.8606,-2.8463,-2.786,-2.7625,-2.7625,-2.7625,-2.7625,-2.7625,-2.7625,-2.7625,-2.7625,-2.7625,-2.7625,-2.7625,-2.7625,-2.7625,-2.7625,-2.7625,-2.7625,-2.7625,-2.7625,-2.7086,-2.6539,-2.6654,-2.5564,-2.4477,-2.4596,-2.4403,-2.4167,-2.4167,-2.4506,-2.4883,-2.5096,-2.5146,-2.5272,-2.5686,-2.5774,-2.5774,-2.5774,-2.6163,-2.6533,-2.6533,-2.6533,-2.6533,-2.6533,-2.6533,-2.6533,-2.6533,-2.6038,-2.54,-2.4477,-2.3248,-2.2351,-2.1915,-2.0452,-1.9928,-2.0329,-1.971,-1.9969,-2.1049,-2.0765,-2.0566,-2.0566,-2.0566,-2.0566,-1.9384,-1.929,-1.9232,-1.8339,-1.795,0.0,0.0,-1.6592,-1.6452,-1.825,-1.7505,-1.7216,-1.9621,-2.0027,-2.0289,-2.1216,-2.2654,-2.3893,-2.4438,-2.5953,-2.6939,-2.6775,-2.6775,-2.6894,-2.7266,-2.7621,-2.8163,-2.8924,-2.9011,-2.9011,-2.9011,-2.9011,-2.9161,-2.9533,-2.955,-2.9719,-3.0091,-3.0091,-3.0277,-3.0649,-3.0649,-3.0835,-3.119,-3.0878,-3.0435,-2.9805,-2.9225,-2.8591,-2.8042,-2.771,-2.7625,-2.7625,-2.7625,-2.7625,-2.7625,-2.7625,-2.7625,-2.7625,-2.7625,-2.7625,-2.7625,-2.7625,-2.7625,-2.7625,-2.7625,-2.7625,-2.7625,-2.7625,-2.7357,-2.6982,-2.6616,-2.5673,-2.4738,-2.4408,-2.394,-2.3565,-2.3565,-2.3791,-2.4067,-2.4356,-2.418,-2.4243,-2.5071,-2.5209,-2.5209,-2.5209,-2.546,-2.5636,-2.5636,-2.5636,-2.5636,-2.5636,-2.5636,-2.5636,-2.5636,-2.5372,-2.5,-2.4578,-2.3845,-2.3105,-2.237,-2.1076,-2.0327,-2.0257,-1.9363,-1.9583,-2.0865,-2.0462,-2.0352,-2.0566,-2.0566,-2.0566,-2.126,-2.1011,-2.0824,-1.9985,-1.9164,-1.8619,0.0,0.0,0.0,-1.9475,-1.8726,-1.834,0.0,-1.9993,-1.9638,-2.0476,-2.1979,-2.2625,-2.1462,-2.2643,-2.3782,-2.4222,-2.4421,-2.4712,-2.5338,-2.5676,-2.6471,-2.8029,-2.7858,-2.7892,-2.8315,-2.8332,-2.8467,-2.8755,-2.8755,-2.8822,-2.9011,-2.9011,-2.9296,-2.9888,-2.9888,-3.0209,-3.0768,-3.0673,-3.0022,-2.9006,-2.8873,-2.8264,-2.738,-2.738,-2.7455,-2.7625,-2.7625,-2.7625,-2.7625,-2.7625,-2.7625,-2.7625,-2.7625,-2.7625,-2.7625,-2.7625,-2.7625,-2.7625,-2.7625,-2.7509,-2.7408,-2.756,-2.7509,-2.7203,-2.6496,-2.5837,-2.5175,-2.4279,-2.3603,-2.3078,-2.3078,-2.3078,-2.3215,-2.374,-2.3452,-2.3464,-2.4494,-2.4669,-2.4669,-2.4669,-2.4757,-2.482,-2.482,-2.482,-2.482,-2.482,-2.482,-2.482,-2.482,-2.472,-2.4593,-2.4387,-2.4288,-2.3759,-2.2595,-2.1709,-2.0786,-1.9776,-1.8914,-1.9134,-2.0467,-2.0012,-2.0019,-2.0439,-2.0527,-2.0566,-2.3005,-2.2876,-2.2558,-2.1097,-2.1145,-2.078,-1.7959,0.0,-1.837,-1.7349,0.0,-1.7799,-1.8954,0.0,0.0,-1.8379,-1.907,-1.9075,-1.7852,-1.9331,-2.1278,-2.3274,-2.4086,-2.454,-2.4625,-2.3528,-2.341,-2.4913,-2.3799,-2.3917,-2.5896,-2.5998,-2.659,-2.7909,-2.796,-2.8281,-2.8975,-2.9011,-2.9025,-2.911,-2.911,-2.9144,-2.9228,-2.8688,-2.8127,-2.7492,-2.6992,-2.6734,-2.6692,-2.6692,-2.7036,-2.7625,-2.7625,-2.7625,-2.7625,-2.7625,-2.7625,-2.7625,-2.7625,-2.7625,-2.7625,-2.7625,-2.7625,-2.7625,-2.7625,-2.7137,-2.6774,-2.7408,-2.7137,-2.6457,-2.5728,-2.5453,-2.5063,-2.359,-2.3198,-2.3078,-2.3078,-2.3078,-2.309,-2.3165,-2.3175,-2.3339,-2.3979,-2.4092,-2.4092,-2.4092,-2.4506,-2.482,-2.482,-2.482,-2.482,-2.482,-2.482,-2.482,-2.482,-2.4368,-2.3753,-2.3015,-2.2507,-2.2157,-2.1972,-2.1129,-2.0281,-1.9383,-1.8532,-1.8684,-1.9986,-1.9563,-1.957,-2.0,-2.0391,-2.0566,-2.3566,-2.3822,-2.3759,-2.1972,-2.1786,-2.1551,-1.9682,-1.8979,-1.8732,-1.8834,0.0,0.0,0.0,0.0,0.0,0.0,-1.8404,-1.7788,-1.6419,-1.7657,-1.9249,-2.0619,-2.1059,-2.1769,-2.3105,-2.2779,-2.3045,-2.4404,-2.3238,-2.3215,-2.4864,-2.5372,-2.5896,-2.6505,-2.6945,-2.7317,-2.7655,-2.7655,-2.7875,-2.8298,-2.8298,-2.8552,-2.8975,-2.8422,-2.7842,-2.7253,-2.6698,-2.6275,-2.6019,-2.6019,-2.6183,-2.6437,-2.6437,-2.6901,-2.7625,-2.7625,-2.7625,-2.7625,-2.7625,-2.7625,-2.7524,-2.7086,-2.7255,-2.7458,-2.6587,-2.639,-2.6457,-2.6375,-2.6108,-2.5673,-2.4951,-2.4738,-2.4509,-2.3365,-2.3078,-2.3078,-2.3078,-2.3078,-2.3078,-2.3078,-2.3078,-2.3153,-2.3452,-2.3502,-2.3502,-2.3502,-2.369,-2.3779,-2.3779,-2.3779,-2.3779,-2.3779,-2.3779,-2.3779,-2.3779,-2.3627,-2.3306,-2.2973,-2.269,-2.2384,-2.1939,-2.1553,-2.091,-2.0074,-1.9177,-1.9003,-1.9582,-1.9104,-1.9131,-1.957,-2.0244,-2.0566,-2.3896,-2.4272,-2.4263,-2.2407,-2.1992,-2.1703,-2.0581,-1.9719,-1.9462,-2.0349,-1.9468,0.0,0.0,0.0,0.0,0.0,0.0,-1.7151,-1.5257,-1.6272,-1.7473,-1.82,-1.8826,-1.9858,-2.1515,-2.1241,-2.1608,-2.3151,-2.1863,-2.1829,-2.3795,-2.4408,-2.4983,-2.5592,-2.6116,-2.6488,-2.6691,-2.6691,-2.6962,-2.752,-2.752,-2.7737,-2.8152,-2.7769,-2.7199,-2.6455,-2.6092,-2.5708,-2.5345,-2.5345,-2.545,-2.5615,-2.5615,-2.6198,-2.7051,-2.7245,-2.746,-2.7625,-2.7625,-2.7625,-2.7524,-2.6982,-2.7152,-2.7408,-2.6322,-2.6108,-2.6122,-2.5783,-2.5398,-2.4951,-2.4452,-2.4292,-2.4118,-2.3305,-2.3078,-2.3078,-2.3078,-2.3078,-2.3078,-2.3078,-2.3078,-2.3078,-2.3078,-2.3078,-2.3078,-2.3078,-2.3078,-2.3078,-2.3078,-2.3078,-2.3078,-2.3078,-2.3078,-2.3078,-2.3078,-2.3078,-2.3078,-2.3078,-2.3078,-2.2763,-2.1939,-2.1877,-2.1365,-2.0268,-1.9628,-1.9177,-1.8911,-1.8696,-1.8857,-1.9307,-2.0049,-2.0449,-2.419,-2.4189,-2.3822,-2.2208,-2.1805,-2.1331,-1.9487,-1.9909,-2.0753,-2.087,-2.1554,-2.2235,-2.2548,0.0,0.0,0.0,0.0,0.0,0.0,-1.4733,-1.5933,-1.6682,-1.8674,-1.9985,-2.0069,-1.8132,-1.78,-1.9968,-1.8115,-1.8494,-2.2175,-2.2395,-2.3393,-2.5541,-2.5625,-2.5981,-2.6691,-2.6691,-2.6708,-2.6725,-2.6725,-2.6521,-2.6079,-2.6079,-2.5476,-2.4492,-2.4451,-2.4518,-2.4612,-2.4612,-2.5031,-2.5615,-2.5615,-2.563,-2.5749,-2.6378,-2.7021,-2.7625,-2.7625,-2.7625,-2.7625,-2.7575,-2.7575,-2.7575,-2.756,-2.6534,-2.5563,-2.6283,-2.5453,-2.435,-2.4292,-2.4292,-2.4118,-2.3305,-2.3078,-2.3078,-2.3078,-2.3078,-2.3078,-2.3078,-2.3078,-2.3078,-2.3078,-2.3078,-2.3078,-2.3078,-2.3078,-2.3078,-2.3078,-2.3078,-2.3078,-2.3078,-2.3078,-2.3078,-2.3078,-2.3078,-2.3078,-2.3078,-2.3078,-2.2763,-2.1939,-2.1877,-2.1101,-1.9365,-1.9299,-1.8844,-1.8008,-1.8428,-1.8857,-1.9297,-1.9736,-2.0166,-2.419,-2.4575,-2.4593,-2.2997,-2.2593,-2.2153,-2.0383,-2.0298,-2.0498,-2.0167,-2.0976,-2.1703,-2.1704,0.0,0.0,0.0,0.0,0.0,0.0,-1.3837,-1.4411,-1.5155,0.0,0.0,-1.7185,-1.7416,-1.7881,-1.8504,-1.8421,-1.9297,-2.1475,-2.2496,-2.3596,-2.4814,-2.5012,-2.5444,-2.621,-2.6227,-2.6068,-2.5709,-2.6068,-2.5961,-2.5449,-2.5089,-2.4736,-2.4389,-2.4032,-2.3887,-2.3939,-2.3939,-2.4073,-2.4283,-2.4283,-2.4567,-2.5091,-2.6183,-2.6722,-2.6976,-2.7475,-2.7625,-2.7524,-2.7034,-2.7188,-2.7408,-2.6428,-2.6122,-2.596,-2.5231,-2.4681,-2.4176,-2.3649,-2.3484,-2.3424,-2.3125,-2.3078,-2.3078,-2.3078,-2.3078,-2.3078,-2.3078,-2.3078,-2.3078,-2.3078,-2.3078,-2.3078,-2.3078,-2.3078,-2.3078,-2.3078,-2.3078,-2.3078,-2.3078,-2.3078,-2.3078,-2.3078,-2.3078,-2.3078,-2.3078,-2.3078,-2.3005,-2.2702,-2.2689,-2.2187,-2.1037,-2.1037,-2.0333,-1.8844,-1.8998,-1.8972,-1.8867,-1.9297,-1.9883,-2.419,-2.4575,-2.4649,-2.3327,-2.2997,-2.2648,-2.1272,-2.1076,-2.1152,-2.0909,-2.1498,-2.2054,-2.208,-2.1027,0.0,0.0,0.0,0.0,0.0,-1.3396,-1.3583,-1.4056,0.0,0.0,0.0,-1.626,-1.6806,-1.7726,-1.7637,-1.8495,-2.0653,-2.1667,-2.2784,-2.4083,-2.4227,-2.4713,-2.5565,-2.5565,-2.5428,-2.5205,-2.554,-2.5411,-2.4894,-2.4552,-2.4307,-2.4116,-2.3752,-2.3595,-2.3595,-2.3595,-2.3595,-2.3595,-2.3595,-2.3864,-2.4403,-2.5495,-2.6183,-2.6647,-2.7081,-2.743,-2.7524,-2.7034,-2.7188,-2.7408,-2.6481,-2.6162,-2.5906,-2.4951,-2.4292,-2.3767,-2.3245,-2.3078,-2.3078,-2.3078,-2.3078,-2.3078,-2.3078,-2.3078,-2.3078,-2.3078,-2.3078,-2.3078,-2.3078,-2.3078,-2.3078,-2.3078,-2.3078,-2.3078,-2.3078,-2.3078,-2.3078,-2.3078,-2.3078,-2.3078,-2.3078,-2.3078,-2.3078,-2.3078,-2.3078,-2.3078,-2.3078,-2.3078,-2.2689,-2.1939,-2.1877,-2.1175,-1.9748,-1.9431,-1.9204,-1.9044,-1.9059,-1.9434]}]]